GFSGBSN_700_rhum_000.txt.gz
RH
9 9 18 20 23 26 22 22 20 19 27 36 36 24 34 47 67 70 70 66 61 65 65 64 58 52 48 46 42 59 71 53 39 47 54 69 63 65 78 87 93 92 90 81 75 65 62
12 9 9 16 20 23 23 21 22 22 21 34 39 24 26 40 62 71 73 62 63 65 68 64 59 50 45 43 45 43 46 46 56 52 60 70 78 75 88 92 90 91 81 79 76 70 68
15 13 10 11 15 21 22 18 22 22 21 28 40 35 19 31 49 70 68 62 62 65 71 70 66 54 45 45 54 52 64 51 53 60 76 91 78 97 99 90 95 97 86 81 75 76 68
36 18 12 11 12 15 19 19 19 24 25 23 42 42 20 21 35 59 74 75 56 72 84 81 72 61 55 49 52 42 52 45 41 45 58 71 99 98 95 100 97 89 89 89 74 76 70
48 40 22 12 11 12 15 18 18 26 27 27 36 45 37 17 25 39 70 78 75 76 93 99 82 75 66 56 54 58 59 60 57 57 52 54 77 85 99 93 97 95 96 84 76 77 76
99 80 51 30 11 11 11 16 18 23 29 33 31 50 52 29 22 29 52 84 77 75 98 99 92 83 74 62 59 61 64 64 60 55 65 66 71 69 70 96 95 99 100 86 83 70 77
98 79 96 73 39 10 12 12 17 21 31 36 35 47 59 45 25 26 35 61 67 82 93 91 96 86 88 70 64 63 64 60 67 60 60 76 81 71 60 60 61 89 92 90 75 72 71
26 91 97 96 77 36 13 14 15 21 31 36 42 42 66 61 35 27 23 54 82 91 99 97 100 99 96 87 82 74 67 65 58 61 67 96 89 35 54 69 85 79 98 93 76 76 69
4 67 96 98 96 69 19 19 16 19 31 35 44 44 76 76 60 37 28 51 87 84 100 98 96 100 87 98 94 83 80 73 63 79 93 86 28 58 88 92 95 92 90 97 91 73 74
0 8 98 98 99 98 84 38 22 22 40 43 44 49 79 82 76 58 36 49 62 80 99 95 86 92 99 99 98 88 98 93 86 85 88 97 59 78 91 92 84 86 73 96 86 88 78
27 1 26 88 79 100 94 89 85 87 94 82 45 51 79 90 80 62 44 39 47 92 97 95 98 91 89 94 97 88 92 98 93 84 95 81 79 87 81 81 74 78 77 90 84 100 80
85 62 7 41 96 98 97 84 99 98 100 98 77 62 83 92 83 51 40 44 67 99 93 91 92 76 94 82 97 96 87 96 91 90 96 87 87 82 75 76 73 75 84 86 100 98 95
80 87 76 8 92 93 98 89 100 98 100 100 96 86 94 92 88 46 47 71 99 99 86 97 87 85 88 97 98 98 97 99 94 100 99 95 68 91 72 87 91 99 98 98 100 99 76
90 97 82 58 90 92 98 90 91 98 98 100 100 97 100 100 96 61 69 100 99 81 86 89 90 96 98 95 96 96 98 95 92 88 98 93 77 66 74 74 88 100 90 100 97 96 58
77 94 92 97 100 94 98 93 99 98 100 100 100 100 100 99 99 82 89 100 88 98 96 97 98 99 100 98 98 95 99 96 86 92 98 93 91 95 67 85 99 96 100 86 100 39 52
83 94 98 99 94 98 98 99 91 95 100 99 100 100 99 99 99 100 97 99 99 98 96 98 98 90 99 98 94 92 91 84 74 83 88 78 97 69 85 99 99 98 77 99 96 58 65
83 95 96 98 90 97 99 93 98 98 98 98 100 100 98 99 98 99 98 99 100 98 99 98 78 91 83 82 75 78 76 71 75 79 96 93 95 99 99 98 95 100 99 95 93 47 54
59 88 97 99 93 97 98 88 100 99 99 98 100 100 98 99 98 98 98 98 98 98 99 98 91 96 68 92 85 79 88 94 73 78 86 93 98 98 97 91 94 86 97 92 52 56 47
54 92 97 98 97 98 96 100 96 99 99 96 99 100 99 99 99 98 91 99 98 99 98 98 78 80 67 68 65 64 80 84 70 69 76 96 98 99 93 99 100 99 97 73 75 58 49
58 90 97 98 92 98 99 99 99 88 100 94 99 99 99 99 92 99 100 99 99 97 98 97 76 86 77 68 66 89 73 67 62 58 56 99 94 99 96 82 80 93 71 57 73 60 48
48 85 95 97 95 98 98 100 98 95 100 94 100 98 98 98 90 98 99 99 99 99 99 92 77 98 90 82 79 71 74 82 81 64 69 98 99 100 68 64 69 71 64 62 70 61 54
53 74 99 95 89 98 99 98 95 99 100 98 98 99 98 98 99 100 88 97 98 99 99 94 72 84 94 90 77 79 71 92 76 88 80 94 94 77 68 68 73 75 69 64 65 62 59
26 73 96 99 98 99 99 98 98 100 99 97 99 98 100 98 87 97 95 98 98 98 98 98 90 95 97 86 94 90 78 73 89 70 87 95 80 80 66 63 64 64 66 69 65 67 69
3 40 86 95 85 96 100 98 98 100 99 100 99 100 99 98 90 79 92 95 93 98 99 97 100 99 92 98 98 98 90 78 80 94 82 65 72 89 65 66 75 54 50 58 59 56 58
3 33 77 96 83 95 98 98 98 92 97 100 99 99 99 98 99 91 81 96 98 98 99 99 100 96 100 87 100 99 100 83 85 93 94 92 81 89 84 71 66 58 52 53 57 54 59
4 12 48 84 73 79 96 98 100 95 90 100 100 100 99 98 98 88 68 89 99 99 99 98 100 100 100 100 100 98 97 92 96 99 99 100 95 91 81 68 70 52 39 45 54 59 54
8 11 51 85 46 55 94 99 99 96 100 96 99 99 100 98 98 89 82 83 99 99 99 99 99 100 99 100 100 95 98 95 99 99 99 100 99 100 90 84 65 60 50 40 52 51 42
12 13 23 65 50 60 90 98 99 100 94 90 96 94 100 98 99 91 76 93 97 99 99 99 100 100 100 99 99 88 94 89 92 92 95 98 98 98 99 97 88 60 58 43 46 44 37
15 17 26 92 78 93 99 98 98 100 93 82 94 93 100 99 98 86 58 88 97 99 99 99 99 98 98 98 91 97 86 88 87 99 98 98 92 94 86 82 66 63 58 56 50 47 49

GFSGBSN_700_rhum_003.txt.gz
RH
26 23 13 11 9 13 19 24 22 18 22 22 23 35 36 23 31 51 67 73 69 65 62 61 58 61 60 56 47 52 48 42 40 37 33 57 74 73 66 69 70 65 59 73 53 50 56
54 34 28 13 11 10 12 18 23 19 20 22 21 30 39 24 23 40 63 78 65 60 61 63 63 62 60 50 52 51 46 42 35 32 38 36 57 74 74 80 95 90 84 70 80 84 67
26 93 44 34 14 12 11 13 19 21 17 23 24 22 38 38 18 31 52 67 68 56 59 62 63 66 59 51 56 57 58 51 45 38 38 68 76 81 84 78 85 93 94 84 70 73 80
3 41 99 59 45 18 11 11 13 18 16 22 26 25 34 44 23 19 37 52 55 69 60 62 64 66 48 57 57 52 56 49 51 53 71 70 98 88 94 94 76 81 82 83 79 73 78
0 5 50 88 97 56 27 10 11 14 16 17 26 30 30 47 40 16 22 33 46 66 68 65 57 64 52 52 60 61 60 59 59 50 60 72 80 99 88 98 96 83 97 91 87 78 76
1 0 9 98 76 97 77 36 10 12 16 17 28 33 34 49 52 33 22 26 37 61 69 67 65 61 58 62 65 63 63 64 74 66 60 46 60 76 90 95 96 93 90 97 95 66 78
1 1 0 17 100 72 100 86 34 12 14 20 29 36 39 45 61 50 29 28 36 42 44 64 65 57 64 78 84 73 69 71 77 83 73 57 70 76 75 78 98 92 90 95 80 85 68
1 1 1 2 70 99 86 97 79 15 15 19 35 38 49 54 70 61 40 30 31 43 57 64 63 60 75 96 96 82 74 78 71 77 76 80 80 63 55 53 68 84 88 77 90 93 87
1 1 4 3 16 90 99 90 98 59 20 43 52 60 56 62 75 73 59 40 37 52 76 65 38 46 59 99 99 88 93 79 73 70 68 61 62 49 66 70 81 83 86 79 76 77 80
1 4 19 34 1 50 84 99 99 86 83 95 100 96 58 64 75 78 67 54 43 62 85 80 59 60 66 99 99 94 98 98 97 85 80 76 60 54 96 81 68 88 60 84 87 91 98
3 32 41 57 83 5 96 98 98 96 82 92 100 100 66 73 76 82 75 57 45 61 97 78 78 71 69 81 98 88 99 99 99 95 95 78 76 58 68 47 80 58 57 80 87 91 100
8 49 57 76 85 71 31 95 95 98 90 96 99 100 89 67 91 88 70 38 78 86 92 80 76 70 72 84 99 100 98 98 98 98 98 86 84 88 72 52 79 84 84 78 88 89 97
5 52 83 83 90 82 55 36 63 98 93 99 89 100 100 98 95 90 59 42 91 97 64 83 77 83 82 94 97 98 98 98 98 98 95 93 80 79 84 82 75 86 89 89 97 97 87
9 49 81 86 87 97 93 82 84 98 99 98 85 99 100 100 99 96 52 60 99 72 63 71 81 87 96 98 97 98 99 97 98 97 95 92 91 71 65 81 73 78 84 83 90 90 67
11 54 84 86 100 97 88 90 77 95 97 98 98 99 93 99 99 100 72 94 76 78 79 82 90 99 99 98 99 99 97 96 83 81 97 95 95 67 60 52 73 68 94 65 95 81 80
21 52 87 86 98 90 97 95 67 98 95 98 95 97 98 99 99 100 97 62 53 72 86 96 99 97 90 100 99 96 94 81 79 68 82 87 98 86 88 83 64 62 67 93 99 98 98
23 58 73 96 96 95 98 98 86 98 99 98 78 89 99 99 99 99 98 85 76 64 91 98 98 98 94 93 86 91 72 69 64 65 94 88 98 86 99 87 80 93 99 94 96 92 98
34 26 47 96 96 97 96 93 98 96 96 99 98 84 98 98 98 98 92 82 74 71 98 99 98 95 87 96 89 91 72 59 81 87 94 96 98 96 77 82 65 89 99 88 80 86 94
13 25 34 91 96 98 93 97 100 73 99 99 98 99 94 99 98 98 90 84 89 87 98 98 98 94 90 96 91 78 63 64 79 83 85 88 97 97 99 99 99 100 97 95 82 78 97
33 14 38 64 96 97 97 99 99 96 97 98 99 99 99 98 99 96 94 97 91 88 98 99 98 96 94 85 76 68 72 68 84 75 78 87 98 98 98 99 95 99 93 90 98 100 52
63 11 36 61 96 97 95 98 98 96 99 99 95 99 82 97 93 89 98 97 98 99 100 99 98 94 89 81 73 71 74 71 87 71 67 80 94 98 98 100 99 69 67 95 100 89 44
48 11 22 65 100 95 84 100 98 95 98 93 82 98 89 97 94 97 99 99 99 98 99 99 99 88 93 81 76 68 71 80 87 79 72 80 94 98 100 88 99 94 85 100 83 54 51
48 35 3 60 87 94 93 94 99 91 99 99 84 86 95 93 100 96 95 89 73 95 98 94 100 100 94 82 92 92 76 82 78 79 73 79 98 99 96 100 96 92 84 71 62 58 50
48 37 3 24 84 85 82 97 99 98 98 90 76 96 97 99 94 97 97 94 97 95 99 89 99 100 77 99 100 97 99 83 96 96 85 63 80 97 72 67 73 57 62 56 52 55 52
70 29 7 21 64 90 82 97 99 98 99 100 85 85 93 99 98 99 98 84 76 77 96 98 98 98 98 100 100 99 97 86 90 98 90 80 86 82 85 76 66 61 55 63 67 53 56
67 41 10 11 47 68 60 96 96 98 98 99 90 97 99 100 98 100 99 82 80 85 99 98 98 100 99 100 98 99 98 96 88 86 89 87 98 90 83 76 72 45 40 54 55 62 61
61 68 19 10 30 47 31 96 98 93 93 96 99 94 100 99 98 99 97 89 81 97 98 99 98 100 99 98 99 98 98 86 92 87 92 93 98 96 83 87 64 56 51 42 59 53 54
57 78 25 15 26 93 38 94 97 99 100 100 97 100 100 99 99 100 93 99 90 98 98 99 99 99 100 100 99 100 98 87 96 90 97 97 98 99 98 93 82 55 52 45 46 40 42
71 27 10 16 26 64 34 74 97 98 100 100 96 100 100 99 98 99 97 92 73 98 99 98 99 99 99 96 97 98 92 95 95 98 93 97 92 82 76 77 70 62 60 56 48 47 46

GFSGBSN_700_rhum_006.txt.gz
RH
9 45 99 84 43 23 13 11 13 23 28 24 24 22 23 36 36 27 35 54 59 67 66 63 63 64 61 54 52 54 49 50 50 51 48 41 47 65 51 47 38 57 46 42 39 39 46
1 9 52 52 99 52 28 14 11 13 23 27 22 25 24 28 41 27 27 44 60 72 61 56 58 61 60 55 56 57 51 47 47 49 48 44 39 44 68 65 61 54 71 59 51 44 43
2 1 1 9 66 100 72 34 13 12 14 23 22 24 27 25 40 38 21 34 58 70 62 54 56 55 53 56 55 53 53 52 51 48 47 47 38 47 78 73 70 70 68 74 55 54 70
1 1 1 1 16 79 100 68 48 13 11 14 20 20 29 30 35 45 25 24 44 61 61 70 60 55 44 55 56 52 54 51 52 55 55 62 58 74 94 94 91 85 78 91 67 76 67
2 2 1 1 1 13 59 97 86 61 18 11 15 18 27 35 37 49 41 18 28 44 53 60 66 64 53 44 51 59 55 54 52 55 57 100 97 89 97 98 97 98 97 91 84 77 85
2 2 2 1 1 1 42 78 95 86 76 57 24 18 26 37 41 52 51 30 22 26 37 51 61 59 46 42 56 58 57 56 60 59 56 86 100 97 99 95 96 93 84 76 84 82 74
3 3 2 2 1 1 5 29 73 99 91 71 82 37 52 42 48 54 61 46 35 36 30 39 46 45 47 46 49 66 68 64 64 74 71 60 73 83 60 63 96 84 88 88 91 89 86
5 3 2 1 1 3 2 67 99 96 98 93 80 97 94 59 55 58 62 57 38 35 32 30 33 37 55 62 61 64 74 72 67 75 86 92 93 71 55 47 83 95 98 87 81 82 98
4 2 2 1 1 3 6 32 99 99 98 98 82 84 99 99 82 58 65 66 52 43 43 36 36 35 42 77 92 85 87 87 80 81 100 96 79 59 58 57 67 64 80 90 88 71 83
3 3 4 1 8 43 22 7 47 98 99 99 86 80 97 100 85 69 67 71 62 48 53 44 38 45 49 59 97 83 99 99 98 85 77 100 84 67 70 78 72 81 63 64 67 90 95
5 28 31 12 48 79 83 94 12 98 98 99 93 84 100 100 89 71 74 74 67 58 70 54 61 59 63 71 90 77 96 100 96 90 88 88 75 67 67 61 67 76 67 73 80 91 88
16 35 14 51 81 85 88 87 63 42 98 98 98 100 90 99 91 85 87 86 74 72 87 53 59 60 68 69 95 96 96 96 97 98 99 96 97 89 74 61 63 86 95 87 89 90 94
49 47 20 34 92 95 91 80 77 56 80 98 98 97 82 99 80 90 92 85 74 94 52 67 57 70 79 75 82 100 98 95 98 99 98 98 93 93 81 81 83 78 88 92 98 94 83
66 56 40 76 96 95 95 96 99 84 50 97 98 98 87 90 96 97 90 92 97 52 53 67 71 85 84 82 97 94 98 97 93 99 97 99 97 95 77 70 86 80 77 84 91 97 80
73 62 66 46 87 96 98 92 98 94 41 77 99 96 99 97 97 96 95 100 56 44 59 69 89 100 100 100 96 98 95 98 100 99 99 96 90 64 55 66 71 78 92 54 93 75 81
74 61 56 46 80 95 98 88 99 95 98 78 97 98 93 98 100 99 98 90 62 65 72 84 87 94 96 89 95 99 98 72 87 74 82 88 88 69 75 82 84 70 58 87 89 100 92
68 56 55 33 80 91 96 96 98 97 94 95 98 98 99 91 100 99 98 80 78 69 74 87 87 99 88 86 86 92 80 68 66 76 80 84 95 90 82 75 96 97 85 76 67 80 99
78 62 46 33 54 71 97 97 95 97 97 97 98 98 99 100 98 98 95 93 99 88 86 99 98 99 88 87 88 91 84 72 62 64 78 81 97 97 83 65 76 80 81 75 77 69 80
84 72 35 18 40 53 97 97 95 98 81 98 98 98 99 100 98 98 84 96 99 99 100 99 98 98 100 91 96 82 80 64 62 85 93 92 98 97 88 93 94 98 85 61 64 75 85
82 77 46 6 27 50 97 96 97 97 98 98 98 99 99 98 97 87 84 100 99 100 100 98 98 99 94 99 93 86 70 62 70 84 97 97 96 90 93 98 98 100 96 98 91 97 80
85 77 55 8 19 58 86 94 95 97 98 98 97 96 98 96 99 96 99 100 99 100 100 96 98 98 98 99 93 85 78 70 83 92 98 98 96 95 94 95 98 98 98 87 99 94 83
84 82 69 17 16 71 78 88 93 98 96 97 97 99 92 90 99 96 100 99 98 99 100 98 98 99 99 92 76 81 78 75 81 91 98 97 95 97 96 100 94 99 99 97 100 100 96
78 84 72 14 8 46 76 84 97 100 98 98 99 95 88 89 96 100 94 91 96 99 96 96 96 99 98 93 94 91 91 85 93 97 98 98 98 98 99 100 100 99 95 86 91 97 98
72 86 69 34 10 27 80 68 96 97 97 97 98 99 97 98 100 98 99 100 97 97 100 95 86 96 99 98 97 98 97 80 87 94 91 96 93 98 99 99 87 66 85 93 86 98 92
66 80 83 75 10 19 59 67 97 97 93 98 88 100 98 93 92 96 99 100 99 86 74 85 91 93 100 100 97 99 98 98 83 93 85 92 85 88 94 83 70 64 70 91 98 87 75
68 65 70 76 12 16 38 86 97 98 99 98 98 96 94 96 86 99 99 100 97 94 91 98 100 98 99 98 99 97 95 83 86 88 85 94 91 97 94 86 72 46 51 60 65 64 63
69 78 70 23 12 17 57 68 90 96 98 98 99 100 98 95 96 99 94 96 84 76 84 93 98 99 100 98 99 98 98 83 84 84 95 95 98 99 96 97 64 51 44 56 61 51 48
71 76 73 20 11 18 35 30 97 99 99 98 99 99 92 98 100 98 97 86 93 90 95 97 99 99 100 99 97 99 99 87 86 78 81 92 87 86 93 92 79 59 53 51 50 41 51
51 56 77 31 9 17 25 36 97 99 98 98 100 97 90 94 96 92 88 100 93 82 92 98 98 98 100 99 93 96 99 94 99 87 87 86 74 84 79 63 62 67 64 54 46 45 45

GFSGBSN_700_rhum_012.txt.gz
RH
1 1 1 1 1 2 5 49 100 100 89 93 50 21 74 29 31 31 34 43 36 38 64 74 75 73 64 57 54 60 63 60 58 73 73 62 59 65 60 55 52 60 48 44 42 44 41
2 2 1 1 2 2 2 2 32 76 100 96 100 81 77 60 30 31 34 39 41 33 50 69 77 78 74 62 64 61 59 60 61 62 65 72 65 76 59 60 65 58 48 46 44 43 40
1 1 1 1 1 1 2 2 2 14 95 100 99 95 62 80 63 30 34 36 47 35 36 60 76 74 62 64 67 62 58 57 58 61 60 60 59 58 53 46 47 44 40 43 45 38 36
1 1 1 2 2 1 2 2 2 2 70 100 99 98 83 87 95 33 32 39 47 44 31 48 71 77 65 65 62 62 59 56 58 59 60 59 58 59 61 55 65 84 95 79 54 44 44
1 2 2 2 2 2 2 2 2 2 5 89 94 99 95 82 92 89 37 44 47 51 35 37 53 71 66 64 62 58 52 54 62 59 61 61 57 57 65 70 71 84 87 98 97 86 74
2 2 2 2 2 2 2 2 3 3 2 7 64 99 99 87 87 89 58 55 52 55 41 33 31 55 59 65 66 67 61 54 55 63 65 64 68 78 98 78 83 80 94 89 95 96 79
3 3 3 3 3 3 3 3 2 2 2 2 22 98 86 98 86 100 80 83 62 51 49 37 42 48 38 54 61 62 56 56 57 60 60 62 71 98 80 80 92 86 90 95 88 84 93
4 5 14 46 17 8 7 4 3 9 4 2 3 21 89 98 93 99 98 72 63 56 48 44 39 33 33 44 54 59 57 54 53 54 62 71 61 61 70 100 99 96 97 97 94 88 71
4 7 71 84 82 64 35 18 19 70 92 80 7 53 99 98 99 99 94 95 75 65 62 50 45 40 38 41 46 46 48 59 67 70 73 69 64 65 70 84 100 100 100 99 74 55 48
5 10 47 55 75 72 65 51 67 95 85 89 51 9 98 98 98 98 92 98 78 80 66 53 42 43 39 42 44 41 51 69 85 79 81 81 74 81 88 83 86 82 75 68 73 81 95
11 36 64 78 76 65 52 57 95 100 93 95 86 38 93 99 98 98 81 96 100 82 95 52 57 51 51 52 62 47 63 80 92 88 84 77 80 79 84 81 85 98 82 77 89 88 90
72 81 78 81 86 61 61 82 97 88 86 79 73 60 100 98 98 99 96 100 98 82 92 64 64 86 68 64 73 79 73 91 100 98 99 96 95 99 96 81 84 96 94 89 91 100 94
69 81 75 84 91 71 61 89 97 93 97 81 78 65 95 98 98 98 96 99 92 86 61 68 78 83 100 95 100 99 85 100 97 99 99 100 94 99 97 93 94 97 97 96 99 97 84
76 82 87 85 88 78 75 58 94 96 98 96 79 68 93 98 94 99 99 97 88 68 62 65 64 74 100 100 98 100 98 99 97 100 97 93 90 80 73 82 86 87 87 90 91 96 86
82 85 89 84 90 83 91 56 92 98 95 96 82 80 84 96 98 98 100 100 70 63 62 54 70 74 94 84 92 100 99 100 100 98 97 94 93 83 78 67 85 98 97 68 84 70 93
45 86 88 82 91 82 77 57 93 94 99 97 85 93 74 96 98 98 97 86 73 70 56 59 51 59 72 89 91 99 95 73 92 91 100 96 98 81 77 84 94 98 94 98 98 96 93
82 90 91 83 90 76 60 42 84 66 98 90 96 90 90 97 98 98 98 95 80 72 58 64 67 69 93 98 100 100 84 55 58 61 79 86 97 90 90 85 71 98 99 98 95 96 94
85 91 87 84 94 74 40 27 58 54 98 99 97 99 94 96 97 97 99 91 78 71 64 81 84 76 86 100 98 100 86 64 66 63 83 88 97 98 85 69 71 69 69 72 94 83 86
93 93 77 91 94 75 12 32 83 49 96 97 100 77 92 98 99 98 96 84 81 79 77 76 73 81 83 98 98 91 86 70 78 83 72 87 98 96 93 87 85 97 89 88 82 83 76
93 92 86 94 98 83 11 26 65 40 92 97 98 98 97 97 98 98 97 93 86 82 80 87 96 88 99 99 96 90 82 82 75 70 89 96 94 88 90 89 96 96 97 97 97 96 83
94 85 80 92 96 74 12 38 36 48 93 98 100 97 98 98 98 99 96 98 99 96 91 97 96 99 99 99 98 97 92 79 95 96 96 98 97 96 92 96 98 96 97 97 97 88 92
93 84 86 95 91 57 16 63 51 93 98 98 96 99 99 88 100 96 79 90 96 96 96 98 95 94 97 98 96 96 89 97 100 98 97 96 94 98 98 98 98 98 97 93 92 89 78
93 91 86 81 90 24 12 40 96 98 99 100 88 98 95 80 86 82 79 87 85 88 99 98 99 100 99 98 98 98 99 98 98 100 99 99 98 98 89 98 99 98 96 100 93 90 94
89 96 69 79 76 18 12 33 95 96 96 98 98 99 100 93 94 95 76 82 82 86 98 100 94 95 98 98 99 98 99 94 87 84 94 99 99 98 94 97 98 98 99 87 56 58 74
86 86 88 44 66 13 11 35 100 97 97 97 98 100 95 88 90 82 88 84 96 98 100 99 87 89 100 99 99 99 98 82 71 78 79 88 100 97 98 99 87 89 98 68 67 59 64
87 79 84 56 73 24 9 60 100 99 98 97 98 99 100 90 82 82 100 87 88 99 97 89 96 91 88 90 99 99 91 88 87 86 80 98 100 99 97 99 89 82 99 99 89 84 86
58 54 59 43 35 34 9 54 93 84 83 95 96 100 99 98 85 78 85 84 87 97 92 93 82 80 91 99 99 99 92 82 83 85 98 99 99 98 94 94 80 69 70 88 84 66 62
64 48 56 43 43 53 8 39 100 94 84 99 98 98 98 95 94 85 88 96 96 98 94 90 92 95 100 99 99 98 83 83 85 79 78 80 86 92 98 99 74 70 71 70 56 47 68
44 42 47 56 44 53 19 24 96 100 100 100 96 96 93 98 91 86 92 94 95 97 97 99 97 98 99 99 98 98 93 95 84 77 74 78 69 77 78 68 74 76 70 66 53 51 62

GFSGBSN_700_rhum_015.txt.gz
RH
1 1 1 1 1 1 1 2 2 3 80 99 100 98 90 64 86 48 36 33 32 42 40 48 64 73 64 59 56 68 73 70 71 84 91 88 76 64 64 56 55 62 46 42 35 31 27
2 1 1 1 1 1 1 1 2 2 2 83 74 100 98 95 74 84 41 34 34 44 39 46 65 74 76 66 73 66 63 72 74 66 81 77 65 68 66 65 68 60 49 44 46 44 43
2 2 1 1 1 1 1 1 1 2 2 2 26 87 100 89 89 81 78 40 38 44 45 37 50 66 73 77 69 63 62 59 59 62 64 75 90 86 67 63 63 58 52 48 41 39 47
2 2 1 2 2 2 2 2 2 1 2 2 2 58 100 99 97 88 86 69 46 46 48 40 38 52 62 73 67 68 66 62 61 63 64 65 71 72 67 62 62 61 65 57 51 48 44
2 2 2 2 2 3 3 2 2 2 2 2 3 24 92 99 100 90 91 89 62 54 52 58 39 37 49 64 73 66 66 65 65 64 66 67 64 66 66 73 71 67 75 73 66 70 70
2 2 2 3 4 5 5 6 4 3 4 3 3 3 60 98 99 94 96 93 81 70 55 55 44 38 42 63 65 69 68 62 60 64 70 66 69 72 82 69 75 67 86 90 83 80 71
2 2 4 8 19 33 32 16 12 6 7 23 8 3 4 84 99 100 99 97 96 75 57 41 43 45 40 50 55 66 73 70 68 67 71 74 75 74 60 64 72 87 88 89 91 87 85
3 3 4 8 16 41 96 62 39 36 22 55 93 68 2 13 98 98 99 91 89 62 59 51 49 43 41 43 47 62 69 64 62 59 65 71 67 59 70 76 88 99 99 98 88 89 84
3 4 4 7 27 57 74 65 47 64 87 91 93 84 24 5 88 98 98 99 94 78 73 56 51 45 41 39 44 51 62 66 63 58 56 60 67 66 66 79 91 92 100 99 98 97 70
4 4 9 9 33 82 74 70 56 80 95 95 93 96 77 11 52 96 98 99 98 80 75 56 45 45 45 44 46 50 52 60 58 60 71 75 67 69 79 90 85 88 82 86 87 97 93
4 5 10 25 73 74 73 70 62 84 95 78 72 66 76 35 49 98 98 98 100 87 71 50 57 54 50 52 53 46 50 60 69 71 72 61 72 77 80 77 94 98 99 90 84 89 95
4 6 13 51 80 76 77 79 61 81 89 95 95 80 66 50 90 98 98 98 99 81 93 61 59 66 65 68 83 69 64 89 95 91 87 85 93 97 86 81 86 90 91 96 96 95 96
5 8 12 65 78 79 84 80 66 74 94 97 97 80 73 66 66 97 98 98 97 77 55 65 70 100 99 99 100 95 98 100 99 100 98 99 97 96 100 97 93 92 97 95 96 97 82
6 7 51 83 82 80 91 78 57 58 96 96 96 78 66 74 78 98 98 97 94 67 62 66 64 99 99 99 100 99 100 97 98 99 100 91 85 71 92 68 76 83 85 90 86 82 73
10 31 83 85 79 79 88 68 46 76 96 97 97 89 79 57 97 98 98 97 71 61 51 54 97 100 99 98 97 99 97 99 97 98 94 90 99 86 79 80 94 99 100 76 95 91 95
19 92 90 87 72 84 83 62 33 65 92 96 95 99 95 59 95 98 98 94 69 59 51 52 67 90 99 97 88 97 96 81 84 85 99 95 98 83 87 83 80 99 100 99 98 94 86
36 98 88 84 77 85 78 56 25 84 85 95 98 93 98 79 95 98 96 97 73 63 56 60 57 68 72 72 87 97 85 65 62 59 91 99 98 94 86 73 70 95 99 97 98 96 89
27 87 88 84 83 88 74 36 59 79 84 96 97 98 100 87 95 98 96 96 81 66 68 60 57 60 70 86 97 98 97 70 65 65 70 80 100 97 80 69 75 86 96 88 97 84 92
27 81 83 84 87 85 82 21 25 59 84 95 96 100 97 97 97 96 96 93 76 73 66 62 64 72 77 92 88 91 90 81 82 77 80 80 97 97 85 87 94 97 80 93 93 91 93
22 78 76 90 86 87 40 12 31 31 48 94 96 97 94 97 90 86 99 88 80 80 74 69 72 73 88 96 91 95 84 82 86 78 87 91 94 80 72 71 91 97 94 96 97 97 82
25 80 85 84 86 89 16 14 34 44 83 86 98 98 92 99 95 88 87 82 85 84 81 75 86 94 94 95 99 96 84 94 88 84 91 97 92 86 79 84 98 97 98 97 97 85 96
11 56 86 84 74 58 12 23 78 96 98 97 98 98 94 88 89 89 84 75 85 76 68 75 92 87 97 96 98 98 95 84 81 94 100 99 98 98 94 96 98 98 98 98 99 98 97
6 33 79 93 44 81 10 20 95 99 99 98 98 98 96 96 96 89 98 81 69 79 92 92 97 96 98 99 99 100 100 95 98 95 100 100 100 98 93 97 98 98 96 98 94 100 97
4 10 58 77 64 48 11 36 91 90 99 100 100 88 98 100 98 88 82 82 83 90 92 95 96 98 99 100 100 97 82 94 95 94 100 100 100 99 97 97 98 98 100 96 100 95 93
4 4 23 54 29 32 11 18 95 100 96 97 99 98 96 84 86 86 79 74 92 95 96 94 97 100 97 95 90 95 95 95 76 84 87 98 100 98 98 98 90 96 100 98 84 78 61
4 3 8 39 18 33 22 14 89 99 93 98 98 98 98 94 80 73 84 84 86 88 95 98 98 97 100 99 93 99 95 84 83 87 82 90 96 100 98 98 96 96 96 89 91 73 93
4 3 5 14 38 21 16 10 82 100 99 96 98 98 100 79 79 80 74 72 88 91 93 98 98 98 96 84 81 95 96 92 81 77 82 98 99 98 97 96 80 81 77 83 71 67 70
4 4 4 14 26 30 23 8 73 97 89 94 98 98 98 92 94 83 77 80 88 87 88 98 97 90 90 94 98 98 99 90 84 78 77 75 89 87 92 93 82 73 74 74 61 57 68
4 4 3 8 26 20 28 16 46 93 100 100 99 87 99 98 93 86 83 85 87 92 93 100 97 93 97 98 99 99 100 98 88 84 72 79 71 76 78 66 68 77 74 62 55 53 71

GFSGBSN_700_rhum_018.txt.gz
RH
3 3 2 2 2 2 1 1 1 1 1 1 2 59 98 90 95 80 89 75 39 34 42 41 52 70 66 61 61 66 74 64 59 83 79 80 68 68 71 63 60 56 42 32 30 25 26
4 4 3 2 2 2 1 1 1 1 1 1 2 33 89 86 100 97 88 93 63 37 43 43 50 75 76 65 62 74 79 79 77 78 90 94 97 93 95 76 73 60 50 46 43 41 42
6 4 3 2 2 2 1 1 1 1 1 1 2 2 21 65 76 99 94 96 87 44 47 46 43 69 75 73 68 68 63 75 83 81 87 90 92 87 73 79 79 66 54 52 41 40 48
7 6 4 3 2 2 2 2 2 2 2 2 2 2 2 17 64 98 99 100 99 75 52 49 43 46 59 76 72 68 67 65 70 77 83 80 76 83 91 76 62 57 58 66 59 43 47
8 6 4 3 3 5 8 15 19 12 7 3 2 4 2 3 20 94 99 99 99 92 60 54 46 41 47 57 70 68 68 70 74 71 71 74 72 79 73 68 87 82 74 85 82 56 77
10 7 5 3 4 44 68 78 78 82 38 11 4 8 4 4 8 95 99 99 99 99 65 67 47 48 43 45 62 76 70 70 72 73 74 70 70 81 61 90 75 73 95 83 80 84 57
10 7 5 4 4 5 8 77 96 93 61 42 34 56 31 12 8 89 98 99 98 98 90 50 39 47 41 41 70 74 76 72 72 77 76 74 81 64 65 72 92 79 90 86 85 88 82
11 6 4 4 4 7 45 93 87 69 61 60 89 90 95 57 5 92 98 98 95 87 70 47 50 46 46 57 67 69 75 79 78 78 88 82 73 62 73 76 76 98 94 85 84 88 82
10 6 4 4 8 53 92 92 80 80 69 76 94 96 90 88 24 84 98 98 99 99 90 55 51 54 53 48 56 58 64 70 76 78 71 75 72 54 63 76 97 99 95 87 85 88 92
9 5 5 7 35 90 94 89 82 81 72 83 88 78 88 86 42 23 58 98 99 99 97 76 51 49 53 48 49 51 74 80 76 72 69 81 89 67 76 82 82 93 93 95 96 94 84
7 5 7 39 94 96 94 82 85 72 64 68 92 94 65 73 90 64 42 98 98 98 84 64 58 54 49 54 53 53 65 75 75 66 58 69 64 67 82 60 79 96 92 94 98 96 96
6 5 30 92 93 92 86 78 79 65 48 87 96 97 91 81 88 70 65 97 98 97 77 70 82 67 52 58 58 56 72 76 84 76 70 91 79 84 83 84 89 94 98 99 100 100 92
5 12 96 91 94 87 76 82 70 50 55 86 96 97 77 85 87 90 88 98 97 96 71 79 90 100 85 99 95 68 74 98 88 96 99 96 98 77 89 99 99 99 98 76 88 94 64
5 46 99 92 90 72 83 73 60 40 63 86 99 86 73 90 85 79 98 98 95 88 92 90 91 100 100 94 99 98 94 99 98 96 96 96 87 93 76 73 95 100 99 70 66 50 42
5 39 97 92 79 76 75 70 56 34 52 88 93 93 86 94 79 92 97 98 94 70 50 71 99 100 99 99 97 98 98 99 98 100 92 97 96 69 63 75 91 99 99 80 90 78 76
5 43 95 87 74 75 74 70 47 30 52 87 93 85 93 96 92 96 98 96 77 64 48 60 98 100 100 99 99 98 99 88 100 96 97 97 99 74 70 81 81 91 97 95 98 78 68
5 51 92 85 92 84 77 69 33 30 56 91 96 93 97 81 93 72 96 96 70 67 55 68 66 91 100 100 98 100 99 73 72 58 97 99 96 95 79 72 79 97 100 99 93 91 67
4 44 99 91 83 87 77 18 19 25 42 75 96 97 97 100 95 98 97 87 72 75 68 65 65 57 76 71 83 86 81 73 62 61 85 82 96 96 93 83 82 85 90 98 97 85 94
4 22 87 90 84 97 32 12 20 34 94 69 95 98 98 76 88 96 96 89 67 66 68 63 69 66 65 68 80 89 88 87 78 70 74 82 96 98 76 85 80 100 71 89 98 97 95
4 12 70 97 67 38 23 12 23 78 86 95 96 98 99 97 70 86 92 96 81 79 67 65 62 66 71 80 81 92 85 79 73 82 91 89 100 80 69 62 76 98 96 98 98 98 80
4 5 37 64 55 39 13 20 58 92 95 97 97 96 86 94 94 88 91 93 89 72 70 67 66 64 78 86 98 90 86 91 90 80 77 96 99 92 74 82 94 92 96 98 98 88 97
4 4 17 51 32 24 12 68 71 89 91 94 98 100 100 100 99 95 86 84 91 75 70 66 67 76 83 85 87 88 91 91 93 94 100 100 98 93 97 93 96 98 98 99 100 99 97
5 4 4 40 26 10 13 58 78 75 80 92 100 97 95 92 91 85 70 79 75 78 81 79 78 86 98 88 94 97 94 100 100 99 99 99 98 98 95 97 94 98 100 99 100 98 98
5 4 3 5 13 8 10 66 76 71 78 88 86 92 98 84 84 78 70 71 74 72 91 96 94 88 95 94 98 94 92 96 99 99 97 96 97 99 97 96 93 98 100 100 100 96 98
6 4 3 3 4 6 8 39 82 72 79 86 91 94 95 88 74 74 69 84 83 86 94 78 88 98 97 98 94 88 98 96 87 87 96 100 100 98 98 98 82 98 98 99 99 94 88
7 4 4 2 3 4 5 30 69 72 76 94 98 98 92 82 70 69 80 76 82 82 88 86 98 97 97 88 97 96 93 86 89 86 91 94 100 100 99 97 91 80 82 90 91 85 88
8 4 4 3 2 2 3 15 56 80 81 99 98 100 92 88 98 73 71 74 87 87 92 95 97 96 97 98 98 98 94 83 86 87 78 94 99 100 100 98 80 78 75 74 77 86 86
9 4 4 4 2 2 2 3 31 71 83 99 100 97 95 72 78 76 75 81 79 87 95 90 96 95 99 99 98 99 99 85 86 84 79 82 92 97 93 93 83 71 69 72 62 62 74
10 5 5 5 3 1 2 2 9 66 80 100 100 99 98 98 91 84 82 86 97 98 100 99 93 96 100 100 100 97 98 97 94 89 77 87 75 82 73 63 63 61 70 67 56 56 73

GFSGBSN_700_rhum_021.txt.gz
RH
6 7 6 6 5 4 4 3 3 3 2 2 1 1 1 5 58 91 89 90 95 90 49 38 41 49 67 70 87 75 72 65 55 78 78 52 43 88 85 79 83 85 63 60 71 73 59
8 8 8 7 7 6 5 4 3 3 2 2 2 1 1 2 51 93 100 93 99 98 73 41 43 47 71 72 87 93 85 77 66 79 84 95 99 99 97 96 88 87 87 79 80 51 52
10 10 9 9 8 7 7 6 4 3 3 3 3 2 2 2 48 52 98 100 98 98 92 48 46 50 71 78 76 71 90 87 74 67 89 96 96 95 95 97 94 71 62 58 43 42 67
13 12 12 11 9 8 13 10 15 44 65 46 16 4 2 2 2 4 59 99 99 98 99 58 48 47 66 72 80 75 76 81 81 84 92 98 99 100 100 98 70 63 83 77 63 65 72
15 15 13 12 9 5 7 50 81 99 92 83 69 27 7 3 3 2 25 62 99 99 99 90 50 47 54 54 77 80 74 76 75 78 88 96 98 94 99 98 88 84 64 62 61 71 78
16 16 14 10 6 4 27 94 100 93 80 84 77 49 58 47 7 4 8 82 98 99 99 99 67 52 47 47 56 79 79 76 75 70 70 77 100 99 98 95 68 61 72 68 60 62 78
17 17 12 8 4 8 85 98 96 98 88 82 77 60 83 88 97 33 30 96 99 98 99 88 51 48 58 41 54 78 81 80 85 81 72 75 95 95 81 80 75 75 72 64 61 65 68
18 15 10 5 8 50 100 96 90 91 85 88 74 76 94 96 98 86 64 100 98 98 99 96 56 49 53 49 68 75 88 84 92 86 100 90 87 75 89 87 88 86 80 70 64 65 69
18 12 7 7 46 96 92 90 93 86 84 82 86 94 86 79 93 96 82 99 98 98 99 98 77 50 58 58 74 83 84 94 93 100 100 98 88 68 91 96 91 89 85 76 70 69 72
16 10 7 26 95 90 90 90 81 83 89 86 70 86 85 78 79 71 54 96 97 98 98 96 77 58 54 59 68 70 85 91 100 100 99 98 95 79 73 94 91 83 77 77 79 80 66
13 8 18 86 92 88 86 75 79 84 77 66 74 94 96 97 92 98 76 97 93 98 96 90 91 85 59 60 81 68 82 82 100 100 97 96 76 100 100 89 94 90 98 91 88 86 91
11 6 25 94 89 78 78 83 77 62 53 80 81 96 99 91 73 94 94 94 97 98 96 100 100 70 56 82 71 75 77 82 99 99 100 94 95 90 94 84 80 100 98 98 94 92 87
9 6 25 90 85 79 82 84 64 56 42 66 78 95 94 96 66 86 99 97 96 97 97 96 100 89 62 95 100 72 99 95 87 100 100 99 99 98 77 84 97 99 97 72 82 92 62
9 6 36 94 90 93 89 81 60 45 42 67 92 86 83 66 77 88 96 97 97 97 97 100 100 100 100 100 99 100 100 100 100 96 95 95 90 97 79 94 94 97 95 62 55 39 33
9 6 42 93 93 88 84 78 52 33 50 83 85 91 93 82 67 91 87 87 95 87 86 100 100 99 100 99 96 100 100 99 98 100 96 92 89 82 91 89 91 99 99 78 81 66 63
8 6 33 94 95 92 91 42 27 25 28 57 94 93 95 95 84 88 87 97 98 86 63 98 96 98 98 99 98 100 99 98 99 97 96 94 93 83 99 94 98 96 92 93 97 80 56
8 6 24 76 93 85 66 16 18 21 29 50 94 95 95 85 78 99 86 98 99 89 86 96 95 95 97 99 97 97 96 93 99 99 99 99 92 97 92 74 78 100 99 97 81 75 69
8 4 16 59 74 38 29 12 26 33 50 88 90 93 91 83 69 82 97 98 98 92 76 79 98 90 92 97 100 99 87 92 83 82 100 100 96 96 89 80 86 80 89 90 95 71 88
8 3 8 17 34 54 14 18 56 82 92 79 93 91 91 98 83 82 98 97 97 93 82 88 77 93 93 94 90 90 92 83 66 60 97 99 98 91 84 86 83 85 85 84 98 98 96
9 3 2 8 29 22 15 43 78 86 96 86 95 98 88 84 78 81 99 98 93 84 74 64 65 65 80 93 92 94 93 81 80 72 94 97 96 81 70 60 74 97 90 96 98 98 84
10 4 2 2 9 13 21 69 75 84 97 80 91 100 94 61 86 87 96 92 96 87 71 67 63 66 91 92 96 96 97 81 81 80 83 98 96 99 96 88 87 92 98 98 98 96 99
10 5 3 1 3 9 23 60 69 79 93 84 86 94 89 77 90 100 95 97 93 76 72 68 71 68 70 95 98 100 100 100 100 92 90 94 99 99 97 80 96 100 98 99 99 99 99
12 6 4 1 2 6 30 63 63 63 69 80 93 100 98 92 99 97 98 78 87 82 79 67 84 95 84 99 89 87 81 86 90 94 96 100 99 100 98 87 83 93 99 98 98 94 100
14 8 6 2 1 4 30 56 60 56 77 85 90 92 99 97 100 98 81 76 80 74 86 90 91 91 92 92 85 89 86 89 94 98 99 100 99 99 96 86 89 86 98 97 100 97 100
17 10 7 5 1 2 9 47 58 55 68 72 80 84 94 99 100 91 72 66 70 71 87 88 88 92 93 88 95 98 100 94 86 100 100 99 100 98 98 92 72 93 94 93 96 91 92
21 12 9 8 3 1 2 22 54 58 60 72 73 78 86 85 93 79 66 69 90 98 84 86 88 85 90 87 88 90 76 90 94 100 96 99 100 100 99 97 86 83 84 79 92 96 91
24 17 11 11 8 2 1 2 32 58 58 73 99 94 83 69 67 67 70 81 74 91 95 87 88 94 94 93 98 95 85 92 82 82 91 100 100 99 99 97 80 69 76 78 82 80 77
25 20 14 12 11 6 2 1 5 41 60 67 78 90 90 76 83 71 71 68 72 89 94 94 95 94 100 99 90 94 98 97 90 82 89 88 95 96 98 96 85 65 69 86 73 66 76
26 22 18 12 12 10 3 2 1 7 52 64 80 84 100 98 90 79 70 77 81 88 91 100 94 98 95 98 95 98 96 98 98 91 83 91 80 79 81 74 70 74 67 68 62 62 73

GFSGBSN_700_rhum_024.txt.gz
RH
12 14 14 14 12 11 10 10 9 8 7 7 5 4 2 2 1 1 5 67 86 89 100 90 52 40 44 60 68 76 81 71 85 73 56 24 22 34 52 61 75 75 69 63 56 46 67
12 15 16 16 15 12 11 10 10 9 11 14 8 7 5 2 2 1 2 26 89 90 99 94 75 40 46 65 94 79 99 76 78 76 81 69 59 75 86 85 80 81 81 72 53 62 41
12 15 17 17 14 13 11 8 12 63 98 90 73 37 13 6 3 2 2 26 100 95 95 98 87 46 46 58 89 70 99 83 80 85 84 91 99 77 93 90 92 85 84 75 51 31 38
12 15 18 17 14 11 8 7 44 98 99 98 81 86 66 31 12 5 2 32 91 100 99 99 98 58 42 56 62 71 82 91 90 96 92 98 98 98 88 92 85 76 78 78 46 48 42
12 16 18 15 12 8 7 30 98 97 98 91 86 86 82 58 47 45 7 4 63 98 99 90 99 67 46 41 64 74 77 83 90 94 93 100 99 99 100 94 93 88 77 66 62 62 65
13 18 17 14 9 8 32 99 96 94 91 84 83 82 78 58 82 86 75 14 37 66 99 99 99 81 47 35 52 77 79 77 81 94 100 100 100 97 94 95 84 75 74 67 61 63 65
15 19 16 11 10 34 94 94 89 87 84 82 80 78 72 69 89 92 97 75 84 87 99 97 96 83 51 32 41 59 84 81 84 81 100 100 100 98 85 84 80 78 72 68 62 59 62
19 18 14 12 64 98 96 92 90 87 77 78 85 90 80 91 83 82 96 82 99 100 98 98 97 100 65 42 41 58 82 86 95 98 100 100 93 79 86 82 78 78 78 77 71 64 64
20 17 11 18 94 96 94 90 84 80 80 84 91 85 84 85 71 82 84 70 97 97 98 98 94 81 54 50 46 51 81 91 97 99 98 99 86 72 78 88 80 79 85 81 75 70 68
19 16 9 33 77 93 89 83 84 86 73 77 69 85 97 97 90 76 76 62 96 98 98 98 98 96 57 72 59 78 86 99 100 99 100 98 97 92 86 95 90 89 79 79 78 79 72
19 13 8 47 94 90 92 87 84 64 51 51 71 93 92 96 96 84 78 72 97 97 99 99 99 99 66 75 61 83 100 100 98 94 98 93 94 99 91 77 87 84 85 81 79 83 88
18 11 7 68 95 92 88 80 78 55 47 47 68 83 89 94 98 81 78 98 97 96 97 98 98 98 81 98 80 78 100 100 98 98 94 98 93 86 87 76 83 90 90 77 85 86 92
17 10 9 59 90 95 81 83 46 38 39 49 58 80 90 89 92 70 80 100 94 97 97 100 99 100 92 100 95 79 99 98 90 95 99 98 97 92 74 83 74 98 91 88 96 96 89
16 8 8 67 100 85 36 66 34 34 36 37 51 84 85 79 69 71 74 84 95 94 98 99 99 100 100 100 95 98 96 98 100 84 87 96 89 85 68 76 88 91 88 76 78 80 66
15 7 6 55 99 67 21 22 23 26 27 28 64 84 92 84 75 75 78 84 96 96 98 99 98 99 99 97 96 98 100 98 97 96 92 88 87 89 93 80 92 96 96 70 89 68 76
15 7 3 39 45 47 20 16 18 30 52 96 91 76 92 90 76 81 84 86 97 94 89 90 95 94 95 96 90 96 96 93 97 91 92 90 85 86 95 97 94 98 78 93 93 95 78
15 6 3 6 34 26 12 13 34 88 98 99 78 95 81 88 94 99 87 96 98 93 98 97 77 95 92 92 91 88 90 90 97 96 87 94 92 90 97 90 72 90 96 92 96 93 92
15 7 3 2 10 15 23 41 89 97 99 81 85 99 84 81 87 76 93 98 98 97 93 96 91 88 90 85 90 89 83 91 86 100 98 95 92 91 86 74 78 90 84 90 88 74 72
16 8 3 1 5 19 54 66 97 100 82 72 65 91 98 62 90 96 99 98 99 98 88 90 92 88 90 95 91 92 88 89 98 93 94 91 93 94 89 86 85 83 81 86 91 88 90
18 9 5 1 3 21 53 68 91 81 87 74 77 95 100 79 68 95 98 95 96 96 93 77 82 89 89 95 89 90 91 88 71 90 96 92 92 76 77 76 82 89 82 84 92 98 89
19 10 7 1 2 18 57 59 72 85 86 63 68 80 76 80 92 97 99 96 96 81 72 81 94 92 89 92 92 93 98 83 84 79 93 97 99 88 73 64 74 88 84 82 99 92 99
21 13 9 2 1 19 55 54 55 69 84 77 55 46 55 68 85 89 89 93 96 74 86 75 87 96 92 88 86 87 96 97 92 92 91 97 87 86 82 80 80 86 80 93 100 99 100
24 17 9 7 1 4 42 50 50 68 74 68 52 37 44 64 84 89 96 84 82 77 75 68 80 84 96 96 90 81 92 98 93 91 85 96 90 94 92 75 82 95 90 98 95 100 99
26 20 13 10 5 1 10 49 48 66 70 69 71 66 71 95 93 98 90 78 76 75 66 72 74 89 91 91 87 82 81 84 89 93 85 96 91 98 94 82 92 84 85 97 96 86 91
27 24 17 12 10 4 1 24 46 53 59 75 75 70 64 74 86 97 84 92 72 68 68 85 86 98 89 88 88 95 95 90 91 96 96 98 99 97 98 98 73 83 90 92 96 87 94
27 27 22 15 13 11 4 1 13 41 51 67 76 80 91 100 95 99 79 83 80 87 79 84 81 87 86 83 85 87 75 96 98 97 98 100 100 100 99 96 90 84 77 80 85 93 79
26 27 26 20 15 13 10 3 1 16 45 62 82 92 87 100 99 100 96 89 87 85 92 96 84 88 91 89 91 90 84 84 80 94 95 100 100 100 100 96 78 67 73 79 83 73 73
26 27 28 24 19 15 12 8 3 1 15 50 75 93 98 86 100 76 92 97 75 73 98 94 89 92 98 92 90 84 87 92 87 83 95 88 94 91 97 87 88 74 76 82 73 74 72
26 26 27 27 21 17 13 12 6 2 1 10 55 74 98 95 87 90 79 58 60 75 100 93 93 97 94 97 94 93 96 98 94 92 88 85 85 92 78 77 75 78 76 69 68 68 68

GFSGBSN_700_rhum_027.txt.gz
RH
8 9 12 15 18 17 14 13 12 12 15 34 52 48 27 21 5 3 2 2 27 92 88 100 93 87 40 35 34 58 74 64 74 52 44 28 25 35 54 36 44 62 49 60 51 42 55
8 8 12 16 18 16 15 12 10 26 44 100 100 100 92 54 21 8 4 2 2 90 88 97 98 96 54 34 45 50 68 75 82 90 80 60 26 33 47 54 75 68 70 69 63 62 49
7 9 13 18 18 15 13 10 16 57 99 96 95 96 96 83 66 35 13 4 2 9 77 99 100 98 72 39 48 56 81 85 76 81 83 89 61 69 78 73 85 82 80 76 50 32 37
7 11 16 19 16 14 11 14 49 99 94 94 95 95 89 76 67 62 54 28 4 7 98 99 96 99 84 47 48 46 98 91 79 84 93 100 82 79 89 93 80 82 82 74 32 41 36
8 13 19 18 15 20 37 96 93 92 94 92 94 89 76 74 68 57 65 52 13 18 98 99 98 100 89 49 38 55 79 88 90 91 96 99 96 98 82 88 81 76 78 63 60 54 61
11 17 19 17 14 29 86 93 86 88 88 82 79 77 79 71 68 71 84 88 38 20 98 98 97 99 84 56 37 55 82 86 93 98 99 98 100 90 100 95 87 70 76 73 72 65 70
13 20 19 14 9 20 61 86 80 79 81 82 82 83 81 79 86 78 66 73 59 32 96 97 97 98 72 51 39 54 85 79 85 98 97 100 100 98 89 89 88 75 76 79 69 69 69
16 20 17 11 14 50 82 84 77 79 74 73 77 78 80 85 92 80 76 72 89 72 96 98 98 99 84 49 42 58 89 88 94 87 100 99 99 99 93 97 90 80 80 77 66 65 65
20 20 15 8 20 88 71 86 80 76 61 49 55 82 91 95 86 80 72 73 94 98 98 96 98 99 89 54 47 53 76 93 88 88 96 90 90 90 97 95 88 82 80 74 74 56 54
21 20 12 7 46 75 46 53 71 50 41 43 53 78 77 84 84 90 73 67 86 96 98 88 98 99 94 73 62 68 81 89 100 97 92 90 86 87 92 87 87 83 81 79 79 74 68
21 18 9 7 59 46 24 33 48 58 36 42 50 62 86 96 96 91 81 80 74 96 97 95 98 97 92 78 61 100 100 97 96 97 98 85 92 88 92 79 93 93 87 81 79 78 78
22 16 7 8 49 42 21 23 30 33 36 43 48 58 86 99 95 80 83 95 83 97 97 98 99 98 97 94 84 95 100 99 99 99 100 98 90 93 91 91 91 94 87 75 70 79 90
22 15 6 3 33 19 17 20 25 28 32 32 38 81 91 93 89 71 83 78 91 96 98 98 99 93 86 99 95 100 98 99 98 98 100 97 94 88 83 87 87 93 86 90 88 91 90
22 14 5 2 10 16 16 17 17 20 27 37 86 87 71 71 67 67 70 65 95 97 98 99 97 90 92 95 100 98 98 99 92 86 87 88 92 83 80 82 74 86 82 75 93 96 82
22 12 4 2 14 19 15 15 33 89 92 85 80 90 74 87 81 82 93 92 96 97 97 98 98 94 94 90 92 99 100 98 91 82 74 84 82 89 91 83 90 94 90 86 91 79 86
22 11 4 3 19 44 45 78 97 96 90 83 79 95 81 90 84 99 92 96 98 98 94 92 95 92 90 92 87 93 92 87 95 87 87 84 80 92 92 86 91 91 76 93 95 99 93
22 12 5 3 21 49 69 100 96 74 63 62 74 79 99 81 77 98 95 97 99 99 87 87 84 96 88 92 86 92 84 88 87 85 94 86 85 92 93 88 75 93 94 89 85 86 98
23 13 7 4 25 50 69 82 77 66 76 77 59 60 85 100 89 93 93 97 98 98 99 91 80 80 73 86 88 80 77 88 93 84 92 91 88 84 80 71 80 84 78 90 77 73 82
24 15 9 3 31 50 60 71 77 61 62 70 53 39 51 61 67 96 97 98 98 98 97 99 95 85 78 82 79 81 91 94 91 97 87 91 93 90 90 87 89 91 87 84 84 85 88
24 18 11 2 24 47 54 54 57 43 59 57 31 46 64 83 96 92 92 96 96 87 88 82 82 85 84 90 84 90 83 92 99 99 92 90 90 76 79 92 88 90 85 85 88 98 90
25 21 13 7 5 42 45 53 48 40 47 49 48 54 71 87 91 82 82 78 81 86 88 91 92 85 86 91 86 89 96 92 89 98 99 96 91 88 80 67 73 72 71 73 88 85 99
25 24 16 12 2 24 43 51 53 45 37 40 46 55 70 82 85 86 84 71 68 66 65 86 93 93 92 87 81 88 95 82 77 79 92 98 90 85 79 82 78 78 80 86 91 96 98
25 26 20 14 10 4 38 46 53 57 61 38 33 47 56 67 80 80 86 77 72 70 66 62 81 86 93 89 95 94 95 90 94 84 83 94 92 84 80 76 83 86 81 94 94 98 99
24 26 24 18 14 8 6 37 47 48 50 56 42 37 55 64 79 95 75 79 75 70 66 61 70 66 76 83 87 86 91 98 97 91 89 86 91 93 86 83 86 86 77 85 86 89 95
23 27 27 22 18 14 8 3 13 36 46 51 54 51 51 68 85 98 91 78 76 68 66 78 76 79 87 88 88 94 90 95 90 100 90 86 96 96 99 98 78 74 79 78 86 78 90
23 26 28 26 22 17 14 8 1 3 26 52 62 63 62 63 88 96 96 92 82 71 75 79 74 83 85 84 75 85 78 86 95 94 99 98 100 100 98 98 92 78 69 80 82 80 82
27 24 28 29 26 21 17 14 9 2 2 22 61 68 69 68 87 98 100 100 99 89 72 74 79 79 83 83 86 82 73 84 91 95 96 99 100 99 99 97 77 65 80 81 79 70 75
43 24 27 29 29 26 21 18 15 12 4 2 13 80 88 84 90 98 99 98 100 94 86 85 89 90 93 90 87 80 79 90 89 92 92 90 94 90 100 96 84 80 83 89 81 69 70
59 26 26 29 30 30 26 21 18 16 13 5 3 6 72 92 80 100 100 100 83 92 90 99 92 97 89 96 87 83 85 89 90 81 94 96 86 94 78 72 79 84 86 86 79 66 65

GFSGBSN_700_rhum_030.txt.gz
RH
8 8 9 12 17 18 18 16 13 11 33 100 99 94 94 92 95 76 29 12 4 2 14 66 100 98 96 58 31 44 37 36 38 32 29 18 18 21 22 28 31 39 35 32 26 26 30
8 7 11 15 19 19 16 11 11 42 63 90 97 96 96 91 82 86 88 32 14 3 4 89 97 99 89 78 38 56 64 55 55 48 38 25 21 26 30 29 40 50 38 43 40 35 30
9 8 13 19 20 17 12 20 61 100 88 86 88 95 96 90 80 83 81 80 50 9 2 99 98 99 94 83 40 56 68 84 90 93 75 58 33 56 44 54 56 62 70 67 43 27 35
10 12 17 20 18 13 11 14 38 83 74 83 88 85 79 79 72 70 69 66 53 31 2 83 95 99 98 92 54 42 61 80 80 93 96 78 56 54 48 83 81 80 83 79 45 41 40
11 13 20 20 16 8 20 36 87 74 69 72 76 76 78 78 73 67 70 64 63 37 4 63 99 98 99 96 51 50 84 90 81 81 90 94 94 87 63 86 91 87 89 74 48 47 43
12 17 21 19 11 8 35 75 97 93 74 69 64 71 72 73 78 79 82 74 81 37 8 17 96 99 82 86 53 48 91 99 81 89 99 98 98 96 99 91 89 68 66 61 66 57 68
13 21 21 16 8 15 55 68 52 86 66 67 50 61 88 88 90 84 82 68 65 38 30 100 98 99 78 91 55 58 98 92 90 98 94 95 100 98 96 76 84 84 79 86 77 75 73
16 22 20 11 14 29 48 38 43 83 66 44 48 66 93 87 95 94 78 64 80 69 35 97 97 97 66 64 46 64 89 88 98 99 99 97 100 99 99 100 100 96 87 77 72 72 76
19 22 19 9 16 47 40 24 28 40 42 41 47 66 82 84 85 94 64 70 89 97 66 99 98 99 70 62 47 72 85 94 93 98 99 100 94 100 100 99 98 88 87 82 77 64 64
21 22 15 6 6 34 21 21 26 34 34 36 42 51 61 78 85 98 73 60 79 96 96 95 99 100 88 61 64 73 92 90 99 96 100 99 99 91 99 95 91 91 84 82 79 74 65
22 22 12 3 12 18 16 18 23 27 26 32 39 49 80 90 98 96 73 82 94 79 96 94 98 95 96 74 60 96 100 100 97 95 98 92 90 87 82 89 97 90 82 75 73 76 78
23 22 11 2 24 34 21 16 18 16 21 28 47 98 91 86 82 82 78 95 88 95 96 98 98 99 98 79 82 98 98 98 98 92 96 94 90 97 88 82 89 92 80 72 74 72 84
23 20 10 5 30 41 44 57 87 92 96 91 94 90 80 82 70 83 88 60 89 95 98 98 98 100 88 91 96 98 96 97 97 98 100 99 95 93 92 90 91 92 80 71 82 98 83
23 20 8 8 38 42 73 81 85 88 94 91 80 64 60 61 86 100 77 73 95 98 96 98 92 100 89 91 99 99 86 89 93 94 99 97 98 91 84 79 77 80 82 60 72 96 87
23 19 7 14 36 51 72 68 62 63 78 76 67 71 75 62 97 90 93 86 97 98 98 98 100 93 98 97 98 98 97 92 89 82 76 85 81 90 88 84 80 85 88 77 83 90 91
24 19 7 18 34 48 65 73 53 57 57 58 74 57 68 64 88 79 86 97 98 97 89 93 90 95 97 91 93 93 93 89 93 82 71 77 83 87 90 90 93 80 78 91 92 99 89
24 20 9 16 34 44 30 42 54 42 43 45 47 42 60 64 76 90 96 98 98 98 95 94 82 89 83 82 80 88 87 86 92 81 78 80 75 90 94 82 77 88 97 85 77 81 97
23 22 11 7 33 29 29 32 42 34 38 48 53 50 55 70 87 95 96 98 97 91 81 76 78 68 78 78 82 80 79 87 84 78 81 84 81 82 75 84 86 89 84 84 78 70 96
23 24 14 3 31 24 30 27 24 29 40 48 53 63 66 70 86 96 99 100 99 98 81 75 78 76 77 74 80 85 83 86 85 93 86 85 82 89 92 84 88 88 81 91 88 83 92
24 25 18 6 28 26 28 32 29 28 36 42 53 78 75 66 74 72 85 84 99 85 78 85 86 76 78 83 76 85 87 91 92 91 91 83 84 79 79 83 79 80 80 86 93 97 87
28 25 23 13 5 34 32 29 35 36 39 45 50 64 70 75 80 76 80 93 95 98 91 86 79 79 78 81 88 84 89 95 97 89 90 93 92 88 80 78 83 83 83 84 90 80 96
35 23 26 18 10 16 40 46 34 34 39 44 51 61 67 69 71 73 72 73 74 90 88 88 88 87 86 80 79 88 86 93 96 98 99 99 96 87 72 82 81 79 76 79 80 86 96
46 24 26 24 16 8 15 41 48 43 34 39 49 52 57 66 71 74 66 67 66 68 86 90 93 87 86 83 85 85 85 80 85 76 86 88 87 79 80 82 82 85 77 88 89 89 96
60 29 24 27 23 16 10 5 30 44 47 38 34 49 60 62 64 68 66 66 67 66 67 66 78 89 86 84 93 95 97 99 88 90 90 82 79 88 86 79 91 81 75 78 84 83 88
96 49 24 27 28 22 16 12 4 4 26 46 51 41 40 66 70 74 76 72 62 66 64 74 66 70 76 86 94 92 94 94 94 99 96 90 98 97 99 99 74 64 72 77 84 72 78
96 73 31 25 28 28 22 17 14 10 2 13 51 56 58 52 70 75 86 88 76 68 63 73 81 91 91 92 95 92 82 87 91 92 96 98 90 99 99 99 92 74 67 83 87 79 72
96 85 47 24 28 29 28 23 19 16 14 7 3 40 64 62 68 81 84 91 98 84 74 78 76 79 84 87 81 81 78 86 97 87 92 98 99 99 99 97 74 67 80 88 84 78 78
96 90 58 26 26 29 29 28 24 21 18 16 12 4 10 43 78 84 91 94 99 95 85 76 85 81 86 85 87 83 78 86 90 91 90 90 97 97 99 98 84 80 81 90 88 81 72
96 94 65 29 25 28 31 30 28 24 20 19 16 13 7 4 31 87 95 99 97 100 92 92 91 92 89 89 84 84 85 96 89 84 88 96 85 87 77 72 79 85 78 89 93 78 71

GFSGBSN_700_rhum_033.txt.gz
RH
15 16 15 16 18 20 18 14 12 9 36 68 90 89 91 92 96 97 97 95 86 36 6 2 76 79 99 91 78 42 32 28 30 30 27 22 18 19 20 22 29 34 30 22 21 20 24
19 16 16 17 21 20 15 10 18 14 26 62 74 77 82 76 82 86 90 82 80 83 19 3 72 82 98 94 88 44 50 40 33 42 33 25 21 21 25 26 27 36 32 28 27 22 22
20 16 17 20 21 17 11 19 31 42 77 72 69 66 71 73 74 80 78 76 74 67 47 5 47 78 99 100 85 45 43 69 52 50 38 27 26 33 34 34 39 44 45 33 30 26 27
21 19 19 22 20 13 16 82 63 65 93 84 77 60 69 74 76 77 70 66 65 62 49 12 14 93 98 99 85 55 48 81 68 78 51 37 42 58 49 60 57 57 60 70 36 28 27
22 20 21 22 15 14 63 90 71 80 84 84 71 77 73 75 76 78 70 64 60 56 46 15 38 98 97 97 90 56 43 89 95 99 92 56 69 69 61 88 93 90 84 69 39 38 45
24 19 22 21 12 15 66 100 86 99 89 93 54 50 68 88 85 91 92 75 72 72 48 13 64 99 98 94 94 55 60 70 81 95 99 77 90 90 87 92 87 94 71 59 58 50 65
25 21 23 16 8 11 55 100 100 68 95 94 44 45 64 74 86 96 96 94 71 69 60 14 91 100 72 99 98 70 78 72 89 98 96 98 96 92 85 64 65 76 72 68 61 66 64
25 23 22 14 4 18 50 88 98 70 72 65 39 46 54 81 76 85 85 66 76 82 45 38 98 98 90 95 83 76 94 96 96 100 98 97 100 100 93 97 95 92 87 84 72 73 77
26 23 20 9 12 31 50 52 45 40 80 40 32 37 44 58 69 78 92 62 67 94 54 95 100 93 98 100 75 79 88 95 91 100 96 100 98 100 96 99 97 98 94 87 81 74 74
26 23 18 5 20 42 56 58 74 94 28 24 29 34 40 76 91 96 83 73 81 63 78 98 98 99 99 94 67 93 99 98 99 99 99 98 100 96 98 99 100 90 83 80 78 78 75
26 23 15 8 33 55 74 84 84 99 100 97 95 92 95 96 87 100 73 72 72 74 96 100 99 97 85 84 58 83 99 96 97 100 99 98 99 98 99 99 100 95 86 82 78 69 66
27 23 13 16 40 65 46 54 58 98 92 83 80 81 92 84 89 72 92 79 94 94 96 98 98 99 93 78 65 96 99 99 98 96 100 97 99 99 97 91 97 94 88 82 74 65 76
27 23 11 24 45 29 43 42 44 62 68 62 60 57 59 72 89 60 70 82 92 91 98 98 98 99 83 98 89 99 99 92 99 99 99 98 99 100 98 90 94 96 92 67 65 91 76
25 22 8 28 48 18 38 37 40 39 48 54 44 48 77 85 62 55 68 95 93 99 100 99 98 98 98 99 98 99 89 90 99 91 99 95 98 100 98 92 84 88 86 63 55 87 85
27 22 8 29 39 16 28 22 31 30 31 29 51 37 59 56 59 69 80 90 97 98 98 98 96 88 99 98 97 96 84 86 94 86 78 90 84 93 91 86 84 87 93 78 69 95 93
28 22 9 27 34 19 25 25 21 31 26 31 38 43 56 62 77 91 99 100 100 99 96 86 85 92 97 96 84 99 85 88 85 92 84 79 83 92 93 89 93 89 75 76 67 92 82
32 23 10 22 29 21 22 27 32 36 43 44 39 51 82 80 76 81 100 100 99 96 89 81 79 92 79 83 85 96 79 78 78 81 76 78 72 93 91 91 88 90 89 78 74 73 87
44 24 13 15 28 23 23 28 37 42 46 48 56 61 76 74 81 78 100 100 99 93 81 73 68 68 70 76 86 72 75 75 81 88 82 79 82 87 91 89 91 92 81 80 68 76 98
79 29 22 10 21 28 26 31 38 48 56 62 55 65 73 83 89 79 82 78 72 73 74 73 70 69 71 66 70 80 76 81 82 92 88 87 79 82 86 86 95 92 86 87 88 81 87
81 38 24 20 8 22 28 28 32 38 45 54 60 68 72 74 83 80 97 99 92 88 87 76 69 73 71 72 75 82 81 78 84 77 86 82 79 79 80 79 77 83 75 75 86 98 85
77 56 26 25 18 8 30 26 31 32 42 51 58 60 65 74 77 80 80 87 77 72 83 87 77 72 76 86 80 84 85 89 90 90 94 90 88 87 80 78 84 83 79 82 88 77 85
76 79 46 25 26 17 8 35 35 28 34 45 59 66 63 63 65 72 77 87 85 83 77 74 75 84 85 82 82 81 86 89 90 92 89 88 93 89 71 71 74 76 67 71 76 80 82
76 79 82 34 27 24 17 7 31 40 29 34 46 60 60 62 66 61 65 68 86 85 85 86 91 89 84 84 83 86 90 86 88 84 92 98 90 82 79 90 83 78 60 64 74 87 93
65 77 89 84 24 28 23 16 7 16 37 34 30 46 54 60 66 64 66 68 67 67 74 86 93 97 86 86 88 91 91 91 92 91 95 85 89 88 88 82 94 82 76 77 79 84 89
63 78 82 96 26 25 28 22 17 13 4 24 38 41 27 39 56 65 66 70 75 72 68 70 78 81 88 86 95 92 95 96 91 96 91 88 96 95 100 98 75 69 80 76 82 72 78
60 75 87 96 40 24 28 28 23 19 16 8 5 34 50 43 40 49 61 64 62 66 68 74 73 74 74 88 95 93 86 80 86 87 89 90 95 100 97 99 92 94 79 74 87 78 84
86 88 95 99 83 24 26 29 29 25 21 18 16 8 9 42 56 51 54 64 70 65 67 73 86 92 94 94 94 85 84 85 96 86 93 97 100 100 98 97 76 75 75 85 88 84 88
91 97 98 97 95 28 25 28 30 30 28 24 22 19 15 11 14 63 65 70 66 79 77 76 87 86 87 91 90 81 76 79 92 92 76 77 86 96 100 98 88 73 84 86 85 90 85
94 94 97 96 95 39 25 27 30 31 31 30 27 24 21 18 14 13 55 73 76 86 91 94 92 92 90 90 85 85 82 83 86 93 88 94 81 88 81 72 76 92 86 79 89 88 83

GFSGBSN_700_rhum_036.txt.gz
RH
29 26 23 22 22 22 18 16 26 54 83 94 100 63 68 72 69 73 80 78 93 93 93 77 6 20 95 98 98 62 49 30 28 26 27 26 20 22 25 29 41 38 41 37 29 30 28
32 25 24 24 23 20 17 44 78 93 99 97 95 77 76 58 66 74 78 89 86 88 85 77 14 26 100 98 99 88 50 38 26 28 27 28 23 25 28 26 29 47 45 34 28 29 26
30 26 27 24 21 15 29 66 100 100 98 100 91 83 73 59 65 70 79 76 80 81 82 69 24 38 100 98 96 99 57 48 31 34 30 29 27 36 38 36 34 51 40 34 25 22 23
35 30 26 23 17 8 34 68 100 100 94 99 90 86 74 80 82 77 75 71 65 62 61 56 34 63 97 91 89 94 51 64 52 58 58 37 31 40 56 55 51 46 50 42 28 23 25
45 31 25 20 12 10 39 55 82 100 99 98 97 84 60 60 81 80 86 88 76 68 60 58 28 99 98 62 94 73 58 81 80 87 81 68 46 60 68 68 71 70 63 49 39 30 28
51 32 24 17 6 26 42 60 90 97 87 86 86 85 46 58 83 72 80 84 83 68 60 57 36 99 82 59 90 80 82 94 78 79 77 82 66 75 73 99 85 89 87 51 40 36 35
54 29 22 10 20 39 60 75 77 72 49 68 69 47 39 50 71 76 74 71 72 76 76 54 34 97 88 70 97 100 88 100 98 97 93 77 93 86 68 97 85 74 75 65 47 53 53
58 28 18 7 32 46 43 48 62 84 93 64 36 29 30 37 55 68 90 81 66 74 63 61 52 99 96 98 97 84 90 94 96 99 99 94 100 83 86 72 73 91 85 71 68 74 75
54 27 13 19 35 28 32 31 42 86 93 99 98 96 91 59 62 82 92 96 60 69 52 91 99 98 100 96 98 92 78 84 92 96 98 98 96 92 92 88 82 96 91 79 77 80 78
43 24 11 25 22 19 27 35 30 77 73 61 64 81 87 97 93 89 79 64 66 67 69 99 88 99 100 96 99 99 84 88 97 100 98 99 94 100 99 100 94 89 78 80 82 78 74
40 20 11 22 13 18 23 30 24 50 64 51 68 69 75 78 86 66 60 64 62 74 90 98 88 95 98 96 84 99 99 91 98 99 91 98 97 92 99 98 99 95 94 86 84 80 75
46 21 11 21 13 15 19 25 23 24 42 46 68 77 77 75 88 70 52 46 92 91 98 98 98 98 99 85 82 98 99 96 99 99 100 96 99 99 99 99 99 99 95 90 85 78 77
54 25 12 22 12 13 17 23 22 20 25 42 59 83 80 74 68 58 58 93 93 93 96 95 98 98 86 88 77 99 98 96 99 98 99 98 99 95 97 98 98 100 96 76 67 72 78
62 29 12 19 15 12 18 23 26 30 29 34 44 64 57 60 66 77 94 88 89 100 100 98 98 97 99 100 99 94 99 99 93 90 91 93 99 99 98 92 82 94 91 67 64 73 77
70 45 16 16 21 16 17 24 31 30 35 47 54 62 64 71 71 73 79 89 98 98 98 98 93 93 97 98 91 99 95 92 95 86 81 89 90 99 97 96 93 96 96 81 69 87 85
76 52 31 15 21 22 26 36 41 44 38 52 68 73 77 68 72 71 83 98 100 90 93 89 88 94 98 98 93 88 88 76 88 87 80 82 84 98 96 96 95 84 80 81 67 70 75
69 62 46 14 18 22 26 39 40 45 50 55 62 72 84 71 79 68 90 96 94 89 84 72 64 79 80 80 80 87 76 78 81 88 86 76 74 99 97 91 90 92 87 71 64 71 82
65 77 61 23 13 20 25 31 41 49 50 56 64 72 78 74 75 98 100 100 94 87 76 63 66 60 66 76 73 84 81 70 84 82 78 76 75 93 95 89 90 93 86 77 62 81 85
62 70 62 32 21 13 22 26 30 38 44 54 60 76 77 67 100 92 94 92 88 81 73 66 68 67 67 69 77 79 82 75 69 80 86 80 77 77 92 93 96 95 87 88 78 75 79
63 70 72 64 25 19 10 25 26 29 37 47 53 60 69 67 76 94 96 93 84 84 78 72 69 67 72 70 63 73 71 74 76 82 92 86 79 69 74 82 80 85 75 81 88 90 82
61 68 71 77 46 25 18 10 30 24 28 39 50 53 58 66 74 77 78 83 83 91 89 80 76 69 69 68 74 72 76 76 81 81 96 92 83 78 73 79 83 82 79 80 83 76 76
59 62 68 73 80 43 25 17 12 36 30 32 46 58 61 54 61 66 70 74 76 74 68 73 71 76 84 80 74 69 80 80 92 89 90 95 86 88 78 72 74 73 71 80 83 79 74
70 65 67 68 81 90 26 23 16 12 36 33 34 47 53 59 58 56 55 63 74 78 84 82 79 86 84 84 88 82 80 88 91 88 91 91 90 82 78 88 89 79 70 70 61 65 71
83 70 68 70 77 91 53 27 24 15 8 34 36 36 50 50 55 58 59 62 75 79 78 88 95 92 86 87 87 93 94 89 92 90 94 89 92 93 86 80 96 79 78 79 77 83 90
91 80 78 74 79 89 78 26 28 23 16 6 15 36 44 35 43 51 58 61 66 67 66 76 90 98 93 91 90 89 93 92 87 90 90 93 97 95 98 97 79 62 80 94 82 82 87
90 86 87 85 81 91 96 24 28 28 24 18 13 5 21 46 46 37 51 59 65 65 68 67 71 86 96 98 96 91 84 87 90 89 86 96 94 97 96 99 96 92 97 90 86 94 90
86 86 87 91 91 95 97 34 24 27 29 26 23 18 15 8 26 56 55 60 55 64 67 66 74 79 79 87 99 96 88 84 93 95 100 100 100 99 95 95 73 71 95 96 94 88 90
86 88 88 90 95 95 97 55 23 24 27 30 29 28 25 21 18 11 41 67 72 69 77 75 81 94 98 99 96 89 82 81 89 86 93 82 87 99 100 98 85 73 81 96 90 86 86
87 86 90 95 98 96 96 94 25 24 26 28 31 31 31 30 26 22 16 11 59 88 90 94 83 86 90 90 89 89 82 80 84 94 92 85 75 80 78 77 76 82 94 98 86 83 84

GFSGBSN_700_rhum_039.txt.gz
RH
55 48 39 33 27 20 8 29 62 70 92 98 93 97 95 95 70 59 61 60 64 74 77 93 93 67 42 96 98 94 96 85 37 28 26 32 23 21 31 43 51 48 43 44 40 40 38
56 57 41 31 22 9 20 49 68 89 98 96 98 90 93 85 70 55 59 72 70 80 91 88 84 75 31 95 93 98 85 79 38 29 27 35 27 22 30 44 51 54 47 36 34 35 33
59 57 37 24 12 17 35 51 75 94 98 93 85 90 95 82 77 75 69 72 68 75 89 95 77 70 34 68 88 95 100 72 42 30 28 56 41 30 32 45 44 57 50 44 28 30 34
39 61 31 20 12 31 26 30 47 95 98 92 87 87 94 80 55 72 74 76 89 70 66 69 67 75 20 90 99 91 86 90 58 45 37 46 73 45 43 46 40 57 68 44 25 27 30
48 50 25 11 26 16 19 20 31 70 90 92 75 79 78 55 45 71 67 80 72 75 70 66 77 79 56 99 89 99 74 96 83 56 65 61 98 78 68 59 69 62 63 49 40 30 29
62 36 22 13 25 10 18 23 33 85 87 91 92 65 50 51 43 61 75 75 72 68 69 64 83 89 79 75 80 99 67 97 81 62 93 79 78 73 80 72 82 89 73 43 29 26 25
62 31 18 20 18 10 12 19 26 84 80 76 81 98 60 34 33 58 72 78 67 76 69 69 64 93 69 80 73 97 78 99 98 91 96 96 88 80 76 82 72 62 44 39 32 40 42
63 31 17 20 13 11 12 15 22 76 55 64 66 86 86 88 85 68 82 86 79 81 76 59 60 99 81 88 91 96 98 99 98 98 95 96 91 74 72 95 81 70 69 65 60 52 51
66 35 17 18 11 13 15 15 22 26 48 68 61 70 86 86 88 98 97 97 65 74 66 81 88 98 99 87 78 92 100 99 98 99 97 93 88 98 91 88 90 89 73 62 70 75 75
66 41 20 16 10 15 18 22 22 32 50 65 69 66 54 68 74 70 69 51 66 78 91 97 98 98 91 96 99 92 99 99 99 99 99 97 99 96 92 86 77 77 70 81 79 82 71
63 45 22 15 13 20 22 31 22 29 43 52 68 65 61 37 43 44 51 55 89 84 90 97 99 99 88 95 92 90 97 96 98 98 97 99 99 98 100 95 92 88 97 98 88 81 79
61 55 28 15 17 19 26 28 34 42 32 43 70 64 54 40 42 62 86 98 95 76 99 92 99 99 100 99 98 100 93 94 98 97 96 97 99 99 99 99 100 94 100 93 87 84 77
53 66 41 16 19 16 29 39 32 38 43 34 47 48 63 61 63 84 90 91 88 93 98 100 98 99 88 98 98 98 99 96 98 96 98 99 99 98 97 99 100 98 95 84 68 79 76
53 69 53 22 19 21 29 38 44 41 48 34 46 52 60 68 76 73 76 73 86 99 97 99 97 96 97 98 100 100 92 98 98 84 94 93 100 96 94 98 93 98 95 70 67 54 62
54 67 66 35 15 22 30 36 42 50 51 56 60 63 60 60 67 69 66 82 97 100 100 96 98 92 93 92 93 93 98 99 95 92 84 89 99 100 99 96 92 97 97 78 69 79 74
64 61 72 60 18 18 25 34 38 47 54 58 60 61 56 60 57 56 56 94 99 87 91 86 81 88 88 90 67 76 92 92 87 83 79 81 95 98 96 97 96 84 86 85 77 75 66
86 59 66 70 30 14 20 26 31 40 46 51 60 53 64 57 74 58 77 100 100 99 88 72 71 82 95 85 88 89 82 81 83 83 77 75 76 100 96 93 88 87 84 71 65 63 68
91 63 65 68 66 30 13 22 23 27 37 48 50 51 58 59 67 98 99 99 96 86 74 64 70 75 77 82 83 81 76 65 78 80 78 77 73 98 98 91 85 96 92 82 57 72 75
92 67 66 66 68 69 27 12 21 23 25 41 50 52 56 56 62 84 94 89 87 81 69 64 67 64 62 68 72 76 77 69 80 78 78 75 74 83 98 97 97 97 90 86 75 62 64
91 82 70 67 71 68 70 25 12 23 22 28 43 56 60 62 62 67 76 78 80 77 73 69 66 68 67 70 67 78 82 82 74 80 86 80 75 62 62 71 76 88 82 83 84 80 72
93 94 76 74 70 68 72 62 17 14 29 26 36 52 51 60 66 66 69 76 78 82 80 71 72 70 72 71 68 72 73 75 78 77 87 89 83 75 69 70 75 77 80 78 80 76 68
97 90 83 78 74 72 73 80 23 11 19 34 30 49 51 52 59 63 67 77 73 68 74 78 76 73 74 80 70 73 67 69 71 72 87 94 88 79 79 76 77 74 74 78 79 75 70
93 91 90 85 79 76 74 78 47 21 10 20 36 31 45 56 58 56 54 63 74 78 74 76 82 90 84 83 90 79 79 89 90 87 88 91 90 79 76 84 88 81 63 68 61 58 58
94 96 95 88 82 81 78 78 79 27 19 11 15 36 36 46 53 60 58 57 62 68 77 85 87 89 90 92 89 88 94 95 92 91 91 88 89 90 86 76 96 77 83 85 71 70 77
96 91 92 89 85 79 79 80 80 28 26 20 15 8 29 39 37 49 60 65 65 64 62 70 84 95 96 92 95 91 87 83 91 92 89 91 96 95 97 96 79 69 81 87 94 93 92
91 87 84 82 87 88 88 89 90 26 28 27 22 18 10 10 32 45 37 54 67 72 73 70 72 88 100 96 94 91 87 88 89 89 85 92 94 99 94 99 96 93 92 91 90 98 94
84 84 83 86 89 91 94 98 96 30 25 28 28 26 21 19 13 13 49 51 55 68 73 74 71 72 80 92 99 97 91 87 94 99 99 100 100 98 97 95 71 76 89 97 98 95 96
83 85 85 85 89 90 94 97 97 68 24 25 28 29 29 26 25 21 17 22 57 64 76 70 77 84 85 85 87 84 92 85 91 94 97 99 91 100 97 92 86 70 92 95 97 93 85
86 89 87 88 94 92 94 97 96 96 59 23 26 28 30 31 31 28 22 18 14 33 83 79 76 77 88 95 91 92 88 83 82 94 93 93 80 80 76 75 75 81 88 92 94 88 82

GFSGBSN_700_rhum_042.txt.gz
RH
23 51 55 29 14 17 15 11 16 28 77 89 79 85 91 86 84 77 55 60 66 62 62 68 88 94 94 46 67 82 62 96 96 45 28 27 28 62 40 36 41 48 57 46 42 34 32
28 59 39 17 14 12 9 13 23 36 80 80 81 86 86 85 85 74 78 66 66 64 69 72 76 76 92 46 50 100 97 64 92 46 31 32 32 66 93 64 44 62 71 49 47 43 41
41 57 28 11 16 11 10 14 22 34 77 83 85 86 82 84 92 68 76 74 78 84 67 76 92 88 78 50 50 89 98 93 98 46 32 38 37 72 59 84 60 77 66 51 46 44 44
47 54 27 12 13 12 13 16 21 50 88 88 89 95 84 75 80 47 68 73 63 76 71 65 94 95 65 53 69 94 100 99 95 46 36 67 61 92 75 63 60 82 71 79 39 39 43
42 58 31 13 12 14 19 19 26 46 78 68 73 74 94 70 62 44 58 70 62 64 72 65 73 79 75 36 67 62 98 97 73 40 49 72 79 74 69 75 83 83 55 59 64 32 45
39 62 36 13 12 19 21 23 32 39 63 68 60 60 88 81 40 38 51 68 62 69 72 72 72 85 64 46 96 70 78 95 71 56 83 93 89 86 96 83 56 64 57 68 56 44 29
42 65 38 14 12 22 24 32 30 44 84 66 63 62 77 92 69 47 55 72 82 72 79 62 76 90 61 70 84 95 94 90 86 83 93 98 99 93 93 82 66 75 71 57 28 45 32
48 64 39 14 13 25 26 34 23 35 35 42 58 52 73 88 90 95 93 87 75 77 67 57 93 95 74 84 91 98 97 98 95 94 99 98 97 98 99 96 79 76 65 64 51 44 47
63 57 50 14 14 26 29 31 23 26 19 28 29 34 59 66 60 92 92 74 64 66 66 91 98 83 88 71 84 96 99 99 97 97 98 92 97 98 84 93 87 90 75 65 71 57 63
74 58 61 16 17 25 34 30 17 29 22 39 42 46 32 29 34 40 47 55 60 74 96 97 98 98 90 86 89 90 98 99 98 99 98 99 93 83 82 94 88 93 79 69 66 77 54
78 58 68 29 20 23 33 37 29 37 25 50 59 59 64 64 77 81 88 76 77 84 86 97 99 100 100 88 84 92 97 98 99 95 98 98 89 97 98 92 86 84 66 64 86 84 75
64 58 66 52 17 23 32 42 42 30 29 42 50 54 62 65 66 57 67 78 79 83 93 98 99 99 100 100 94 99 98 97 96 99 97 94 99 100 100 96 87 89 81 95 91 83 80
70 64 61 69 17 22 31 38 47 48 51 55 60 54 56 65 62 57 68 71 83 90 92 99 100 100 100 99 95 94 99 89 99 98 98 99 99 99 99 97 100 100 91 92 89 90 66
82 82 63 71 42 15 24 32 44 48 45 53 49 48 56 59 62 58 66 69 91 100 97 98 98 98 98 100 98 99 99 95 92 80 95 97 98 99 97 99 98 97 97 71 65 52 44
82 90 71 67 68 20 17 26 28 40 39 48 42 46 46 59 66 66 54 69 92 99 99 93 98 99 98 92 96 95 92 90 86 78 80 90 98 98 98 98 99 99 98 73 58 59 64
86 92 70 65 70 59 18 16 25 23 35 41 45 46 40 56 56 58 50 91 99 89 86 87 75 82 96 83 87 96 95 93 86 82 75 82 97 99 98 98 95 88 81 81 73 75 55
91 88 80 66 63 70 63 17 16 24 24 37 42 42 46 46 52 55 59 99 100 96 88 77 74 72 77 73 77 85 83 90 86 84 74 73 78 97 97 97 97 84 88 75 74 59 48
96 85 93 73 66 68 68 62 13 18 23 26 40 46 48 44 63 58 96 90 92 89 76 68 73 76 64 69 81 82 77 70 80 82 75 71 70 100 98 90 91 91 90 72 59 75 71
93 88 91 94 77 70 67 66 59 13 20 21 34 45 51 43 50 54 74 88 83 76 67 66 70 72 65 69 76 80 74 68 81 80 74 73 71 96 98 92 86 86 85 86 76 62 63
90 84 89 89 83 75 69 70 71 33 11 25 31 44 50 56 51 56 64 68 73 68 70 68 67 68 67 74 69 74 79 73 72 71 76 75 67 59 58 64 67 81 73 82 85 78 70
88 86 84 84 85 79 73 72 74 55 15 26 33 44 47 48 51 56 59 60 65 70 68 67 66 66 68 69 70 69 79 82 79 70 90 83 81 70 66 65 73 75 74 76 79 74 70
90 86 86 88 80 86 76 74 74 70 22 12 36 46 45 51 51 54 62 67 61 60 66 67 64 70 69 70 63 75 64 72 71 74 75 85 82 81 74 68 70 69 70 72 73 76 72
90 91 89 86 84 82 77 74 74 76 44 16 16 40 44 48 53 56 55 62 69 70 66 66 77 79 79 80 78 78 73 79 79 72 78 87 86 81 84 78 85 80 55 58 59 58 53
90 85 91 85 79 74 74 77 74 80 56 24 13 18 41 47 50 51 54 55 61 68 78 78 85 92 90 90 86 80 83 89 89 86 92 89 86 86 98 79 88 66 81 80 74 69 57
87 84 81 74 72 79 78 85 85 87 34 28 21 14 12 40 41 49 52 58 60 63 65 83 86 95 94 93 90 85 85 87 87 83 86 90 90 92 100 88 72 72 81 85 81 71 72
82 81 74 72 72 74 79 85 90 95 37 26 27 23 18 10 19 41 44 46 60 67 66 67 82 100 97 93 88 84 93 91 95 87 86 88 93 98 98 98 77 87 78 81 84 98 92
72 77 74 70 74 74 80 86 94 97 65 26 26 28 27 23 19 14 43 54 51 57 64 66 71 79 98 94 90 91 92 83 94 99 97 96 99 100 96 88 78 69 87 93 98 97 93
65 68 72 71 72 79 84 94 93 90 95 45 33 25 27 28 28 24 19 14 37 59 69 68 71 73 81 95 100 96 90 86 91 92 91 97 97 98 98 96 84 67 82 91 98 98 98
77 85 79 72 76 81 87 97 93 87 93 95 85 63 26 29 30 29 27 24 21 17 35 68 71 68 75 89 86 82 79 86 84 98 90 97 83 90 81 82 65 78 77 86 92 98 96

GFSGBSN_700_rhum_045.txt.gz
RH
40 55 47 28 12 15 16 24 30 32 40 79 83 82 82 84 83 81 70 51 50 53 52 57 78 87 94 93 57 74 62 69 72 90 50 35 43 50 94 75 67 59 64 61 60 58 51
40 52 50 30 12 18 20 28 30 24 79 91 95 97 97 94 81 91 68 60 65 77 65 55 61 78 90 92 80 86 44 90 99 96 58 38 57 83 98 90 79 80 72 76 65 52 45
44 47 57 31 12 20 24 21 22 19 91 90 87 78 78 96 82 82 57 65 70 64 68 64 73 74 88 85 86 93 90 78 82 88 71 55 94 99 88 96 93 93 72 82 70 56 51
49 53 59 28 12 22 26 24 17 33 68 85 82 66 68 96 85 69 48 62 64 57 56 66 66 84 68 67 84 91 99 64 66 87 84 92 99 98 100 98 98 88 83 75 68 58 54
66 62 61 26 14 25 29 16 16 43 32 26 72 50 70 86 67 61 44 64 66 55 59 64 62 94 91 66 52 94 100 96 94 95 91 93 94 98 95 96 92 81 66 60 58 56 52
79 70 62 23 16 26 31 21 16 44 50 36 28 39 65 86 90 42 41 57 61 61 59 66 72 74 69 57 36 73 97 98 99 98 62 85 95 97 98 79 63 62 65 44 47 65 53
76 77 61 31 19 27 35 28 20 34 46 55 44 27 67 81 78 65 44 64 82 78 62 100 91 90 83 100 73 89 98 97 99 66 72 96 98 92 86 64 52 44 56 42 43 49 53
73 75 60 40 21 27 38 29 34 25 36 47 59 58 29 49 66 86 95 84 74 70 88 55 78 99 82 98 92 94 98 99 97 68 93 99 92 93 87 70 58 65 54 49 53 58 49
89 65 59 56 19 26 36 39 43 24 33 56 67 66 59 29 37 61 71 58 73 80 93 86 96 92 96 82 90 98 90 96 99 95 91 86 83 89 94 79 71 61 60 54 60 66 50
95 71 63 68 16 25 37 43 45 49 50 61 63 69 55 58 24 25 40 69 86 92 96 88 88 94 87 99 99 86 93 94 99 99 99 97 99 95 98 86 67 59 71 72 82 71 42
94 79 77 63 38 20 33 41 43 51 57 67 52 62 54 37 46 57 63 79 89 97 90 96 98 97 98 97 97 99 96 98 99 98 98 98 97 98 94 84 71 77 75 86 77 78 72
82 85 87 64 68 16 26 36 42 45 51 52 48 51 53 47 51 71 81 85 89 97 94 100 99 95 96 96 94 89 98 98 98 99 99 99 98 99 91 92 80 84 74 74 83 82 74
83 83 89 65 69 30 16 28 32 36 44 51 44 45 51 51 54 67 69 78 94 91 97 97 99 97 95 93 99 98 98 98 98 98 98 99 99 99 96 93 100 90 82 76 80 92 61
84 85 84 68 64 68 30 15 26 27 38 48 42 39 41 52 58 62 62 68 86 99 94 95 98 96 97 99 84 98 99 95 97 98 98 98 98 98 99 93 94 92 80 67 61 58 51
73 79 84 83 64 60 67 46 14 25 26 43 47 39 33 42 46 49 55 70 95 90 98 99 98 98 95 95 95 98 99 97 98 95 98 97 98 98 99 99 92 94 99 83 60 43 47
92 82 87 80 73 67 66 62 55 14 24 32 46 46 34 39 39 47 51 89 97 97 98 89 85 92 82 99 94 94 95 82 86 80 73 84 94 98 98 99 99 98 95 88 74 76 48
82 87 82 82 85 77 70 64 55 51 17 25 42 47 43 39 40 45 49 87 98 87 78 84 90 84 85 90 93 86 89 82 81 77 69 77 88 100 99 96 97 97 98 80 80 65 54
79 85 80 78 78 71 71 64 55 55 28 25 35 47 46 42 48 50 55 66 76 77 64 66 75 78 85 93 92 84 82 90 80 79 81 68 94 98 97 87 85 91 79 73 63 72 59
79 75 80 78 66 61 54 55 62 54 65 15 29 47 48 42 62 53 59 63 72 71 62 62 68 68 62 85 85 89 82 64 65 78 84 70 83 96 96 90 84 88 81 84 72 64 83
78 77 75 73 65 64 62 61 66 60 66 17 31 49 52 52 45 56 66 66 70 66 65 63 62 61 66 74 66 82 79 68 62 73 72 70 70 73 65 73 78 89 74 84 86 83 66
76 74 75 72 61 58 58 61 65 62 69 34 31 50 52 56 50 48 54 56 67 75 64 65 64 64 75 77 79 82 94 75 71 66 64 73 78 64 57 58 61 64 74 92 90 77 70
75 83 75 67 58 48 52 58 62 65 66 56 12 41 54 56 52 54 56 57 55 57 68 72 71 79 75 75 69 77 83 88 84 74 72 84 78 76 73 65 60 60 58 78 69 67 81
96 79 71 65 55 49 53 59 65 65 65 69 24 24 53 56 59 59 76 59 61 63 58 63 85 87 88 88 70 63 84 85 85 85 89 92 90 78 84 79 76 77 42 44 51 49 49
78 72 75 63 55 52 54 60 66 70 71 67 37 14 31 55 61 73 56 54 62 65 66 71 78 93 82 82 84 81 80 90 85 88 95 95 97 90 96 84 86 68 59 62 62 68 58
72 63 63 61 53 55 56 60 67 75 79 65 36 22 14 23 53 65 67 62 61 66 69 75 81 91 93 88 92 86 82 94 90 81 84 96 95 98 94 79 69 56 64 76 79 81 62
72 67 63 65 60 66 61 66 64 77 86 78 38 27 23 18 15 36 56 64 72 85 72 66 74 88 93 86 89 82 82 75 91 96 82 86 96 94 94 83 71 85 75 77 84 91 63
74 66 64 61 65 68 64 71 79 80 84 87 56 38 26 26 23 19 25 54 60 80 94 84 72 88 94 92 94 90 81 86 83 91 99 100 98 94 90 84 75 70 72 84 96 97 87
77 71 64 65 65 68 68 74 84 83 83 85 85 68 58 29 27 26 23 21 47 70 90 97 75 81 87 99 98 85 83 83 84 81 90 93 91 92 87 93 77 64 64 97 96 87 94
67 67 74 71 64 63 68 81 86 84 79 85 91 95 93 94 54 32 32 29 26 21 32 76 87 90 98 95 94 93 89 84 81 73 95 89 82 84 81 78 73 64 86 89 86 92 94

GFSGBSN_700_rhum_048.txt.gz
RH
76 56 62 51 18 18 25 24 33 34 25 58 68 81 90 86 93 84 82 59 58 59 64 58 48 75 95 96 81 97 32 99 91 88 90 44 27 31 32 32 80 73 67 58 54 60 62
81 70 66 51 16 23 28 19 36 27 28 54 90 76 61 72 95 83 80 61 56 62 65 61 54 64 87 94 90 97 68 90 99 94 92 58 33 49 72 82 63 69 61 68 54 58 58
84 72 71 55 16 25 31 24 17 31 35 51 51 80 54 72 95 80 69 58 59 58 60 62 56 63 76 80 93 70 86 64 95 83 98 54 61 98 97 80 88 87 83 74 64 63 60
84 70 69 58 17 25 34 29 17 21 35 56 52 33 62 72 80 76 54 45 57 60 58 70 56 66 53 65 84 62 96 84 97 98 97 67 74 99 98 88 88 85 83 80 61 70 60
82 70 61 60 18 25 35 30 28 26 32 62 64 26 65 74 73 65 46 44 58 59 55 63 58 70 72 65 66 69 99 99 82 99 98 87 77 93 99 84 90 86 76 76 74 60 57
78 81 68 61 20 26 37 37 43 30 45 63 61 44 39 54 71 47 45 41 54 56 61 65 77 87 87 75 65 88 99 100 87 98 96 97 78 85 97 95 83 73 71 67 70 65 61
70 77 74 62 37 24 36 42 46 49 54 61 41 46 28 48 71 81 77 70 90 78 63 99 100 81 93 80 54 87 98 99 89 99 99 98 86 62 58 68 64 64 66 56 56 56 58
76 76 75 68 64 22 34 41 46 51 57 61 34 43 26 30 38 47 60 62 61 65 70 57 58 88 90 77 75 98 99 96 99 99 99 83 86 66 86 84 70 60 51 51 52 48 49
77 75 82 78 66 20 26 36 46 47 56 62 52 34 39 42 50 68 88 73 69 80 88 89 88 86 87 68 74 90 100 96 98 98 92 100 88 94 92 78 69 58 54 48 53 60 55
80 85 79 80 64 53 18 28 38 42 52 52 56 58 44 46 48 66 79 88 90 94 95 83 90 85 94 98 97 97 98 99 99 94 97 92 97 80 94 85 73 60 58 58 52 70 64
85 77 77 82 63 67 22 19 25 29 41 48 54 57 58 55 64 81 89 96 92 90 96 96 79 56 93 98 99 97 94 98 99 90 97 97 91 85 91 81 71 67 59 61 66 65 78
82 71 77 79 64 65 57 24 16 24 31 44 45 46 47 53 66 78 82 92 96 98 97 85 88 88 93 100 94 93 92 91 92 98 91 95 94 96 93 98 87 83 79 74 73 80 83
82 72 82 74 78 64 65 65 49 16 24 38 42 42 43 51 52 58 73 76 95 92 96 94 92 98 97 97 94 84 84 89 99 99 99 91 100 98 99 99 88 96 79 86 91 94 87
81 76 89 77 71 70 68 66 62 55 16 24 45 44 42 48 46 56 72 65 90 96 96 88 90 98 84 99 86 96 98 99 99 93 96 98 99 99 100 99 96 94 66 69 72 88 75
75 74 82 80 61 71 71 72 66 53 42 22 33 44 41 41 37 51 55 63 84 94 89 92 99 91 98 88 84 96 99 96 97 96 97 97 97 99 99 89 94 95 84 85 69 44 58
82 71 74 76 67 58 53 52 51 52 51 17 22 40 39 44 40 51 46 69 94 99 91 94 88 88 95 94 91 93 88 99 91 91 96 92 96 99 98 99 97 86 89 94 74 90 63
58 68 68 64 58 57 48 41 38 43 51 48 20 35 43 45 51 50 56 69 94 78 71 91 84 81 85 87 82 79 85 86 87 88 87 94 81 100 98 98 96 95 89 86 84 74 88
63 69 56 58 56 55 53 53 46 31 50 52 15 32 47 43 54 64 59 59 62 58 61 68 71 80 84 86 83 80 82 87 77 76 81 72 78 97 96 97 97 98 96 83 77 76 57
57 54 56 50 56 48 43 38 41 46 44 50 22 28 50 49 99 71 58 64 66 64 63 66 69 67 70 84 78 82 85 66 76 75 77 68 76 92 94 84 89 93 94 97 86 68 68
52 58 52 47 47 47 41 37 38 49 51 57 44 31 47 52 56 96 77 80 81 68 64 62 62 59 64 68 71 77 72 64 62 61 71 69 77 82 76 78 74 75 73 79 77 72 68
58 63 61 49 44 48 39 36 38 51 58 65 47 25 51 72 72 61 76 79 86 83 64 64 64 72 76 77 78 76 87 69 63 61 69 68 71 64 64 61 52 60 68 79 83 75 70
71 76 62 54 48 49 42 38 39 44 57 66 59 18 41 54 55 60 83 99 82 87 72 85 70 80 76 72 71 70 74 80 69 67 68 65 71 71 68 64 61 59 55 64 74 76 67
76 76 63 54 51 50 45 42 43 48 59 63 63 36 24 58 61 64 93 100 79 68 70 79 87 83 82 84 77 72 82 81 81 76 70 86 75 73 86 87 74 68 41 38 41 49 45
74 74 61 63 58 52 44 46 50 47 51 66 67 50 16 53 61 100 80 76 69 67 77 68 75 95 88 83 76 80 74 85 85 86 88 90 90 86 86 81 97 47 59 53 46 38 45
72 72 68 64 57 53 47 46 48 53 59 67 72 52 28 14 41 71 66 67 62 71 75 73 73 81 87 85 96 91 85 90 92 84 81 90 88 81 92 84 58 43 54 58 73 68 62
64 67 69 66 56 54 53 52 50 56 63 71 81 66 33 23 21 20 52 68 74 83 97 81 75 82 84 84 80 84 84 77 82 90 84 96 91 88 93 79 82 78 69 72 81 83 75
62 64 64 60 57 57 56 55 56 54 69 74 78 82 66 69 28 24 19 31 59 81 96 99 82 82 89 85 82 71 72 82 79 82 95 91 86 95 79 86 74 70 68 79 92 86 80
63 62 60 60 60 60 59 60 61 63 65 74 76 79 86 86 80 31 27 23 38 64 98 95 91 85 89 91 89 78 78 80 81 77 83 89 88 86 84 92 83 65 68 88 89 93 95
63 59 63 65 62 57 61 64 64 67 69 70 74 78 77 81 82 89 66 28 26 28 37 98 99 100 99 86 88 86 78 79 82 78 79 86 74 82 73 73 71 71 72 74 86 90 90

GFSGBSN_700_rhum_051.txt.gz
RH
72 72 67 58 38 17 26 30 18 23 28 38 39 21 37 57 69 92 81 83 58 56 53 63 57 59 93 97 86 94 65 36 70 82 80 70 34 43 28 32 42 45 81 68 81 77 81
74 68 68 60 41 17 28 32 32 29 43 32 27 17 46 57 72 78 73 61 52 47 53 56 56 56 68 79 94 74 45 64 47 54 64 74 41 35 45 40 42 50 66 80 74 80 78
74 66 67 64 46 19 30 37 41 41 51 36 23 26 46 57 61 64 67 55 50 47 46 53 56 65 75 82 96 86 84 75 95 98 90 80 39 51 66 64 52 78 67 83 71 72 68
80 75 71 66 56 20 31 40 44 51 57 38 27 38 32 39 61 65 55 39 45 48 51 58 68 61 55 75 96 92 100 99 88 97 100 82 47 93 86 82 79 86 80 77 75 71 68
79 82 70 67 64 20 31 39 45 51 62 54 28 42 47 41 58 50 42 38 43 46 52 60 61 60 69 58 70 93 100 99 98 99 97 80 87 88 99 84 85 88 88 76 74 67 57
83 82 83 67 71 32 28 36 44 48 61 57 40 39 57 54 44 62 51 43 46 67 61 59 82 82 80 75 70 65 98 94 92 98 98 94 87 87 90 83 73 65 65 74 70 69 66
75 78 83 63 73 62 20 32 41 42 60 56 58 34 49 55 69 44 42 57 59 63 64 83 74 91 89 73 61 53 98 88 93 98 93 92 83 74 53 74 71 66 66 70 74 71 66
68 77 74 64 74 62 26 24 32 37 49 56 55 56 38 41 62 71 64 56 58 60 58 65 74 79 72 67 60 87 98 98 99 97 97 98 78 76 73 71 64 69 63 58 60 63 66
60 73 69 65 78 60 63 17 23 27 39 55 52 58 52 46 62 73 82 87 84 90 89 89 92 86 84 85 91 91 99 100 99 98 99 100 84 72 79 81 60 72 68 61 57 62 72
68 74 67 66 75 63 58 60 23 20 27 46 48 53 46 57 63 66 75 78 82 89 95 88 90 84 83 81 98 97 98 100 99 99 98 96 81 72 73 76 71 75 62 56 55 57 65
73 67 72 71 62 74 62 61 62 41 19 30 50 46 56 53 52 61 67 75 89 91 92 82 80 87 94 86 90 77 85 98 97 99 87 98 93 86 85 77 78 76 63 59 58 64 67
69 59 65 70 60 58 65 70 64 58 35 23 42 48 48 56 58 53 61 64 72 72 95 72 65 81 98 99 98 98 96 98 95 97 98 86 82 93 95 79 79 90 69 62 62 67 77
59 53 64 68 60 52 52 62 67 59 52 19 26 48 48 46 57 56 59 52 70 86 77 89 99 98 100 97 95 82 77 92 93 97 99 97 93 94 91 87 88 98 72 94 89 91 87
40 50 64 55 56 42 48 48 46 44 40 48 22 42 44 46 47 48 62 51 85 99 88 89 95 99 96 98 96 98 98 97 94 91 98 97 100 99 92 89 98 98 78 68 87 98 82
30 36 44 49 41 44 41 41 37 38 33 46 20 30 49 48 47 38 41 55 76 79 85 96 95 94 82 84 84 93 99 99 99 95 80 96 99 100 99 96 98 98 84 77 80 58 70
31 37 42 42 48 41 40 39 36 40 28 36 45 24 47 41 50 47 44 53 82 81 84 95 98 93 89 77 79 93 97 96 99 90 82 85 92 99 99 100 99 94 90 90 83 97 69
32 36 39 44 44 40 39 38 29 32 31 34 47 18 43 44 56 57 54 59 71 72 74 82 86 92 84 88 82 88 80 89 94 91 89 94 86 98 99 98 97 100 98 85 77 81 90
35 40 46 49 42 37 36 37 28 25 41 36 44 24 43 53 78 62 67 62 59 59 64 66 80 85 85 82 77 79 84 85 83 84 98 99 87 99 94 94 93 99 94 95 80 78 68
40 43 50 55 44 36 36 38 29 29 36 47 52 27 42 55 94 93 68 71 70 62 62 62 64 70 82 82 84 80 83 80 78 79 82 70 82 97 99 100 98 99 89 83 80 75 68
54 50 57 56 48 48 39 39 30 29 42 50 55 29 53 62 66 94 80 85 74 72 67 62 62 60 71 83 79 79 72 68 77 75 73 70 68 71 70 65 66 80 81 96 94 86 68
51 56 62 60 45 47 45 40 34 31 36 52 58 36 44 86 71 79 86 92 96 90 79 65 63 66 78 78 72 68 76 67 65 66 69 71 68 67 75 71 67 62 72 85 91 90 82
42 54 49 49 48 49 49 39 35 35 35 44 57 46 27 56 66 67 76 99 80 98 90 77 74 73 76 76 76 76 76 71 66 65 65 67 64 68 69 63 58 52 50 62 81 82 80
39 47 48 47 51 52 46 40 37 36 38 45 59 64 40 47 68 80 91 99 87 71 79 91 78 82 77 78 79 76 80 82 85 79 75 72 66 73 77 83 84 72 39 43 41 40 42
35 50 49 54 55 46 42 41 40 40 40 44 60 64 45 34 70 83 80 95 92 68 79 73 83 88 84 90 83 73 73 81 85 89 85 94 90 88 85 92 94 50 57 54 54 51 41
46 50 54 51 50 46 41 40 45 45 46 53 66 72 46 24 40 84 79 77 75 73 79 73 80 87 84 86 83 81 78 82 78 82 85 91 83 81 81 84 59 41 47 56 58 53 53
50 55 49 50 46 38 37 40 48 51 53 60 61 75 72 41 34 25 30 63 74 71 80 84 81 88 89 89 81 72 76 74 76 90 84 90 84 88 79 76 86 89 76 70 75 71 68
52 55 52 49 40 36 39 42 49 54 56 57 59 70 76 81 67 55 26 23 42 81 87 88 95 82 87 86 82 72 72 82 85 82 92 91 89 91 76 90 72 61 69 70 91 74 82
51 56 49 40 44 46 44 48 51 57 61 61 60 66 68 74 83 84 70 32 24 39 97 98 97 97 93 93 95 78 80 72 76 78 80 74 83 81 79 87 82 62 75 71 81 89 89
37 44 47 50 42 42 43 46 49 53 60 64 69 69 72 69 75 74 81 88 42 25 41 100 96 99 99 98 96 90 78 81 77 82 80 80 66 75 68 62 63 75 71 65 65 86 91

GFSGBSN_700_rhum_054.txt.gz
RH
74 81 62 64 56 25 29 36 44 43 43 28 37 40 30 35 53 65 68 82 61 60 53 58 56 51 67 93 81 99 73 68 69 98 97 84 37 43 67 47 61 77 83 86 100 82 77
76 85 68 64 62 36 27 34 42 45 49 41 38 44 36 33 52 57 54 54 53 46 40 47 56 49 61 73 89 98 79 62 83 97 89 85 39 47 70 56 68 75 91 99 98 94 86
69 91 79 60 64 54 26 31 40 44 52 48 32 45 40 32 50 57 52 44 46 45 43 43 64 51 61 80 84 98 81 63 75 59 68 82 45 56 58 59 56 80 82 97 72 68 84
70 82 77 64 64 62 22 28 38 42 52 52 40 44 59 32 43 47 48 36 39 43 39 51 62 50 73 80 95 98 90 62 56 85 77 74 55 62 57 59 68 78 77 89 70 64 72
61 72 62 62 74 62 39 22 29 37 48 50 58 38 47 44 27 49 45 38 38 42 54 54 57 55 70 84 95 98 99 79 62 86 78 77 53 78 81 77 79 80 74 80 71 70 64
64 67 62 61 77 62 64 19 23 28 35 50 55 52 41 71 39 33 48 56 62 64 53 64 83 77 77 88 93 93 88 87 99 85 99 91 74 92 85 90 82 72 56 72 69 71 75
55 74 75 59 70 65 60 52 18 21 26 44 48 52 47 60 78 62 55 45 46 47 53 68 81 84 98 70 73 95 89 99 99 99 99 90 84 81 84 96 76 63 70 66 68 72 66
40 68 71 64 58 70 61 63 61 29 19 30 46 44 48 62 79 79 67 70 60 66 79 85 73 76 71 75 71 76 95 98 98 99 99 99 98 88 90 94 70 55 56 64 62 71 69
24 49 67 64 53 53 70 64 62 61 39 21 43 45 48 56 70 82 70 74 77 78 79 92 86 84 74 75 58 76 98 99 98 98 98 100 96 88 90 90 70 74 69 69 64 68 72
17 34 53 60 58 44 50 67 68 62 57 25 29 46 48 56 57 75 76 73 77 74 83 93 87 82 88 89 88 92 98 94 98 99 99 98 88 86 80 79 74 82 70 64 61 62 67
13 20 36 59 59 44 36 50 56 63 57 51 22 41 44 51 55 62 63 66 75 66 85 89 85 68 80 86 96 97 99 99 98 98 89 96 89 88 82 86 80 70 69 63 59 62 65
11 13 22 37 44 39 39 41 45 46 43 42 28 30 41 43 47 50 58 47 58 62 88 89 95 98 71 96 98 85 96 77 99 98 95 92 98 80 79 72 82 73 68 64 65 72 78
10 12 19 27 32 38 40 37 39 37 36 34 44 21 39 44 42 39 42 48 56 94 83 91 98 99 98 99 87 86 98 98 96 89 93 95 100 87 84 83 85 84 74 91 87 89 83
10 11 21 29 35 38 37 35 35 35 31 30 41 21 37 40 42 38 43 47 76 92 93 97 94 96 98 95 93 76 85 91 84 81 96 85 99 93 90 91 85 92 77 75 85 96 82
9 13 20 30 37 38 33 33 35 29 29 25 34 32 33 34 49 45 47 49 64 81 81 94 93 92 87 100 95 98 75 74 78 82 79 95 95 88 81 84 88 94 99 82 82 71 78
9 16 24 32 41 41 33 27 35 27 25 27 35 40 34 41 41 44 50 50 67 68 79 82 92 96 91 96 97 90 98 95 98 91 89 88 99 91 82 93 91 84 92 93 81 96 76
10 20 27 36 45 43 37 31 34 27 26 37 42 41 40 46 43 45 54 58 72 78 76 80 86 90 85 80 85 93 86 94 97 97 100 97 90 100 100 99 97 100 99 92 79 76 91
14 26 28 38 41 45 45 37 35 26 28 40 48 35 45 47 67 48 64 60 60 64 65 78 79 74 73 81 76 76 78 89 100 98 96 93 90 98 100 100 100 100 98 95 90 85 75
13 26 30 36 33 33 36 40 36 25 26 41 50 45 51 59 98 90 68 70 64 61 65 69 82 82 77 77 78 77 78 82 80 85 93 84 88 98 98 98 100 98 98 95 92 87 85
14 23 26 28 32 38 39 40 36 30 28 34 54 44 48 71 88 97 78 72 70 67 64 63 66 70 82 85 82 80 80 77 78 82 85 81 75 77 71 65 72 96 98 92 98 99 80
14 23 29 30 34 41 43 40 33 28 26 30 50 46 44 95 83 100 98 99 90 83 68 62 63 62 75 80 82 67 69 74 83 84 84 82 73 71 72 69 76 73 76 95 98 81 86
12 27 24 31 39 44 38 31 28 26 26 31 36 50 35 63 77 90 90 98 93 90 89 72 66 73 80 77 74 70 69 68 68 76 77 77 66 66 71 70 69 63 56 61 77 82 92
17 20 26 34 40 39 32 28 27 31 30 32 38 50 61 42 76 84 99 97 100 88 78 90 73 75 80 78 79 75 76 71 70 70 68 71 69 64 68 71 71 69 47 46 40 42 50
14 17 27 34 33 30 32 32 34 34 34 38 40 47 61 45 80 86 93 100 98 93 90 83 85 84 78 79 81 84 81 79 81 82 81 76 78 80 80 96 94 39 49 60 61 49 41
7 22 30 35 32 33 36 40 38 39 39 43 43 46 58 51 33 81 92 94 100 96 87 79 87 90 89 89 91 83 85 86 88 91 90 88 85 80 87 85 56 32 47 57 54 47 54
8 19 34 37 31 30 37 42 42 42 41 41 44 50 55 66 54 38 29 59 85 88 87 83 84 90 86 86 81 79 76 74 79 84 91 92 92 86 92 80 85 81 81 71 75 64 61
6 20 26 29 32 33 35 39 43 45 47 46 44 52 56 60 66 70 62 36 32 80 100 100 93 92 92 93 90 82 74 82 84 81 91 87 90 92 80 89 70 58 66 68 87 70 78
9 20 23 23 28 32 35 36 40 42 44 46 44 44 51 54 59 64 68 77 52 27 94 96 98 97 94 89 92 82 76 74 76 80 82 77 84 82 80 87 81 61 67 66 68 82 81
11 14 21 24 26 31 36 38 41 42 45 47 45 50 57 57 61 62 66 70 85 51 30 97 98 91 100 99 96 91 85 78 72 80 78 82 72 66 67 64 68 74 70 67 71 73 86

GFSGBSN_700_rhum_057.txt.gz
RH
40 59 43 40 51 59 26 29 35 39 47 46 47 38 46 23 31 41 48 55 51 40 37 43 48 48 59 68 76 90 82 89 48 54 98 83 52 48 79 66 60 60 68 96 99 84 82
39 61 44 38 46 59 44 25 31 33 39 48 54 45 50 24 28 41 46 43 40 37 36 35 48 48 46 64 70 97 81 77 49 47 98 79 60 61 100 79 85 89 93 80 95 85 83
33 60 56 45 58 57 62 21 26 28 30 46 55 52 44 30 25 40 46 39 39 35 34 40 48 46 47 81 71 94 90 74 71 97 97 87 78 73 88 87 87 96 95 95 93 95 93
31 54 69 46 55 58 58 54 18 22 25 43 48 61 46 49 29 33 40 36 38 37 40 51 48 48 62 65 75 93 100 70 61 97 98 95 76 74 79 84 78 86 97 96 81 81 96
26 36 65 54 46 64 57 61 49 27 21 30 44 51 50 72 44 32 38 49 51 62 50 49 66 53 72 73 80 98 98 82 88 98 98 97 58 74 74 69 64 92 67 89 77 65 64
13 17 43 51 47 49 64 61 60 60 30 23 48 45 56 68 60 52 39 46 58 55 60 75 72 78 84 97 94 98 100 85 83 99 98 96 64 73 71 71 91 79 54 68 78 74 75
10 10 22 45 44 42 52 66 64 65 60 21 36 45 52 63 82 59 55 54 55 68 78 80 76 82 99 85 97 97 86 87 95 96 93 97 75 73 70 74 69 72 55 74 86 70 70
9 7 11 31 45 39 40 48 58 64 63 53 23 47 50 63 73 75 70 65 74 89 84 75 66 63 68 74 83 95 81 92 100 97 100 98 81 78 90 85 78 67 67 58 80 77 71
6 6 8 19 30 40 32 42 52 50 60 50 27 36 46 61 64 78 89 75 85 90 99 82 78 82 78 78 68 96 88 93 70 99 98 94 82 89 90 81 80 75 59 56 68 73 77
5 6 8 12 20 28 36 39 42 43 46 41 44 26 45 51 60 67 84 82 71 79 86 86 75 84 82 62 74 89 98 98 98 98 100 99 88 84 82 92 84 77 74 74 69 65 78
5 6 8 12 21 30 35 33 39 39 32 41 41 22 43 45 51 50 65 74 63 62 85 79 84 79 96 97 85 93 98 100 94 98 98 98 86 82 89 92 78 77 75 74 74 68 67
5 6 7 11 16 28 36 33 36 31 34 34 36 30 39 44 44 47 42 59 62 66 87 93 98 68 86 86 82 96 98 98 99 99 92 95 96 81 90 96 86 79 77 70 65 68 80
5 6 8 12 16 22 34 31 32 33 31 32 32 38 32 39 42 43 39 50 65 75 81 91 100 71 75 88 90 99 97 98 98 98 97 96 99 92 87 82 89 83 81 89 89 90 90
5 6 8 11 14 20 34 33 26 34 28 29 25 40 25 38 42 46 49 49 62 80 99 98 91 89 92 96 97 92 98 97 90 75 99 94 99 81 78 86 88 86 91 75 86 95 81
4 5 8 8 14 17 31 37 30 33 25 30 27 39 27 40 41 43 44 47 56 75 84 97 97 87 98 95 81 68 78 87 86 77 69 81 90 84 85 75 80 90 90 76 79 75 80
4 6 6 5 13 15 27 35 35 33 22 32 36 38 34 37 39 49 47 46 59 65 80 88 91 92 88 96 98 85 70 72 73 72 69 74 85 96 91 88 93 87 84 94 83 92 84
4 6 5 5 10 14 20 22 36 32 23 26 40 44 40 38 46 50 53 54 62 74 81 86 90 98 83 82 86 91 93 82 80 84 87 85 83 99 100 97 95 99 100 96 95 77 81
4 6 5 7 11 15 21 25 34 33 24 28 41 45 46 44 58 55 64 64 67 77 80 81 90 90 87 91 91 84 76 89 94 86 86 93 90 100 99 96 84 97 84 97 97 92 79
4 6 5 7 12 18 23 30 33 31 28 28 39 49 49 50 84 89 81 71 64 61 67 76 83 86 84 82 78 79 83 81 84 88 91 84 96 96 99 94 88 97 93 92 98 94 79
4 5 6 6 17 20 27 33 31 24 24 27 34 48 49 48 58 84 80 78 72 67 65 67 69 78 82 81 77 81 87 97 94 95 98 98 92 81 77 71 77 98 99 100 100 100 88
5 4 6 8 18 23 27 25 23 23 23 30 36 44 47 60 82 98 91 91 88 76 73 68 65 66 74 86 86 82 81 84 91 94 96 93 83 78 78 78 74 79 75 88 98 95 98
6 5 5 10 19 25 22 22 22 24 25 32 36 45 44 47 67 86 99 89 98 91 86 78 71 73 80 84 78 69 59 63 76 85 88 88 80 69 67 74 75 74 72 73 70 87 99
5 5 5 13 20 20 21 24 25 25 27 34 38 42 46 48 59 83 95 91 88 100 96 80 79 81 81 80 78 78 76 76 70 70 73 84 76 71 63 65 73 71 52 54 52 49 46
4 4 6 15 18 20 20 24 29 28 30 36 38 39 42 50 55 77 96 99 99 100 92 94 93 84 84 83 82 83 81 80 78 80 76 78 75 74 72 69 88 39 51 49 50 52 52
4 4 9 13 17 18 24 30 31 28 31 35 40 41 43 51 53 62 83 96 94 97 96 95 90 92 92 91 91 88 88 85 84 82 83 83 83 78 71 88 60 31 32 50 63 54 56
3 6 9 11 11 18 22 27 28 30 31 33 37 42 46 47 51 55 42 46 87 93 98 98 93 97 91 97 98 94 81 80 84 86 94 91 96 84 86 76 85 74 83 78 69 58 88
4 6 8 9 10 14 20 25 28 31 33 34 37 39 44 46 54 55 63 60 38 30 73 88 96 98 95 92 96 89 81 78 80 80 87 93 98 96 90 86 71 56 64 69 77 74 78
4 6 8 10 13 17 20 25 28 30 33 35 37 43 48 50 55 56 59 66 72 46 35 76 96 98 99 96 95 90 79 76 79 82 84 83 86 88 85 94 83 66 69 67 70 66 66
4 7 8 9 14 16 20 25 26 24 23 25 36 47 53 51 64 67 62 63 75 83 53 49 96 99 100 96 95 94 86 80 75 77 76 84 72 71 69 62 59 69 69 72 74 75 76

GFSGBSN_700_rhum_060.txt.gz
RH
21 24 31 26 26 44 55 56 22 23 23 25 43 48 43 38 25 27 32 32 44 31 32 32 40 42 47 51 65 63 74 90 98 95 94 99 71 38 38 54 70 84 96 97 91 76 75
24 24 26 29 24 42 54 56 44 20 22 23 46 52 47 46 31 25 36 33 36 39 38 37 42 50 41 50 59 74 81 77 98 97 99 92 88 50 45 55 65 84 99 99 94 92 77
13 18 20 29 24 34 54 55 61 45 28 21 43 54 54 64 37 27 36 36 32 39 41 47 57 57 47 53 61 62 69 77 93 79 89 97 88 63 57 68 70 76 67 80 79 91 97
8 10 16 22 27 31 44 60 61 62 57 22 29 53 56 67 44 31 33 42 44 44 54 58 70 52 57 63 66 74 73 75 89 74 76 100 90 66 77 86 75 92 84 83 79 74 86
8 8 12 20 22 36 31 48 63 66 63 54 22 53 58 61 58 45 37 37 46 55 56 74 80 57 69 86 91 88 99 64 79 68 99 99 88 74 91 90 93 100 90 87 82 84 74
6 6 7 14 18 30 28 31 49 61 67 59 40 37 58 64 78 59 45 43 52 65 78 75 69 80 82 93 90 97 99 72 67 93 99 99 82 97 100 83 97 100 93 96 84 90 93
6 5 6 9 13 23 32 32 42 51 58 57 51 26 57 70 73 69 67 58 69 79 71 74 73 68 100 97 94 96 98 98 73 93 98 98 94 87 94 82 65 68 81 73 88 80 93
6 4 5 7 10 18 27 32 37 43 44 48 42 37 50 60 70 83 82 76 77 81 99 94 72 57 70 88 94 96 92 92 98 98 98 99 100 89 93 84 75 70 72 71 76 86 84
5 5 5 7 9 14 26 30 33 37 42 36 41 47 40 53 64 75 80 83 71 81 92 93 84 73 62 72 80 93 96 97 98 98 98 92 86 81 85 75 76 73 59 63 69 83 83
4 4 5 8 9 12 23 30 30 34 37 34 35 44 29 50 55 66 71 78 75 72 82 81 82 76 70 84 88 84 79 82 97 98 98 98 84 69 93 95 72 83 67 61 71 74 84
4 4 5 8 10 11 20 31 29 28 36 29 32 39 29 46 53 56 66 69 79 71 88 86 74 84 88 74 86 77 64 60 82 99 84 98 83 78 92 78 72 82 76 79 78 79 79
4 4 5 6 9 10 18 29 29 23 33 30 31 33 33 44 47 48 61 71 72 70 95 92 65 86 79 75 85 90 98 94 76 96 99 97 83 83 93 93 95 83 81 75 71 74 81
3 4 4 6 7 9 14 24 32 26 32 27 30 27 37 36 47 46 51 61 72 67 83 98 93 71 71 73 91 98 99 99 98 98 97 96 98 84 84 79 89 90 83 89 87 91 91
3 4 4 6 5 6 11 17 26 26 31 24 31 26 37 35 41 52 47 56 70 80 91 99 97 99 93 91 98 96 98 100 98 98 93 96 99 97 93 90 89 97 90 75 87 95 84
3 4 4 6 4 5 9 14 14 22 31 23 29 33 35 36 43 45 50 53 67 79 83 85 87 86 92 84 88 95 98 99 96 85 74 87 100 100 95 83 84 91 95 84 76 78 82
3 3 4 5 5 5 7 16 14 25 30 24 27 38 38 41 41 49 52 56 63 76 84 89 95 96 95 98 84 82 90 96 84 73 64 75 92 100 85 86 83 84 82 87 86 93 89
3 3 4 5 5 5 8 14 19 25 29 25 26 40 44 44 44 43 58 61 62 78 85 86 92 99 96 84 91 80 71 73 74 73 71 68 68 100 100 100 100 96 98 90 82 78 88
2 3 5 5 5 6 10 12 19 27 27 27 25 39 41 48 53 54 60 70 71 75 82 84 90 96 90 95 92 85 80 82 78 76 74 69 78 96 98 94 100 100 99 91 90 90 92
3 3 4 5 5 8 12 15 19 25 21 21 22 29 39 50 64 58 82 74 74 75 74 72 89 89 91 89 87 84 85 86 91 81 84 80 96 99 99 98 98 100 100 100 100 96 97
3 4 5 5 5 9 13 17 18 20 20 22 25 30 40 50 51 68 84 76 74 74 76 78 84 85 85 89 83 83 87 87 92 94 95 90 83 78 76 71 82 98 94 87 100 99 90
3 4 5 6 4 9 14 17 16 16 19 22 30 35 43 45 55 69 89 93 91 87 86 78 76 77 83 86 85 81 81 92 99 99 99 98 86 79 76 80 78 70 73 86 95 80 100
3 4 6 6 4 7 12 16 14 17 20 26 26 33 40 45 52 69 85 93 91 99 99 97 87 78 76 84 84 78 84 72 74 76 89 90 87 83 78 70 74 74 70 77 81 79 96
3 4 7 6 4 7 12 14 15 21 24 24 26 32 42 46 50 68 88 94 90 90 99 99 91 85 85 88 79 77 80 82 81 84 89 95 97 93 76 70 72 74 38 53 61 57 61
4 5 6 5 4 7 12 14 20 25 26 25 27 25 32 42 53 66 81 96 90 83 88 98 98 93 88 88 88 84 81 83 82 79 80 84 89 82 71 72 77 45 47 54 55 54 54
4 5 5 4 5 7 12 15 20 23 24 24 26 26 29 36 43 55 77 98 90 93 88 96 93 95 98 97 98 97 93 90 85 84 84 85 84 80 72 79 54 41 60 56 57 54 73
4 6 4 4 6 9 11 14 19 21 23 23 24 26 29 33 44 48 51 53 92 98 93 94 100 92 93 98 98 88 78 85 86 96 92 91 92 89 84 79 81 64 77 72 73 75 85
5 6 3 3 7 10 13 15 18 22 23 24 27 29 30 36 44 49 52 62 51 42 82 95 95 100 94 93 95 97 85 81 78 79 86 93 98 98 94 89 68 56 62 66 75 74 70
8 4 3 4 9 12 12 15 19 20 16 14 19 26 31 37 47 52 55 57 61 64 37 72 99 100 100 98 87 85 84 81 84 80 82 83 89 94 96 90 80 70 74 70 73 76 76
8 3 4 6 10 10 11 11 8 8 12 26 34 37 36 42 49 58 58 57 65 70 70 42 94 99 100 99 97 94 88 82 77 75 81 85 77 76 71 66 61 71 72 77 80 78 75

GFSGBSN_700_rhum_063.txt.gz
RH
7 7 6 10 20 26 33 41 51 55 53 37 22 35 41 51 41 30 29 35 34 34 32 31 38 43 45 51 61 67 63 87 98 98 98 99 87 44 57 52 70 94 97 97 100 85 79
6 7 6 9 17 23 29 33 48 58 61 60 32 25 46 51 48 36 30 36 39 34 33 35 43 44 46 44 59 62 75 81 95 96 100 98 87 61 60 68 65 80 93 83 97 94 87
9 7 7 8 14 20 30 29 34 50 58 63 59 24 48 54 63 47 33 31 45 45 46 51 45 63 41 43 48 61 66 68 84 99 97 99 90 64 58 65 69 80 98 84 88 88 92
12 7 6 7 14 14 32 26 30 34 46 60 63 48 41 54 70 58 38 35 39 47 50 53 54 51 39 50 52 60 58 66 90 98 98 100 98 76 60 72 72 80 85 90 82 90 88
19 8 6 6 11 12 23 28 31 38 39 46 60 49 30 54 67 66 50 48 50 60 68 64 51 52 59 88 74 54 57 62 77 98 98 98 98 78 64 66 78 90 73 70 74 70 68
15 10 7 6 9 11 16 28 34 36 40 35 48 46 36 52 67 75 66 62 50 50 59 61 71 77 96 98 93 86 55 58 81 96 93 99 96 83 73 82 92 90 96 99 76 76 70
19 7 7 6 7 10 15 25 33 36 35 36 36 45 43 50 61 73 77 70 74 65 61 64 76 83 98 100 98 98 70 64 94 94 89 99 97 78 78 100 87 77 87 98 78 77 79
22 7 6 6 7 8 13 22 33 30 32 33 34 36 42 39 52 68 77 73 76 79 75 81 88 87 100 97 96 92 95 93 97 88 99 98 99 85 76 99 83 85 77 94 92 84 77
16 6 5 6 6 8 13 17 30 32 28 33 29 32 41 32 47 57 74 76 71 80 86 86 79 82 92 95 94 97 92 97 92 83 99 99 98 95 99 91 77 79 60 65 58 67 84
13 5 5 6 6 8 11 16 25 32 29 28 29 30 36 31 46 54 71 70 76 70 78 79 73 96 93 100 100 89 96 94 81 86 99 99 93 92 91 90 78 79 74 62 56 68 84
36 4 4 5 6 7 7 13 20 29 30 29 27 28 32 32 43 47 54 69 70 69 89 72 84 100 100 90 97 95 77 95 97 95 99 98 94 92 84 73 77 81 71 75 69 76 82
18 3 4 4 6 7 6 9 13 21 26 30 23 27 27 32 43 46 50 66 77 70 94 72 75 100 100 88 77 89 82 83 96 97 95 86 77 74 92 94 77 76 83 86 82 80 80
23 5 4 4 5 6 6 8 12 14 21 28 22 27 27 36 38 47 48 56 71 72 86 75 83 79 83 89 75 90 86 88 83 97 98 98 90 76 92 86 90 83 82 87 86 87 82
62 13 4 4 5 5 5 7 12 14 22 26 25 26 31 32 37 43 53 54 70 88 99 96 71 89 90 94 100 99 98 99 83 81 100 99 99 95 99 93 86 79 78 72 88 92 80
80 22 4 4 4 5 5 8 13 16 20 27 25 27 37 36 39 42 50 56 71 88 96 87 76 84 91 96 96 100 95 98 97 99 86 94 100 88 100 93 77 90 93 77 70 80 78
81 44 4 3 4 5 5 9 14 17 20 25 26 30 38 38 38 44 52 61 77 84 86 93 89 92 88 97 91 98 100 93 100 96 79 77 98 100 99 98 89 89 79 84 86 93 86
98 73 4 3 4 5 5 10 15 20 24 25 27 29 39 36 44 44 57 66 80 96 93 90 91 91 98 85 92 84 93 97 93 78 70 73 77 98 100 99 94 97 92 85 78 78 83
100 85 8 3 4 5 5 10 17 23 24 22 20 27 35 39 45 59 65 77 87 96 94 93 94 85 87 87 97 90 84 95 85 80 73 67 72 98 99 94 96 91 88 93 79 86 88
100 87 18 3 4 5 5 11 18 18 19 19 22 24 32 43 48 66 75 89 87 88 84 82 97 93 87 90 88 85 88 85 82 78 78 73 81 95 100 95 98 99 97 97 96 92 85
92 90 33 3 4 5 5 11 15 18 15 16 21 24 29 43 50 60 82 90 81 75 78 76 91 94 88 87 85 82 84 89 100 97 91 85 81 76 71 71 79 89 93 98 99 95 88
95 99 43 3 4 5 4 9 13 17 15 18 21 26 31 32 48 67 87 100 95 88 81 76 74 80 89 94 94 88 82 84 96 99 100 97 90 84 82 84 82 78 75 87 97 99 99
99 100 39 3 4 5 4 6 12 13 18 21 22 24 22 39 47 64 88 94 88 96 92 95 82 66 72 81 87 79 87 77 83 87 98 95 92 84 83 78 72 67 71 74 74 73 100
100 92 40 3 5 5 5 7 9 15 20 21 22 24 25 33 43 56 85 92 89 87 93 93 94 82 69 77 83 80 79 77 70 82 86 90 86 85 82 72 66 56 38 42 44 49 63
100 99 39 4 5 5 6 6 8 15 18 23 22 24 22 25 34 50 76 92 92 89 94 93 94 92 86 85 83 79 82 85 83 76 75 80 88 90 84 72 84 48 48 44 47 48 56
99 100 23 4 5 4 5 7 8 12 16 19 20 22 24 23 29 37 57 84 95 86 95 95 92 95 96 96 93 92 94 86 81 86 86 82 87 87 81 83 60 49 58 64 60 60 79
100 99 18 4 5 4 5 8 10 12 15 17 18 21 23 23 27 34 39 54 94 100 93 91 93 96 99 99 97 93 77 86 92 97 96 97 96 96 89 80 80 73 72 71 74 80 77
100 99 17 5 5 4 5 9 10 12 14 14 12 15 21 24 31 38 40 49 49 53 86 93 91 97 95 94 91 94 86 82 82 86 88 97 97 95 95 87 70 60 62 69 81 82 84
100 99 53 6 4 5 6 10 9 9 9 13 20 26 31 34 38 45 46 48 54 61 51 57 81 93 98 98 94 88 85 84 86 77 79 78 86 94 98 96 77 81 82 83 86 83 81
100 66 23 11 5 6 9 9 7 9 16 23 25 28 35 36 40 47 50 54 57 56 66 56 74 93 98 97 92 90 85 84 79 77 83 89 83 81 74 68 65 71 76 82 88 83 82

GFSGBSN_700_rhum_066.txt.gz
RH
8 6 6 5 7 10 16 25 27 31 43 51 59 58 32 43 51 56 39 29 30 36 34 32 32 36 35 37 42 56 51 76 99 98 81 91 87 84 90 96 93 98 97 100 81 70 70
6 6 6 6 5 10 15 21 31 33 34 42 48 61 50 38 55 61 43 34 36 38 43 45 43 40 47 36 36 47 50 69 97 98 92 95 91 86 93 97 97 92 96 95 75 73 70
8 7 6 6 6 6 12 18 28 34 36 40 41 57 48 34 56 63 49 32 35 45 51 53 41 41 43 36 28 40 46 89 96 97 91 96 90 75 76 96 91 94 100 98 98 88 61
31 10 7 6 6 7 9 14 27 37 34 37 36 45 47 36 56 63 54 32 32 41 45 45 47 45 42 40 30 32 45 61 68 97 98 95 98 86 77 71 72 76 99 96 95 89 87
13 19 7 7 6 6 8 14 24 34 32 33 37 36 44 39 53 61 63 56 36 43 42 49 56 62 74 78 74 32 44 54 71 99 98 98 97 78 66 80 92 96 68 74 91 76 78
55 13 16 7 6 5 7 12 19 31 33 29 34 33 38 42 46 60 69 65 58 50 49 56 70 81 93 97 90 51 42 53 63 98 98 98 98 80 92 88 67 68 62 72 80 84 70
83 20 80 14 6 5 6 9 15 30 34 26 33 28 34 40 41 57 62 73 71 72 67 58 67 88 98 98 95 69 46 56 72 99 99 98 99 89 84 83 61 64 74 76 78 81 61
92 30 23 15 6 5 6 7 11 25 32 28 31 29 31 39 40 55 58 66 70 76 79 81 74 78 95 99 97 90 68 66 92 99 99 98 99 98 96 96 85 81 80 75 86 76 72
86 63 21 10 5 4 6 7 9 18 27 26 31 26 29 38 40 52 57 58 71 69 77 87 83 90 93 95 100 80 100 93 97 99 87 97 97 88 98 91 89 79 72 80 71 84 94
96 97 43 15 5 4 6 6 7 14 22 23 29 23 26 37 44 49 56 56 68 70 76 81 99 89 96 99 93 85 79 78 92 96 95 98 91 81 89 84 79 86 82 87 73 75 62
92 87 54 10 4 4 6 6 6 11 18 22 28 22 28 34 39 49 49 55 67 63 78 71 89 99 100 89 96 98 96 97 94 79 100 98 96 79 99 78 82 82 63 75 68 65 72
91 96 99 40 4 4 6 5 5 8 15 25 26 21 29 34 40 47 51 55 65 66 85 71 84 97 93 92 85 83 94 96 72 82 98 98 96 96 99 74 66 73 76 79 75 74 66
95 94 93 38 5 4 5 6 5 7 14 23 26 22 30 35 39 40 50 55 62 78 89 85 76 92 96 87 85 96 69 90 83 98 98 98 99 94 82 74 79 83 71 70 71 80 57
96 89 92 59 6 4 5 6 5 7 13 21 26 22 26 39 41 38 48 52 74 70 97 94 76 94 97 100 99 91 80 75 82 99 97 98 98 96 98 94 86 79 65 59 64 60 48
97 98 99 72 8 3 4 6 5 6 12 21 24 26 26 38 43 41 45 57 78 77 83 87 83 95 97 97 99 100 97 98 82 99 96 97 99 95 96 85 83 78 83 73 70 70 61
99 100 100 93 28 3 4 6 5 7 13 20 20 24 28 37 44 44 49 63 80 69 77 90 93 91 88 95 98 95 98 98 90 92 83 82 99 100 90 88 92 77 80 79 82 80 60
100 100 100 100 72 3 3 7 6 7 14 18 21 19 30 37 42 46 61 68 83 85 82 86 87 84 92 82 96 95 96 100 93 96 84 79 91 94 91 95 92 94 96 83 76 76 58
100 99 100 99 90 5 3 6 6 8 12 15 16 21 27 36 46 51 64 78 84 99 91 83 85 81 92 86 91 92 96 97 96 96 87 76 85 100 99 88 81 94 88 87 69 75 76
98 98 100 100 88 11 3 6 6 8 13 13 15 18 26 36 46 61 72 87 97 98 91 85 77 85 86 87 90 84 90 98 97 95 92 83 78 96 97 97 94 97 85 87 94 83 96
98 100 100 98 88 21 3 6 5 9 12 12 18 19 22 38 46 57 71 88 88 85 81 83 85 78 91 90 84 82 86 88 85 88 91 83 74 75 66 69 78 91 80 92 94 92 80
100 100 100 95 89 21 4 5 5 11 10 13 21 20 24 25 38 57 75 92 88 85 81 79 87 88 82 86 85 84 81 85 93 98 91 92 88 80 70 75 77 78 80 94 95 84 92
100 100 100 97 98 16 4 6 6 11 9 16 18 19 20 26 40 56 76 92 88 88 89 87 84 76 81 92 88 84 85 81 79 93 94 90 92 87 83 78 79 76 72 76 91 96 100
100 100 99 100 98 11 4 6 5 7 9 15 17 21 24 25 36 47 66 87 89 85 80 86 89 89 80 84 88 84 76 82 76 86 87 94 96 94 94 78 70 61 50 52 54 52 72
100 100 100 100 97 6 4 6 4 6 10 13 17 19 23 23 28 37 62 81 89 84 88 85 84 91 86 89 87 83 83 80 80 76 83 89 93 96 89 76 75 54 48 50 51 47 51
100 100 100 99 100 5 5 5 4 4 9 11 14 17 21 24 27 29 60 78 92 87 84 94 84 87 89 94 97 96 96 93 89 84 81 81 97 85 88 81 64 51 57 64 68 76 81
100 100 100 99 100 5 5 5 4 5 10 11 13 15 21 25 26 30 41 64 90 88 86 82 85 94 96 92 93 95 82 84 93 95 93 94 89 87 85 79 61 62 73 62 70 82 83
100 100 100 100 92 6 6 4 4 5 9 10 10 13 17 21 25 32 38 44 54 82 90 84 80 90 99 92 96 90 83 74 83 95 89 100 100 99 89 79 73 65 63 65 80 94 88
99 99 100 100 84 7 6 4 4 5 7 10 16 22 26 30 32 36 42 47 48 48 54 74 89 81 97 97 93 84 84 80 79 80 77 91 97 98 99 96 79 75 83 86 87 89 84
100 100 100 100 87 18 8 5 4 6 10 17 21 23 27 31 34 42 46 49 48 51 57 51 63 71 81 98 89 83 80 85 84 81 77 86 82 88 84 83 69 82 84 80 79 83 81

GFSGBSN_700_rhum_069.txt.gz
RH
76 67 14 8 8 5 6 11 13 21 28 30 31 34 54 47 37 52 56 36 32 30 36 40 38 35 34 35 79 42 58 58 70 89 98 75 91 88 92 96 94 98 99 93 99 96 83
99 96 51 9 8 6 6 10 14 20 26 30 31 34 41 46 38 53 57 34 30 29 29 44 42 33 42 61 27 33 50 55 83 99 98 70 87 87 80 93 94 90 94 98 98 99 90
100 87 92 25 10 7 7 8 14 20 26 27 29 34 36 45 40 52 61 44 31 33 30 27 46 46 36 61 25 26 38 51 80 98 98 68 98 99 85 83 81 99 90 99 86 86 91
100 100 92 60 36 15 8 11 12 19 26 31 26 33 33 40 40 50 62 57 38 37 38 42 38 38 34 30 28 28 38 60 65 96 99 92 97 94 91 89 93 94 89 99 93 99 91
90 100 88 87 47 22 10 8 12 17 23 31 26 30 31 36 40 46 59 64 61 51 42 47 61 66 80 58 48 56 45 52 79 95 99 98 98 90 94 95 94 99 98 98 90 92 93
100 98 83 90 43 10 11 7 12 15 20 29 27 28 30 32 39 42 55 66 65 69 61 54 70 90 94 94 90 72 39 54 88 97 99 99 96 93 94 84 69 64 76 84 79 83 91
100 89 84 82 24 43 12 7 10 13 18 24 25 29 28 30 36 44 54 66 71 71 76 83 83 86 96 98 81 58 44 66 96 96 97 98 98 94 76 67 48 50 51 50 71 95 93
97 95 87 90 96 31 11 6 8 10 16 20 21 27 25 26 34 46 48 64 72 68 78 90 89 94 99 94 76 44 48 85 96 97 97 99 94 87 76 68 60 47 53 48 71 84 79
98 99 92 89 91 31 10 5 7 9 13 17 20 25 24 26 34 41 44 62 70 72 76 91 90 94 96 95 77 56 70 98 96 97 94 98 97 97 87 80 67 54 54 56 65 81 86
100 100 100 87 73 95 49 5 6 8 10 16 20 25 23 27 36 39 44 60 70 66 89 93 80 86 94 86 92 86 94 87 99 98 94 96 98 92 81 73 62 59 59 63 70 76 60
100 100 89 92 87 92 60 6 5 8 10 17 19 24 23 31 32 36 49 55 70 64 82 75 72 78 91 91 85 89 86 97 93 98 73 96 99 94 81 73 71 70 70 78 80 68 48
97 100 99 97 84 88 45 6 5 7 10 16 17 23 24 32 32 36 49 52 69 80 88 79 85 78 99 67 82 91 85 72 78 84 94 100 98 97 89 89 84 65 80 80 73 56 60
78 100 100 98 87 87 41 6 4 7 8 15 17 21 26 33 34 35 46 52 81 96 74 82 98 86 96 78 78 100 83 77 87 95 97 96 99 88 89 85 78 74 64 60 62 70 54
67 99 100 99 91 88 69 6 4 6 8 15 18 20 27 32 34 36 45 54 98 84 96 89 94 96 98 98 96 100 100 93 70 82 98 98 98 97 97 88 76 77 53 50 54 50 41
68 98 100 100 100 96 88 8 4 6 8 15 17 19 24 30 34 40 45 71 88 87 97 100 94 95 94 99 93 100 100 97 75 93 94 92 98 96 85 85 84 74 78 72 61 52 49
80 99 100 100 99 98 100 34 4 6 7 14 16 18 22 31 32 41 43 67 74 69 78 98 82 96 98 99 99 98 84 73 84 90 98 92 93 100 90 82 83 79 74 68 79 72 42
64 97 100 100 99 99 100 84 4 6 7 13 14 14 21 31 37 42 49 59 72 74 82 100 86 84 83 98 97 100 98 85 98 95 85 96 87 94 93 91 87 82 86 76 70 63 54
68 98 100 100 100 100 100 93 4 6 8 12 14 14 20 29 40 47 62 64 72 82 88 82 86 94 82 90 97 95 93 95 93 88 88 89 98 98 90 94 85 94 82 75 62 65 58
68 98 100 100 100 100 100 90 5 6 8 11 12 14 19 30 42 55 60 76 85 94 88 87 99 88 88 91 91 100 99 92 90 94 96 82 96 98 95 91 82 83 82 86 75 84 95
94 100 100 100 100 100 100 91 6 7 9 10 12 15 19 29 39 52 58 100 97 91 82 74 92 84 81 95 84 91 98 96 94 94 88 82 88 84 65 69 76 87 82 82 82 97 74
97 98 100 100 100 100 100 87 6 8 9 10 14 17 20 24 34 45 60 97 100 89 80 72 78 96 93 88 91 97 85 88 96 93 96 92 96 76 72 65 64 74 88 85 84 81 84
100 97 100 100 100 100 100 80 6 9 10 9 12 16 21 29 30 48 68 86 94 96 88 87 83 94 95 91 94 94 80 86 87 89 92 93 90 83 77 73 76 74 74 88 85 80 81
95 100 100 100 100 99 100 82 6 10 9 9 11 17 23 25 32 46 88 95 97 85 84 93 88 82 79 90 86 77 93 94 91 92 96 96 96 92 94 81 77 70 62 64 77 86 85
89 100 100 100 100 98 100 60 9 11 8 8 10 16 21 24 27 48 59 66 85 81 99 77 82 89 78 75 83 86 79 80 81 86 97 99 99 98 96 75 79 63 51 45 62 74 69
97 94 99 100 100 100 100 26 13 11 8 7 9 15 19 23 26 29 47 69 81 85 82 85 81 83 86 86 90 95 93 88 87 79 80 100 99 99 91 76 60 61 42 51 55 78 73
89 94 99 100 100 100 94 18 8 10 7 8 10 14 18 20 23 24 36 63 86 93 85 77 88 86 94 95 97 87 80 77 92 94 86 84 97 91 82 70 54 68 63 62 64 79 90
95 100 99 100 100 100 77 14 12 9 8 8 11 12 17 20 23 25 35 54 65 84 99 76 79 86 89 95 94 80 80 74 75 79 95 98 98 93 93 79 65 69 63 61 71 90 84
100 99 100 100 100 100 60 10 11 9 9 8 9 12 17 21 24 25 33 36 54 79 98 63 78 76 84 97 97 92 77 79 74 79 92 94 91 94 90 96 76 74 73 72 96 87 78
98 99 99 100 100 100 87 12 9 9 7 9 13 19 23 26 27 32 36 39 41 45 56 60 64 64 73 83 88 96 85 77 73 71 73 78 84 93 78 96 83 85 89 85 80 77 76

GFSGBSN_700_rhum_072.txt.gz
RH
94 100 100 95 99 70 23 21 11 11 14 18 20 24 31 35 41 41 41 49 32 27 29 27 27 41 34 38 99 41 43 68 87 97 98 74 94 92 94 77 92 98 97 94 89 82 75
79 92 100 99 100 90 52 35 16 12 13 16 19 21 28 35 36 42 41 51 46 29 32 35 28 35 33 51 78 30 34 51 71 80 96 68 97 87 88 94 91 98 92 97 100 84 89
98 98 100 91 100 96 52 51 17 8 14 15 17 22 24 34 32 41 40 52 54 43 34 39 44 40 36 53 42 25 29 39 53 63 98 98 84 82 96 88 84 90 97 99 96 89 85
83 97 98 99 97 94 44 22 60 9 12 14 16 21 25 31 31 39 40 51 60 58 56 42 50 65 66 65 34 26 22 37 59 78 94 99 95 95 92 80 96 79 98 99 96 99 81
78 81 97 98 94 91 77 61 46 8 10 12 16 20 27 27 29 38 41 51 61 64 68 57 56 66 90 89 64 38 32 37 59 74 98 95 99 95 81 96 88 97 98 98 100 94 100
72 78 86 96 96 91 86 80 16 8 8 10 13 17 27 25 28 36 42 51 62 67 72 74 73 91 98 98 97 88 35 45 92 88 99 99 98 96 86 94 91 91 95 83 91 79 86
50 67 80 91 99 89 90 79 76 40 7 10 11 17 25 23 29 37 41 52 63 61 73 92 91 97 99 93 96 64 30 62 93 98 92 87 98 94 78 84 63 80 97 77 67 84 72
30 51 76 84 97 98 96 71 61 50 7 9 10 20 25 23 28 40 41 52 63 64 80 97 95 99 99 85 58 35 47 78 95 98 98 97 91 89 81 65 66 58 83 92 87 84 72
9 33 52 74 87 100 99 97 76 62 7 8 10 20 25 24 27 40 44 50 65 67 77 95 90 88 93 99 45 55 67 73 96 99 98 98 92 98 94 71 65 56 53 55 71 99 93
4 15 42 63 71 99 100 100 92 49 6 8 10 18 25 26 28 35 46 51 66 65 90 98 79 80 92 73 65 78 90 80 96 94 100 97 97 92 77 75 56 54 52 60 76 80 69
2 7 32 50 92 96 100 100 100 46 5 9 11 18 25 27 29 36 43 54 66 64 94 79 72 77 96 82 97 96 93 83 94 89 81 94 99 86 78 68 60 59 58 60 74 69 60
1 13 33 52 82 85 100 100 100 39 5 9 11 17 26 28 32 35 41 57 66 90 88 76 70 78 99 99 84 92 82 78 73 74 93 96 88 95 98 78 78 69 68 78 73 67 68
1 14 48 58 56 98 99 100 100 72 5 10 11 16 25 26 34 36 40 58 86 94 70 82 90 99 90 100 100 96 74 70 84 78 98 96 96 98 94 75 68 68 72 73 78 80 78
57 37 85 79 96 97 99 99 100 84 6 9 13 15 21 26 32 38 41 56 92 91 94 99 97 79 69 99 100 100 100 97 82 74 88 97 97 98 86 78 69 72 58 58 64 79 66
100 90 100 99 100 98 99 100 100 95 8 9 14 14 18 24 33 38 44 68 97 84 95 98 99 100 93 65 97 97 91 95 71 74 91 93 98 87 83 80 67 73 70 65 61 48 55
100 88 100 100 100 96 99 100 100 100 26 9 16 11 15 25 32 37 43 87 80 92 96 89 96 91 91 94 83 94 97 84 68 84 90 93 96 96 91 87 66 73 74 68 61 78 48
97 92 100 100 100 95 98 100 100 100 48 10 14 11 17 26 32 36 41 69 83 72 89 89 90 88 90 86 97 92 93 91 97 82 81 92 83 98 87 87 81 80 81 74 63 59 83
89 98 99 100 98 97 98 100 100 100 50 11 15 12 17 21 30 34 43 76 75 81 85 92 92 97 84 87 89 89 91 83 88 85 85 91 89 97 97 97 86 84 74 72 65 73 61
86 96 98 100 95 100 94 100 100 100 42 14 12 11 17 23 29 35 58 70 86 98 88 89 92 92 88 94 89 87 98 94 90 92 97 87 95 91 95 92 82 84 77 78 72 71 74
76 64 98 100 100 88 97 100 100 100 27 14 13 12 16 22 30 34 92 100 93 89 99 87 96 79 82 90 88 92 96 97 98 98 91 88 92 87 82 79 73 70 65 82 83 80 76
59 84 99 100 98 97 99 100 100 100 14 15 11 13 15 20 28 36 90 96 99 87 86 85 80 94 90 96 88 94 97 89 100 81 89 85 86 84 82 74 69 71 80 77 78 76 87
60 91 98 99 98 99 99 100 100 92 11 14 9 12 18 19 23 38 80 89 88 96 73 75 87 86 94 92 98 98 79 84 92 94 95 95 96 89 77 67 65 63 68 78 84 82 82
97 96 98 100 83 100 100 100 100 81 12 12 9 17 20 22 25 40 57 90 92 87 80 94 92 91 85 91 87 92 96 98 98 82 90 96 95 89 94 85 79 75 60 62 64 70 80
95 96 99 97 99 100 99 100 100 79 12 11 12 18 22 21 26 37 92 96 95 79 87 83 82 90 86 81 80 83 79 83 86 85 100 98 100 95 96 81 91 66 61 54 63 73 81
99 98 98 95 98 99 99 100 100 75 14 9 12 14 22 28 33 44 50 73 71 75 86 80 74 74 78 75 88 90 86 83 95 74 81 99 96 97 95 90 67 66 59 46 44 63 58
97 97 98 89 81 98 99 100 99 48 13 10 11 17 22 22 31 32 40 45 74 81 75 80 82 78 82 84 90 83 84 78 94 91 81 80 92 95 90 76 66 69 63 61 66 93 93
99 95 100 94 99 96 99 99 98 62 12 9 13 18 18 19 27 25 31 48 73 86 90 78 78 84 89 82 88 86 87 86 87 84 79 87 87 93 90 83 69 73 66 58 60 88 96
97 99 99 99 99 99 99 99 95 30 11 10 14 18 16 18 21 22 23 28 52 69 83 73 83 86 85 98 85 83 87 77 68 80 85 77 84 82 86 94 88 77 75 69 85 89 92
97 98 96 97 98 99 99 100 92 25 11 10 14 14 14 20 24 28 31 34 44 40 56 66 69 72 76 84 82 85 83 83 71 76 84 89 83 89 86 85 81 76 70 73 76 94 86

GFSGBSN_700_rhum_075.txt.gz
RH
85 79 90 98 95 95 93 90 78 13 18 6 8 11 15 20 26 30 37 38 50 51 39 32 36 38 30 25 27 25 33 41 79 91 93 99 96 84 91 88 93 100 98 94 98 87 77
92 84 90 94 94 88 84 85 82 62 16 6 7 11 13 18 26 28 36 38 50 55 51 51 43 45 47 36 36 31 39 32 59 93 89 98 100 97 84 82 89 96 98 97 97 94 86
56 78 89 95 97 94 89 77 87 89 28 12 7 11 14 17 25 26 35 39 52 60 61 63 53 50 63 63 42 24 25 27 43 60 96 94 95 99 96 96 88 100 99 81 100 100 92
35 49 55 76 91 94 92 82 86 89 52 66 8 11 11 19 22 25 35 43 54 63 64 70 75 62 63 72 78 43 32 26 33 44 74 98 98 88 99 92 86 86 98 100 87 100 97
28 37 41 49 85 85 99 97 90 93 48 46 17 10 10 19 19 26 35 43 53 62 64 74 86 80 88 86 94 80 52 35 60 47 81 94 87 91 98 99 99 98 92 98 99 99 99
7 26 34 50 52 60 94 100 84 98 94 73 31 10 9 18 19 28 36 40 52 62 69 77 87 98 95 94 84 92 81 37 82 84 73 91 86 97 98 99 98 97 82 81 99 95 99
2 4 14 44 77 61 75 99 97 97 99 94 32 10 11 17 20 27 38 41 52 60 72 78 96 96 97 64 60 86 35 70 100 100 88 98 97 97 85 98 84 71 76 71 79 99 99
2 2 3 17 40 86 95 99 100 85 100 99 52 10 12 17 21 28 37 43 53 61 77 78 95 81 60 38 30 44 83 98 97 98 82 89 98 89 91 96 82 79 89 92 98 84 99
1 1 1 3 21 64 98 100 98 92 99 100 72 10 13 18 21 30 34 47 55 63 72 77 88 77 54 46 50 91 94 98 99 93 88 76 92 99 93 99 83 78 80 80 98 100 99
1 1 1 2 9 52 76 99 100 98 96 100 79 10 14 20 23 30 38 45 57 62 84 94 79 85 78 70 96 84 95 98 99 100 100 91 98 99 99 93 74 69 62 61 67 92 71
2 1 1 1 4 85 70 100 100 82 84 99 86 11 14 19 24 33 34 44 58 66 97 88 92 83 82 93 82 85 85 96 97 97 88 99 99 88 90 98 81 70 70 70 69 63 76
3 3 2 1 2 61 99 99 99 94 80 98 89 11 16 22 25 35 36 46 62 86 83 88 82 88 95 88 89 77 84 76 94 98 99 94 100 90 86 82 73 74 72 84 91 83 70
70 25 18 3 2 44 100 99 98 100 68 99 90 11 16 19 27 35 38 49 75 85 71 93 91 88 91 96 80 70 73 82 84 95 100 95 90 94 87 76 72 63 65 72 77 79 76
86 89 66 58 72 32 100 99 100 100 67 100 83 12 18 18 24 36 41 54 86 82 82 98 99 82 90 91 97 78 86 75 77 78 91 96 97 85 82 75 75 72 53 60 81 89 71
91 99 86 98 87 65 100 99 100 100 74 100 79 14 20 18 25 35 43 51 86 85 88 98 100 94 80 81 91 92 86 81 76 72 72 95 91 88 78 68 69 73 72 66 56 53 65
91 95 96 94 98 81 99 98 100 94 87 100 87 17 20 20 27 36 44 70 92 93 87 88 94 94 92 81 91 86 92 93 78 80 80 87 95 94 79 64 69 73 74 62 62 71 52
83 80 92 96 95 86 98 99 99 100 87 100 89 21 19 20 28 39 41 66 86 89 89 93 94 96 96 86 89 90 87 94 73 76 81 81 76 92 92 78 68 80 78 66 57 63 86
50 58 64 90 63 89 97 100 98 100 88 100 81 22 23 19 30 34 43 60 99 86 77 84 91 90 88 84 88 83 88 88 97 86 89 88 82 94 89 85 82 69 76 69 67 67 64
49 51 48 66 70 80 97 99 92 99 95 100 66 23 23 18 27 26 52 68 89 93 85 85 87 84 91 86 88 81 95 90 84 97 92 88 87 94 96 93 88 89 73 71 68 66 68
70 69 56 56 90 90 99 100 100 99 99 100 50 25 20 20 26 29 53 78 90 98 87 81 81 89 95 87 82 81 98 99 100 98 86 84 84 84 72 76 72 78 76 73 76 76 70
65 71 49 53 87 95 97 99 100 99 99 100 34 22 14 16 17 24 70 95 90 98 98 86 81 78 89 90 84 84 98 99 100 96 91 84 88 90 89 81 80 77 63 66 81 72 73
23 39 41 88 78 92 99 98 99 99 100 100 16 24 20 17 17 31 68 96 95 96 86 79 69 87 85 96 94 90 84 100 97 97 97 88 85 82 82 75 70 66 64 62 72 79 78
18 25 35 100 87 98 100 100 99 99 100 95 18 21 19 20 22 27 33 83 92 95 88 71 86 94 93 97 97 84 93 81 87 91 92 92 83 84 84 81 82 76 60 58 56 61 61
14 17 38 97 97 98 98 98 99 99 99 33 22 24 23 21 24 27 48 84 95 91 81 83 82 84 90 92 96 99 98 93 90 83 91 93 96 95 94 94 93 64 62 61 56 61 66
19 13 37 96 96 98 97 98 98 99 88 24 32 30 29 25 26 62 82 100 92 95 84 74 79 80 85 90 92 92 88 86 84 86 96 94 96 98 92 86 73 68 64 61 46 59 75
16 12 81 98 97 98 93 94 98 99 48 28 32 33 34 28 34 42 92 90 81 86 77 80 73 78 88 87 84 82 81 79 90 87 84 99 92 97 95 87 80 68 64 53 56 69 72
19 24 96 86 89 98 98 98 100 99 40 30 31 37 32 28 32 39 49 64 74 78 74 74 77 79 82 87 87 84 80 83 84 80 73 89 99 94 94 90 70 75 70 63 60 70 71
17 69 100 96 97 98 99 98 98 99 30 24 32 33 30 27 26 30 31 48 59 64 57 61 76 81 85 91 85 84 86 83 78 79 74 68 78 80 83 92 85 75 78 74 69 67 91
27 98 97 98 90 97 97 98 98 99 92 23 33 30 28 32 30 30 32 44 66 63 57 61 61 69 81 85 86 81 85 82 71 78 84 75 65 70 70 84 83 85 82 80 81 89 97

GFSGBSN_700_rhum_078.txt.gz
RH
66 89 93 96 97 94 89 97 100 98 98 99 67 41 8 10 15 19 22 26 35 41 54 54 57 54 41 45 44 37 25 30 37 84 76 85 99 85 89 81 70 90 97 96 82 75 70
19 34 72 98 96 92 89 100 100 100 98 97 84 69 14 10 14 19 22 28 36 47 55 57 65 66 49 57 54 41 28 31 28 71 95 92 98 94 89 90 80 77 87 90 76 99 79
8 17 42 69 93 95 91 99 99 100 99 88 90 79 35 11 17 19 21 30 37 50 57 62 72 72 63 70 66 82 38 23 25 53 68 91 91 96 99 90 71 79 99 91 98 98 99
4 5 11 31 31 60 90 99 100 100 100 88 86 98 59 11 18 19 22 31 42 52 60 68 78 73 65 72 85 90 71 22 26 39 48 74 86 95 89 97 86 68 94 99 99 93 99
3 3 4 5 22 40 69 94 100 100 100 100 91 92 97 12 18 21 24 33 44 58 63 70 78 78 72 92 97 99 98 25 53 46 62 86 88 99 88 90 93 98 99 97 91 98 99
4 3 2 3 4 22 72 93 98 90 94 100 91 96 94 28 17 22 25 36 46 63 67 64 77 86 96 69 69 88 91 24 87 77 68 75 78 89 98 92 92 95 91 92 96 99 92
4 3 2 2 2 4 68 82 94 93 97 100 100 98 84 79 16 22 26 36 48 59 67 62 77 79 56 34 50 74 41 57 100 100 80 74 77 85 74 98 96 80 72 73 74 99 100
3 2 2 2 2 2 6 100 76 100 86 99 100 86 88 80 16 23 28 36 47 59 68 59 73 61 40 47 64 60 90 99 100 99 86 94 93 74 85 97 97 82 65 69 86 89 94
3 3 2 2 1 1 2 44 99 87 94 94 99 98 76 96 17 24 30 38 46 61 66 58 67 48 56 73 94 96 97 98 99 100 98 90 89 95 96 98 98 96 66 74 93 90 98
4 3 2 2 2 1 1 3 99 79 100 75 100 86 84 97 14 28 34 34 47 60 77 65 74 66 70 84 96 98 100 99 100 98 95 83 98 97 99 98 90 87 86 79 98 99 99
4 3 3 2 2 1 1 2 29 94 99 87 100 92 92 96 17 29 34 35 53 69 83 58 66 76 92 80 87 93 98 100 99 95 90 92 99 100 89 97 93 89 78 83 85 96 93
8 14 12 11 7 4 3 2 11 99 78 98 100 91 94 96 20 28 37 38 56 85 83 66 70 80 90 100 87 74 85 100 100 99 99 99 100 99 97 92 79 73 86 99 99 91 84
35 60 70 76 78 60 30 16 8 69 91 98 100 95 96 92 18 28 39 42 66 88 74 60 75 83 88 94 84 67 72 81 92 96 99 98 91 91 85 88 86 80 91 98 98 89 76
38 51 68 68 72 79 76 99 77 51 97 100 100 100 93 95 19 30 43 53 81 75 78 80 79 84 83 86 91 70 67 78 74 95 90 96 97 86 91 90 96 99 73 55 74 87 67
40 46 64 70 80 86 94 97 85 66 99 99 100 98 90 60 22 34 46 58 57 67 82 86 80 80 87 84 85 80 78 86 84 77 69 77 93 85 80 74 82 72 57 60 59 64 61
35 47 57 58 76 82 92 95 98 60 99 100 99 100 91 42 28 41 52 43 59 82 90 94 79 74 65 79 75 82 85 74 83 80 79 72 89 84 73 75 68 68 66 61 60 70 62
22 38 50 59 70 64 57 94 99 97 99 99 99 97 85 37 33 48 54 41 64 91 89 90 90 90 84 61 82 80 86 75 78 82 74 74 68 85 74 70 73 72 72 62 54 64 78
16 25 38 70 68 74 48 62 96 97 98 98 99 99 92 31 39 50 44 43 51 92 91 93 94 84 81 86 78 84 83 83 80 89 82 70 80 92 88 86 68 79 73 64 59 67 63
13 12 28 48 66 86 50 48 77 97 98 99 99 99 98 34 38 43 42 56 78 92 91 90 95 94 86 84 80 89 89 82 78 84 82 77 76 82 81 80 76 73 71 74 63 63 61
86 24 16 22 31 73 51 82 91 94 98 98 99 99 90 46 30 40 56 74 86 85 86 83 88 96 94 94 93 93 90 97 93 90 88 84 77 72 72 73 74 74 65 72 76 75 66
86 63 29 28 37 64 98 97 96 96 98 98 98 98 60 31 24 33 66 86 96 92 86 89 89 94 92 97 93 89 98 96 94 98 93 86 76 84 88 84 80 72 66 74 70 63 74
81 70 51 49 49 54 99 87 97 98 98 98 99 99 96 20 24 39 82 95 88 96 97 84 77 87 97 82 83 74 82 97 88 91 98 87 85 86 84 81 78 72 70 62 61 72 74
81 72 68 71 66 89 98 94 96 97 98 98 98 99 30 23 28 41 45 80 90 88 90 76 77 89 92 84 77 85 80 88 93 94 94 91 85 82 81 78 75 70 58 58 56 54 57
81 78 72 66 84 96 96 96 97 98 98 98 99 73 29 29 32 31 56 89 96 90 73 86 84 91 88 91 88 92 99 94 96 83 91 88 91 86 85 89 93 59 62 60 61 63 67
89 80 83 87 52 96 98 95 95 98 98 98 98 50 32 29 36 53 71 92 97 99 90 82 88 86 91 91 98 99 100 100 100 94 89 84 83 86 89 92 71 59 64 62 58 56 53
97 87 89 43 92 96 93 93 95 98 98 98 84 44 39 37 44 61 89 96 97 96 98 95 89 88 93 94 88 88 88 81 86 95 99 94 94 87 100 93 88 65 64 59 56 60 60
94 91 66 75 98 95 95 96 97 99 98 86 47 45 51 40 44 70 82 90 95 86 90 92 91 92 92 88 87 80 75 77 75 86 98 100 100 93 91 87 71 61 62 58 64 52 53
92 78 38 96 98 90 90 97 96 98 98 58 40 42 50 40 48 60 78 91 71 75 79 80 85 90 93 92 85 78 81 81 83 75 72 84 97 97 100 99 88 69 74 67 61 65 65
68 26 76 98 98 93 95 98 96 97 92 43 37 41 41 55 45 55 62 73 69 58 69 70 72 68 76 86 85 81 86 86 79 77 75 77 69 68 66 71 68 71 73 73 69 68 70

GFSGBSN_700_rhum_081.txt.gz
RH
5 6 7 10 33 68 90 91 84 100 85 100 100 92 75 99 40 12 16 20 22 33 37 45 57 57 59 62 48 55 51 32 24 39 75 97 96 98 95 82 96 93 74 57 62 100 94
4 4 4 4 6 12 45 96 93 89 94 100 97 92 88 97 94 49 17 21 24 33 41 51 62 57 64 66 64 68 79 29 20 34 72 100 89 95 85 98 83 83 78 65 70 99 100
5 4 4 3 3 4 6 25 84 98 98 100 85 100 100 80 100 65 19 22 26 35 42 60 62 53 67 73 72 81 91 44 18 32 63 97 98 96 97 90 80 84 91 84 71 100 100
7 5 4 4 3 3 3 5 33 85 95 92 100 93 100 100 98 70 21 24 27 38 49 63 55 62 67 74 90 99 97 77 24 31 50 79 91 96 91 95 86 88 96 95 98 100 100
11 9 7 4 4 4 3 2 4 46 100 73 97 91 100 100 97 80 21 24 29 40 53 58 56 63 58 56 54 72 76 72 43 73 61 77 98 98 99 92 92 98 91 87 99 95 100
11 9 8 7 5 4 3 3 2 4 59 100 69 91 99 100 89 82 27 25 32 40 56 51 57 51 48 30 44 85 70 35 68 93 91 93 94 97 96 91 93 99 86 95 98 97 97
10 8 6 6 5 4 3 2 2 2 10 53 95 96 100 100 100 80 33 28 35 38 57 48 42 38 45 50 38 29 28 70 95 94 97 96 79 88 100 88 96 99 74 99 100 100 96
9 7 5 5 4 4 4 3 2 2 2 19 85 98 100 100 99 94 42 33 32 36 57 52 43 43 66 73 76 61 83 100 97 98 100 96 78 80 78 91 98 99 92 99 98 94 98
11 10 9 8 9 6 6 4 3 2 2 8 48 99 99 100 99 86 41 33 33 42 56 57 55 56 71 85 98 98 98 99 96 98 97 95 58 63 68 89 88 99 76 83 77 95 89
10 9 7 5 4 4 4 4 2 2 2 6 61 93 100 100 99 88 52 39 33 47 70 51 54 58 60 76 95 98 93 92 97 98 94 96 88 71 72 85 96 94 75 64 65 84 98
7 6 6 5 8 6 5 5 5 4 3 5 52 83 99 100 100 91 55 40 36 51 84 53 60 60 63 75 99 100 99 100 98 95 93 95 99 92 99 99 100 99 92 71 72 78 98
9 9 9 11 11 13 14 13 10 15 9 8 49 85 100 99 100 89 37 43 38 65 80 60 63 68 67 75 88 95 98 98 99 94 86 99 95 100 97 96 91 100 95 87 70 94 98
10 12 12 14 14 14 16 34 49 49 52 17 34 85 99 99 99 95 38 52 40 84 56 55 67 70 67 78 81 90 92 100 96 99 98 99 99 100 99 98 98 93 80 98 97 92 95
13 14 17 17 18 26 39 55 55 76 86 72 41 100 98 99 100 97 40 52 54 57 58 55 66 70 75 77 71 74 87 91 91 92 90 97 97 97 100 99 98 99 85 73 90 86 68
19 20 23 20 17 36 46 59 63 71 76 93 98 98 99 100 99 62 48 41 34 42 55 62 75 69 65 71 74 80 91 97 88 76 74 82 96 95 98 97 99 98 77 60 60 66 66
23 30 34 27 11 34 48 53 71 96 98 61 98 99 98 100 99 78 53 30 37 52 70 63 63 66 67 62 68 75 80 83 80 76 67 74 90 87 90 94 91 72 64 60 53 73 62
27 41 63 57 14 31 48 69 86 94 96 97 96 98 98 100 99 97 57 28 41 63 81 65 82 75 69 60 66 74 62 73 78 77 68 66 71 84 76 75 72 72 61 55 56 62 72
22 64 89 86 70 36 47 44 81 94 95 97 97 97 97 98 99 100 67 27 45 86 90 79 84 90 73 77 72 78 78 70 78 84 76 69 70 86 78 73 75 68 67 60 54 64 64
38 76 93 88 80 57 46 51 77 88 90 95 97 97 98 98 97 96 51 29 55 94 92 90 83 87 88 76 69 69 76 78 80 82 79 68 73 86 80 75 66 70 73 68 60 57 58
77 80 90 90 80 63 51 74 90 90 92 97 98 98 98 97 98 87 31 36 66 97 96 91 91 85 85 83 91 90 88 88 89 93 82 73 68 62 73 66 72 65 58 73 73 64 59
88 88 89 85 80 67 57 86 97 97 97 98 96 97 92 95 96 59 42 50 99 100 98 97 100 80 85 86 84 87 88 95 96 93 88 77 74 78 74 79 75 73 68 63 64 68 71
96 90 88 83 83 78 78 92 100 96 97 95 97 97 98 98 70 78 51 43 92 100 98 96 85 96 76 88 72 77 78 94 81 89 93 86 79 83 87 86 83 78 80 76 74 72 68
95 89 84 84 81 90 91 97 100 91 96 98 97 96 97 97 34 53 41 48 94 100 99 86 87 91 87 88 83 84 89 92 96 92 95 94 83 88 83 77 74 68 61 66 62 55 54
91 86 86 80 86 88 96 99 98 87 97 98 98 97 97 66 34 30 47 62 86 88 86 86 93 85 92 93 87 92 94 95 91 98 96 92 87 83 81 76 88 66 61 56 54 56 60
91 89 80 86 88 97 100 85 90 97 96 97 97 97 90 78 46 61 80 87 90 89 89 90 94 100 93 81 89 95 96 91 96 92 96 98 92 82 82 92 71 55 58 59 57 56 55
96 88 83 84 95 97 97 96 94 96 98 95 97 97 59 63 48 70 99 99 92 91 93 89 97 99 94 98 96 88 90 89 89 96 94 97 100 95 99 90 86 61 58 58 58 55 46
91 78 88 94 96 98 97 94 96 97 93 96 98 91 60 54 53 67 100 98 99 96 90 92 98 98 97 94 96 87 77 77 70 89 93 94 96 98 99 93 72 59 59 59 63 46 44
30 42 73 53 98 100 99 92 95 95 96 97 97 94 50 45 55 74 96 100 100 98 86 87 94 98 96 97 92 76 72 72 74 73 74 84 89 95 99 86 83 57 62 61 53 57 62
23 35 24 86 93 97 83 86 97 96 93 97 96 66 46 46 65 90 97 94 90 89 91 84 86 89 93 91 83 78 77 79 76 76 73 81 71 73 67 63 62 61 60 63 67 66 65

GFSGBSN_700_rhum_084.txt.gz
RH
11 9 8 7 6 4 3 3 4 25 45 74 79 99 100 100 100 100 96 53 21 24 30 37 40 47 54 55 59 65 64 64 45 23 25 74 98 98 99 66 57 96 98 96 72 68 50
18 14 12 9 7 5 4 3 3 3 6 45 74 87 98 96 100 100 100 46 21 25 34 40 48 56 53 60 67 74 69 83 41 20 27 82 97 99 97 82 87 97 98 96 81 71 94
19 17 15 12 8 6 5 4 3 3 3 8 47 59 74 86 98 100 98 54 24 26 38 43 53 57 55 65 76 79 79 93 74 22 28 66 98 97 90 78 65 98 92 98 92 71 96
18 17 16 14 12 9 6 5 4 3 3 3 8 63 76 78 93 100 99 78 26 31 40 47 55 52 52 40 36 51 63 80 82 34 32 51 95 97 98 74 77 82 100 100 89 84 83
19 17 15 13 12 10 8 6 4 4 3 2 3 22 68 88 69 97 99 76 28 34 41 49 52 48 43 37 27 64 81 55 80 47 70 57 95 98 98 98 99 82 99 99 96 84 86
22 20 18 14 11 9 7 6 5 4 3 2 2 4 61 75 93 99 98 98 34 38 46 50 52 48 50 58 45 21 47 56 52 91 89 99 99 98 91 97 96 97 98 93 83 86 93
24 23 21 17 14 12 10 8 6 5 4 3 2 6 23 52 93 97 99 97 40 43 38 50 49 42 58 74 80 44 31 77 98 98 95 96 100 97 98 94 95 88 89 88 92 99 97
29 26 23 20 16 12 11 10 9 7 6 4 3 3 14 76 88 100 100 98 44 44 49 55 51 46 61 88 96 81 85 93 92 96 94 99 91 89 96 98 91 75 80 93 98 98 99
34 30 26 22 17 10 7 6 5 5 5 5 4 4 41 76 90 99 100 98 45 59 56 58 53 54 64 82 98 93 86 89 88 94 97 98 81 66 72 79 96 81 67 72 83 93 93
39 33 27 15 8 7 7 8 8 7 6 5 7 11 28 62 93 100 100 94 61 57 58 63 50 54 61 73 100 95 87 84 85 94 96 100 94 58 74 87 85 100 96 68 69 71 96
45 36 24 11 7 10 12 14 13 10 10 8 8 17 36 93 98 100 100 91 58 67 88 58 52 54 67 83 88 99 98 98 97 92 97 100 100 72 66 69 93 99 99 77 67 68 78
47 25 10 4 10 14 16 19 20 17 14 11 12 31 63 100 100 100 100 92 64 74 79 55 52 58 67 87 88 96 99 99 99 96 97 99 98 98 94 98 97 100 94 75 85 86 98
38 12 7 11 17 19 26 21 19 27 25 34 15 67 100 100 100 100 100 92 75 87 43 56 48 55 63 75 86 91 91 92 97 98 93 99 100 96 100 98 98 98 96 98 96 96 97
21 6 6 22 37 32 37 17 13 27 40 57 43 69 100 98 100 99 98 93 77 38 57 50 45 56 63 70 74 83 98 100 96 98 87 93 97 99 99 97 98 94 85 87 89 88 93
24 15 47 80 90 75 80 67 17 37 51 91 98 76 99 100 100 99 98 95 37 30 41 50 49 57 69 67 73 89 95 93 83 75 74 88 98 98 99 99 91 88 74 61 63 65 68
49 83 65 24 65 88 91 85 41 51 86 96 96 98 98 98 100 98 97 87 47 43 42 55 43 53 59 61 68 83 92 86 82 70 66 81 96 94 100 98 96 84 64 58 48 73 61
24 78 78 80 77 92 97 85 61 77 92 96 97 98 91 100 98 97 96 85 69 50 48 57 52 54 60 56 69 78 80 82 82 79 73 70 76 97 88 95 86 79 64 53 58 60 73
12 31 89 61 85 91 94 76 61 78 96 96 96 97 100 98 96 96 91 93 68 62 57 65 69 70 59 59 63 72 79 77 77 74 66 61 74 82 86 85 78 70 61 52 46 67 60
27 78 75 82 88 87 92 69 67 87 96 93 96 96 98 98 97 98 97 95 82 84 62 68 78 83 81 63 66 64 70 71 76 70 70 67 75 86 74 69 74 70 60 58 55 52 57
43 94 89 87 83 83 85 73 77 84 97 98 97 98 98 98 99 99 97 95 88 83 77 72 91 88 87 80 68 57 55 62 66 70 75 72 67 63 70 66 72 66 62 58 60 54 54
42 88 88 92 79 84 87 87 88 95 98 98 96 96 95 94 97 98 96 84 75 80 97 80 86 82 80 84 93 82 79 76 78 77 87 77 68 67 80 84 77 73 66 60 64 60 58
57 90 88 85 86 90 86 90 94 99 96 98 98 98 97 88 96 96 96 82 92 84 86 98 80 86 86 76 71 62 70 71 68 89 96 87 82 83 82 79 76 74 75 70 67 64 62
63 100 89 86 80 86 90 95 92 94 98 98 91 78 96 97 96 97 96 83 99 98 94 91 95 91 94 92 85 83 85 87 84 87 83 86 86 88 85 81 76 65 60 60 58 55 58
42 99 93 91 91 85 94 92 94 84 99 99 99 92 94 94 97 84 100 92 97 97 92 93 92 93 84 90 90 83 89 92 91 92 98 98 93 86 79 73 80 59 59 54 55 58 60
35 68 87 82 94 94 91 95 96 96 96 86 95 94 95 95 88 55 86 84 100 95 96 91 90 94 94 93 90 87 89 86 95 100 98 96 90 92 81 78 64 56 59 58 59 55 54
22 21 22 65 89 95 96 100 97 96 92 95 92 92 96 98 52 72 86 100 94 95 97 95 92 87 99 98 94 84 88 90 88 97 98 98 100 91 95 86 81 60 61 63 63 58 51
20 21 18 36 61 96 100 97 95 92 93 97 96 96 97 82 62 68 99 93 95 93 94 97 92 95 97 96 92 88 79 81 78 90 96 96 94 91 88 89 70 62 61 62 58 50 49
20 22 17 34 93 97 92 94 100 98 94 97 91 93 84 66 62 78 99 96 92 96 94 95 95 97 96 99 97 88 77 75 73 71 74 83 82 82 90 83 76 52 57 62 57 57 61
21 22 20 74 82 94 94 95 91 91 93 94 96 96 72 74 73 87 100 95 95 94 98 96 94 90 95 86 86 85 74 76 73 68 66 68 70 68 59 58 54 56 50 51 59 66 66

GFSGBSN_700_rhum_087.txt.gz
RH
23 21 20 19 18 17 16 14 11 8 5 3 4 14 70 71 84 94 87 93 100 97 26 27 40 48 44 55 57 63 69 81 71 69 45 24 35 87 94 88 93 70 36 55 97 87 91
23 22 20 20 18 16 15 13 10 8 8 6 4 5 24 56 47 77 82 100 99 93 26 28 42 54 54 57 51 49 70 80 81 76 31 24 50 89 99 89 99 95 53 74 99 95 85
27 25 23 22 21 19 17 14 11 9 6 5 4 4 4 21 61 97 98 97 96 90 32 30 43 60 51 54 27 24 37 48 67 80 69 25 47 90 91 97 91 88 86 53 97 96 83
31 29 28 26 24 23 21 19 16 12 8 5 3 3 3 5 67 76 100 99 100 100 74 31 52 56 47 39 41 26 37 72 62 87 71 29 45 58 96 98 98 100 94 96 97 92 93
37 35 34 31 29 27 24 22 20 17 14 11 7 4 3 5 54 82 94 96 100 99 66 35 55 64 43 58 62 19 27 44 50 83 40 58 51 84 98 98 95 85 81 92 89 86 76
42 41 39 37 34 31 28 26 22 18 15 12 10 7 5 3 35 97 100 100 100 100 66 41 57 64 49 72 77 40 17 36 54 41 69 97 93 99 100 95 98 86 95 98 90 77 83
48 46 45 43 40 36 32 28 22 13 8 8 7 6 6 6 12 63 99 100 100 90 45 39 54 54 49 82 88 71 56 67 79 94 91 91 100 96 95 90 100 78 67 84 86 82 75
54 52 50 49 43 36 28 21 14 10 7 7 7 8 8 71 100 68 100 100 98 88 41 36 63 55 58 79 86 93 88 94 97 86 82 97 92 94 98 99 99 78 67 98 99 91 85
59 57 55 51 46 37 22 9 7 7 7 9 10 11 12 62 99 100 99 100 98 77 47 45 68 55 62 71 86 89 86 92 75 92 93 96 93 99 90 98 99 84 69 92 93 93 99
64 62 61 56 44 22 6 7 10 13 15 14 13 14 16 31 64 93 98 99 99 82 60 61 58 53 62 75 85 96 86 76 78 89 91 91 99 90 93 96 94 100 88 83 87 68 73
69 66 61 51 14 7 13 19 18 19 21 19 16 16 21 31 75 97 100 99 94 75 82 58 58 58 74 82 84 96 100 92 98 97 97 85 98 99 84 91 98 87 89 80 81 62 59
73 67 64 21 23 33 43 92 78 68 46 27 24 18 36 96 79 98 99 98 96 78 91 56 60 64 74 86 93 98 99 98 100 98 95 98 98 96 92 97 100 94 93 89 74 65 84
75 74 42 24 53 29 70 75 80 80 66 53 60 25 29 70 73 99 98 98 96 72 46 59 55 67 69 85 86 89 91 93 98 94 98 98 98 99 98 98 97 97 92 98 89 89 94
76 73 18 72 100 88 56 82 91 80 51 38 46 49 47 62 98 100 98 100 96 43 44 52 58 74 64 76 79 84 86 96 98 96 95 97 98 99 91 93 94 90 81 84 89 92 92
82 58 9 52 98 89 69 96 87 72 64 94 96 94 70 49 95 100 97 96 74 59 40 49 70 72 66 66 70 85 93 88 89 80 81 90 98 100 99 92 96 81 72 66 68 71 69
91 27 15 42 58 77 82 94 82 73 85 96 96 97 100 87 100 98 98 96 88 66 45 60 56 62 56 60 74 86 94 86 87 80 77 83 92 99 95 95 78 71 66 63 52 71 71
95 15 28 44 86 90 94 87 84 73 94 96 95 96 94 98 93 98 98 94 97 84 84 67 58 53 50 54 67 78 83 84 83 74 77 76 79 98 98 96 72 70 68 59 59 58 68
96 15 40 59 90 90 93 83 82 73 93 95 92 96 97 98 98 98 97 100 98 93 100 83 75 50 44 52 57 67 84 82 78 68 63 67 88 90 90 84 78 70 64 55 46 62 56
92 17 54 63 91 87 84 88 78 80 96 86 87 96 97 98 98 98 100 98 97 92 100 86 79 62 48 52 51 61 76 83 85 75 64 61 76 82 81 76 71 65 64 56 47 50 56
56 28 64 84 92 80 85 86 79 88 94 94 84 95 98 98 98 96 98 96 96 94 100 96 79 76 63 60 56 54 71 73 80 75 66 61 64 59 68 71 72 68 62 55 54 45 48
12 47 57 93 94 82 86 82 82 93 96 88 73 96 98 95 98 97 96 96 96 98 100 96 95 80 74 77 72 70 73 70 76 72 73 66 67 67 76 80 75 68 60 57 57 52 48
29 62 74 86 93 92 84 84 94 94 92 91 82 95 93 95 95 97 95 96 91 100 98 97 92 85 82 70 73 66 64 63 64 78 79 74 82 77 71 72 74 71 69 68 63 59 60
52 58 72 79 81 89 84 95 97 95 91 91 99 96 97 97 96 96 95 96 86 92 94 89 87 80 92 86 84 80 83 76 73 77 78 80 80 81 81 74 66 60 63 67 61 58 57
57 42 47 80 67 93 89 94 83 86 86 76 78 91 97 92 95 96 99 97 98 95 96 96 96 92 89 89 86 81 86 93 87 83 83 86 85 81 75 68 74 61 61 58 57 56 60
58 29 21 34 99 75 88 79 82 78 64 70 84 85 96 98 96 93 98 100 95 92 98 93 94 100 97 89 91 91 92 90 88 99 97 94 90 80 82 70 61 53 54 52 51 51 51
53 24 19 22 73 96 88 88 91 86 91 90 92 94 95 92 91 58 75 100 91 98 96 96 99 96 99 100 87 81 80 87 88 97 95 99 93 86 82 84 72 57 54 54 56 51 45
48 18 16 40 90 93 93 99 94 79 76 88 93 86 90 95 97 67 70 90 88 96 97 98 96 96 95 96 89 78 77 83 85 88 94 89 91 87 82 82 70 62 62 59 54 46 38
39 14 28 70 91 97 90 87 81 77 82 86 87 87 90 72 66 84 98 92 90 90 90 95 95 96 82 99 95 80 79 75 75 77 81 86 86 90 85 83 71 52 56 54 55 52 52
33 12 43 75 87 80 69 78 80 78 83 81 92 91 79 64 58 79 97 95 96 94 95 92 90 86 91 89 81 86 78 76 72 67 67 70 70 63 52 47 47 48 46 47 48 52 58

GFSGBSN_700_rhum_090.txt.gz
RH
31 31 31 30 28 26 25 23 22 21 19 13 8 6 6 5 8 100 63 92 98 100 82 91 44 24 29 34 47 52 44 38 50 60 70 72 46 30 33 59 95 100 94 100 88 79 89
37 36 35 34 33 32 30 28 27 24 22 20 14 7 5 4 11 61 38 85 100 97 98 88 86 32 33 42 36 33 21 24 48 74 75 79 31 37 79 75 98 93 89 82 100 47 62
40 41 40 40 40 39 36 34 32 29 27 24 21 15 8 4 4 9 33 100 100 99 90 92 85 33 31 47 33 38 25 25 45 61 63 90 52 42 70 75 82 98 97 96 97 52 54
46 47 47 46 45 43 42 41 38 36 32 27 24 20 14 10 5 13 82 83 99 90 99 99 65 41 39 46 47 59 23 21 40 89 68 95 56 48 71 69 92 98 100 100 69 78 89
52 52 50 50 51 49 48 45 43 40 32 27 20 13 13 10 7 17 68 98 100 100 88 81 71 42 44 43 59 73 35 20 42 52 82 70 84 91 96 97 98 98 93 96 70 97 99
55 55 56 57 57 55 52 50 44 39 29 23 12 10 8 7 6 29 60 93 100 93 69 85 52 46 48 47 77 82 46 21 38 55 48 82 97 96 98 99 80 95 88 61 77 84 99
60 63 64 65 62 59 56 51 35 19 13 12 12 10 10 18 90 70 65 73 80 99 66 71 48 40 53 49 79 84 80 73 91 87 90 95 94 95 98 92 96 82 83 97 93 79 85
68 68 70 68 62 67 50 28 13 11 14 15 14 15 14 14 100 99 98 100 99 99 93 74 45 49 60 59 74 89 89 97 98 97 94 91 90 99 97 96 88 98 89 99 88 86 90
74 74 73 66 63 56 20 25 29 59 34 23 19 20 18 14 50 94 98 97 96 98 67 76 57 55 64 62 77 79 86 89 82 85 88 95 94 98 96 96 99 98 81 87 97 98 86
84 87 84 71 65 47 47 65 87 92 82 72 52 28 20 17 18 58 92 99 98 65 82 57 54 58 56 66 89 95 84 79 78 82 92 95 92 93 98 98 99 100 99 87 87 98 84
92 82 72 72 38 79 100 79 63 81 79 82 65 57 37 26 18 90 92 71 98 97 93 63 69 66 60 89 88 95 97 89 90 93 96 82 92 91 93 99 99 100 97 97 83 94 89
80 78 79 76 15 69 95 87 78 74 81 76 82 73 48 45 22 82 98 100 98 98 84 66 74 60 73 96 92 95 98 100 98 100 97 96 97 98 96 93 95 87 87 96 83 88 81
95 93 96 86 16 30 74 80 80 77 82 82 69 70 68 69 24 82 97 98 97 96 57 66 70 63 86 90 92 88 99 96 98 96 100 95 99 99 98 99 100 97 93 84 77 80 89
96 97 97 77 26 62 84 84 80 84 81 78 90 97 96 71 21 87 98 98 100 72 57 71 60 68 95 86 84 88 94 98 98 97 98 98 98 96 98 98 98 92 83 76 71 70 81
96 97 96 43 43 67 86 85 84 80 80 80 95 95 97 72 19 64 98 97 96 52 58 70 77 88 79 79 74 93 96 97 91 95 98 99 98 97 98 98 94 88 87 70 71 70 55
97 98 96 26 55 76 86 84 80 82 77 93 91 96 100 46 22 86 98 97 82 89 66 82 77 77 82 68 78 91 90 85 89 88 86 93 97 96 94 89 82 77 62 70 62 60 63
100 97 84 27 54 69 80 75 82 78 81 97 95 97 100 69 79 98 97 96 90 83 81 91 66 62 62 59 77 82 82 80 78 83 79 76 82 88 84 88 80 73 76 60 61 63 47
99 97 32 51 53 78 76 80 78 73 88 96 96 96 94 97 99 98 97 96 95 96 85 91 74 60 58 55 72 73 85 85 77 70 72 73 83 96 89 80 74 69 56 54 52 57 54
100 63 33 51 73 82 82 86 74 81 88 93 96 97 98 95 97 97 100 95 96 94 94 95 82 66 58 56 63 77 79 80 79 70 64 63 73 84 72 70 71 65 59 53 46 46 61
59 18 60 49 79 83 82 75 76 93 86 82 93 97 97 97 94 96 95 94 97 91 96 94 96 83 59 56 49 72 72 76 75 69 63 64 61 58 61 72 69 68 59 48 44 51 48
14 57 56 48 75 76 78 66 73 88 80 70 81 97 94 97 95 93 94 96 96 98 92 91 94 92 62 57 55 58 66 66 67 69 67 65 72 64 66 72 70 60 62 51 51 49 57
36 61 31 37 65 78 70 67 76 67 72 72 82 92 94 93 87 92 95 95 96 94 92 88 97 94 81 66 60 50 49 56 56 59 61 57 74 78 81 75 68 65 61 52 51 51 52
52 52 20 19 47 65 78 72 69 59 64 67 64 83 91 96 97 97 94 94 94 98 90 86 98 83 82 81 69 70 64 56 58 61 61 58 62 65 71 64 60 61 63 57 56 58 56
49 32 16 30 67 71 66 62 59 50 54 71 71 67 80 90 94 97 94 93 99 96 87 88 98 94 92 82 80 79 85 81 76 64 63 58 59 62 65 51 62 61 55 54 54 56 55
43 14 23 68 69 56 60 63 59 46 59 76 74 78 90 100 93 75 99 93 86 90 94 98 96 95 95 95 88 96 90 84 93 87 81 72 77 73 81 70 56 52 50 49 50 48 46
29 13 39 66 77 71 70 66 62 55 71 76 90 86 88 91 91 60 100 96 88 92 94 97 96 98 96 98 83 91 80 86 91 98 96 92 88 81 73 76 55 54 52 52 53 57 47
21 17 38 56 72 74 80 71 69 69 70 73 76 78 83 78 70 57 75 76 99 98 83 83 100 98 99 90 85 78 76 76 87 90 97 94 91 91 82 77 66 55 52 54 50 45 36
20 15 35 36 64 64 62 64 66 69 73 70 70 80 69 58 62 65 78 77 87 97 90 97 97 98 96 96 92 74 73 74 72 73 79 93 87 86 80 83 72 48 56 52 50 47 47
22 12 38 48 54 61 64 63 58 63 71 58 69 79 66 52 54 75 87 80 82 85 87 86 85 90 74 86 84 77 72 74 69 73 67 77 72 76 64 66 45 45 45 46 48 48 50

GFSGBSN_700_rhum_093.txt.gz
RH
43 42 41 40 40 41 42 42 42 40 37 34 30 27 23 17 8 5 12 86 100 98 71 97 87 84 83 40 30 30 36 26 15 18 33 55 66 97 97 89 82 96 93 94 94 99 86
46 46 47 47 47 47 47 48 47 44 42 40 37 33 29 22 15 6 16 79 100 99 88 90 94 84 83 34 43 40 31 30 18 24 35 55 69 87 95 75 100 99 90 90 98 100 90
54 54 52 52 52 52 51 51 49 47 45 43 40 37 34 29 19 11 9 75 100 89 99 98 90 96 69 49 46 38 46 43 17 27 36 54 68 80 99 100 99 100 98 100 95 99 96
60 62 60 57 56 56 55 54 50 49 48 46 42 39 31 27 20 12 9 10 77 49 98 83 98 84 62 48 44 40 60 42 15 33 36 55 53 89 94 98 69 100 99 91 89 96 93
66 70 66 64 64 64 61 56 52 47 44 36 30 20 13 10 12 11 8 24 82 94 99 99 90 83 66 47 43 54 71 46 14 31 40 50 79 82 98 95 99 97 96 96 84 89 98
78 75 70 73 73 68 62 57 48 55 30 12 9 9 9 9 17 46 71 79 100 70 92 81 79 91 59 50 44 68 78 53 23 20 41 46 82 90 88 98 94 96 99 89 80 94 100
83 76 79 72 64 59 55 49 33 26 65 93 95 26 16 12 99 99 100 98 81 99 99 97 83 63 58 47 49 76 80 80 76 73 67 97 97 94 97 99 99 96 99 93 91 80 98
85 75 75 70 69 70 60 31 55 56 81 90 85 80 26 17 69 100 98 100 97 82 86 94 95 85 59 57 56 75 89 94 85 85 93 99 95 97 93 97 96 98 96 83 98 95 98
77 78 82 89 80 83 51 20 92 91 69 87 87 85 61 24 16 55 93 98 97 97 84 89 79 71 64 64 65 92 87 85 84 99 100 99 96 98 96 99 99 93 91 97 97 88 89
85 96 98 97 99 95 51 22 82 94 85 81 85 80 66 48 19 15 40 99 98 100 97 99 78 79 62 67 78 94 75 72 84 91 99 99 91 96 96 98 93 98 93 98 96 100 87
99 98 98 98 98 94 44 62 91 88 79 82 96 90 75 60 36 21 59 75 98 94 95 100 73 69 66 78 93 95 88 83 95 99 97 97 95 100 99 98 94 94 96 98 89 98 99
98 98 98 97 96 86 60 89 86 81 80 92 92 87 79 61 43 31 95 100 99 97 92 94 79 73 78 89 88 87 95 98 98 98 100 86 90 90 79 86 86 93 97 91 96 93 95
97 98 97 97 96 68 91 90 81 78 85 89 87 91 93 86 47 78 94 98 97 97 95 89 79 86 99 94 96 90 93 98 97 99 98 94 98 98 98 98 80 81 99 93 98 89 77
98 98 98 97 90 80 96 82 70 75 85 81 80 90 88 80 60 49 97 97 97 94 94 97 98 96 100 100 100 98 100 98 96 98 98 98 98 98 92 98 97 99 94 90 86 78 62
98 97 98 97 41 40 62 66 68 83 81 82 95 97 92 70 58 28 98 96 98 98 83 100 100 94 98 99 92 98 97 98 97 96 98 98 98 98 98 94 83 89 80 71 68 55 51
98 96 96 38 43 51 68 68 79 77 90 96 97 99 87 38 20 64 99 97 98 100 89 96 83 77 72 85 94 97 98 88 100 93 93 94 97 92 85 77 78 82 62 76 70 76 60
98 77 27 55 43 70 74 77 77 84 95 97 84 83 75 29 22 94 97 98 98 98 94 96 85 75 69 78 88 84 90 79 81 82 77 81 87 89 86 91 94 84 70 63 59 57 48
100 26 59 35 56 70 75 79 72 93 97 80 86 99 67 45 77 97 97 93 97 95 88 80 79 76 74 80 81 85 93 95 72 67 89 77 90 93 90 70 65 77 75 63 54 46 52
52 52 42 26 56 61 64 59 61 76 94 72 92 85 96 92 96 96 97 88 96 96 88 92 96 74 71 81 78 95 90 75 65 62 62 68 77 78 71 69 68 79 75 70 59 61 57
27 46 17 27 58 63 60 52 57 62 81 79 84 97 97 87 85 89 90 90 97 91 90 90 86 68 74 76 67 83 83 72 68 61 61 61 73 83 73 89 78 83 75 54 52 55 50
40 18 18 25 32 38 44 48 59 47 54 58 62 80 79 93 88 87 89 92 92 95 76 84 80 86 79 76 78 89 77 64 60 56 52 63 64 65 73 67 67 69 72 64 52 52 55
27 24 58 42 31 37 40 52 58 53 47 51 54 65 67 75 78 82 93 93 95 91 97 93 97 88 83 80 84 73 70 72 70 56 54 54 61 59 58 62 58 67 64 59 47 58 62
17 46 55 31 34 36 31 33 50 54 51 53 57 63 66 80 82 83 90 97 97 79 82 90 96 89 92 66 66 43 42 39 39 80 69 54 56 67 71 54 56 56 55 60 57 49 58
18 47 44 41 37 37 39 27 41 52 52 49 53 62 66 82 81 84 82 92 97 88 97 96 87 98 83 79 72 60 57 54 49 61 61 71 59 57 75 56 71 50 51 51 52 52 50
13 37 52 50 57 60 45 36 33 47 51 47 48 60 60 76 64 77 84 75 79 86 81 97 95 95 92 85 93 87 82 79 70 64 62 83 82 80 80 54 51 44 47 46 43 48 47
12 18 44 54 59 61 62 56 47 53 62 60 57 57 64 59 47 64 85 88 92 84 94 92 90 97 95 94 88 77 66 84 78 89 67 66 82 78 74 67 42 63 46 44 45 54 44
12 12 27 40 53 54 58 63 54 53 62 67 60 57 49 51 45 62 72 90 82 78 96 86 95 98 81 95 84 72 77 64 72 75 85 89 84 82 70 68 60 47 45 42 46 56 37
8 14 16 40 48 51 56 60 61 64 68 67 60 46 34 45 51 48 61 74 81 71 90 84 91 88 92 88 91 82 69 81 68 72 88 82 74 73 70 70 63 45 48 54 53 40 37
7 12 11 29 39 45 55 58 59 66 65 65 54 33 34 46 52 69 74 74 81 76 85 84 91 82 80 87 80 77 79 67 76 61 64 77 77 69 74 66 52 42 42 38 37 36 37

GFSGBSN_700_rhum_096.txt.gz
RH
53 52 54 58 59 59 57 56 54 53 50 48 46 43 40 38 34 27 18 10 31 86 99 87 92 79 84 89 80 51 39 39 30 23 17 28 44 78 92 93 88 88 86 80 84 82 72
61 61 65 66 66 64 64 63 60 57 52 47 44 44 43 41 37 32 21 13 18 90 100 99 96 79 75 89 79 48 50 38 38 32 18 32 52 93 79 66 70 54 48 50 69 79 77
65 65 70 72 69 70 66 60 52 46 41 38 37 36 34 38 39 34 27 13 77 39 89 99 87 78 71 95 72 57 46 41 52 24 19 50 97 77 67 83 75 61 65 66 55 58 60
70 78 84 78 78 68 55 53 50 46 39 35 30 25 20 18 22 27 22 17 15 100 99 100 91 97 62 73 66 49 42 54 62 22 28 68 95 68 64 65 53 82 91 84 51 69 64
85 93 90 84 77 72 64 61 58 51 40 25 18 22 18 12 7 10 16 16 10 81 99 95 68 74 89 75 65 48 45 69 61 19 37 81 96 78 59 68 88 93 93 95 86 79 89
94 88 83 82 84 90 90 89 73 49 34 25 20 41 66 22 7 63 98 99 67 56 86 93 97 99 89 74 47 46 65 79 60 24 39 62 83 48 62 87 98 88 98 96 98 82 90
97 100 93 100 100 100 100 100 90 46 77 95 60 58 78 43 12 84 100 98 99 100 98 99 84 96 79 54 49 52 77 82 75 76 75 56 86 57 68 85 87 91 99 100 84 90 99
98 98 98 98 98 97 98 95 82 61 77 83 86 62 74 64 21 19 90 97 97 97 98 92 98 98 91 84 61 58 78 86 85 91 100 100 88 65 93 99 94 96 100 98 86 89 93
98 98 98 98 97 97 97 95 92 85 88 87 78 68 64 60 48 43 63 97 97 98 85 89 100 100 97 70 70 78 85 81 100 100 99 99 83 99 99 91 98 98 99 95 98 91 95
97 98 97 97 98 97 95 91 88 90 85 77 82 86 74 61 60 52 37 78 96 98 98 96 97 94 89 73 74 74 100 96 100 89 88 93 84 93 97 90 98 98 93 98 94 99 98
97 98 98 95 98 96 92 91 88 86 86 90 88 78 75 66 50 51 36 89 96 97 97 99 95 94 77 78 96 95 94 98 99 96 100 92 96 98 96 95 98 92 96 95 86 99 99
98 98 96 95 98 81 82 87 83 82 81 84 81 77 91 96 54 70 52 97 82 98 98 98 95 96 78 95 94 88 94 89 91 98 97 90 96 93 88 89 82 95 95 88 89 98 99
98 95 38 36 48 72 61 68 74 80 80 79 78 86 90 83 67 62 63 99 97 97 97 98 94 90 79 87 99 91 92 90 98 98 98 86 94 97 100 96 80 88 98 98 98 99 98
98 49 42 42 35 55 65 82 82 80 79 83 83 77 67 71 61 65 97 98 94 98 98 100 79 86 98 90 97 99 97 98 98 93 99 98 98 99 100 99 100 84 95 99 96 97 97
88 31 29 20 40 49 65 82 79 80 96 96 99 90 69 56 54 54 83 92 97 96 96 95 97 96 98 95 95 94 97 98 98 100 99 99 98 100 99 93 88 87 94 85 94 76 84
27 34 17 21 37 50 52 58 94 97 93 83 63 61 47 32 24 76 89 97 98 97 97 98 84 95 84 88 95 98 98 98 97 95 97 98 98 95 92 89 87 85 82 86 72 96 91
26 23 23 26 32 37 43 72 95 77 69 62 33 17 23 23 47 75 96 97 96 87 81 87 76 81 77 92 98 96 93 80 85 86 91 93 98 93 90 72 77 76 72 64 62 51 86
40 20 21 23 30 42 65 85 64 58 37 18 15 22 29 64 84 91 96 97 95 83 74 80 88 76 76 87 85 88 90 84 70 76 91 89 89 86 77 69 77 79 72 65 60 58 56
31 16 18 23 32 45 56 60 59 60 53 20 16 40 53 60 94 81 97 87 90 80 73 88 92 72 74 76 84 89 77 68 61 57 70 72 73 84 77 78 69 75 61 58 60 55 51
21 12 14 21 34 34 40 46 43 49 51 39 37 56 62 71 81 97 100 85 88 88 82 86 88 67 73 79 81 87 67 64 60 59 60 63 68 80 88 72 74 73 60 52 51 61 64
24 13 15 21 37 34 30 33 38 38 40 44 48 59 62 71 78 85 84 87 93 76 83 95 84 77 76 71 80 78 60 65 63 54 50 63 66 67 68 71 63 61 61 55 54 53 67
32 13 17 20 28 35 40 41 38 34 41 43 41 51 59 62 72 86 88 94 74 88 94 94 84 86 78 75 77 79 78 78 52 60 50 56 59 68 66 60 62 53 72 58 59 58 64
26 33 18 34 22 22 32 44 38 34 44 50 50 53 57 68 69 84 94 89 80 88 91 87 90 89 60 57 71 52 46 35 34 41 53 55 61 60 69 53 65 57 55 62 61 60 66
9 33 44 51 52 31 23 32 45 40 42 49 55 59 59 60 75 77 91 88 100 86 91 77 80 79 70 58 88 71 47 39 33 32 42 66 50 48 54 63 81 54 53 54 51 55 66
6 12 31 42 50 53 45 34 37 52 44 46 51 58 57 42 57 81 84 77 72 73 78 83 76 80 82 84 88 81 75 73 51 40 39 40 64 68 78 58 50 56 48 47 60 53 56
8 7 11 26 37 48 56 39 45 54 50 53 58 56 34 40 47 83 93 91 82 75 80 70 78 72 72 74 84 77 80 75 74 78 49 50 60 66 62 67 54 57 44 45 46 58 46
11 6 8 13 27 45 55 50 45 56 61 60 58 49 31 28 57 71 73 84 77 84 76 74 80 73 75 81 83 73 74 55 73 71 68 76 62 78 70 68 62 53 45 42 47 56 37
11 7 8 10 21 37 55 50 46 56 68 65 53 35 30 30 50 54 59 78 81 75 81 68 78 79 78 77 90 84 70 77 59 68 56 73 72 72 70 69 69 47 50 47 52 45 38
10 10 6 10 12 27 43 53 48 54 66 67 48 30 35 35 42 52 65 79 88 77 75 76 88 71 73 76 79 75 81 73 72 65 67 56 59 70 62 68 59 39 44 42 42 37 34

GFSGBSN_700_rhum_099.txt.gz
RH
72 74 74 82 88 80 73 67 53 46 43 41 38 37 35 34 34 39 42 47 34 10 37 99 99 100 82 89 58 64 71 56 42 34 27 22 20 29 40 44 69 88 62 89 84 77 51
81 83 89 92 90 83 76 73 70 63 55 48 42 36 29 29 29 30 38 38 37 30 37 99 97 99 98 91 67 53 75 54 45 36 40 20 25 56 76 58 67 57 63 53 52 33 30
97 92 90 88 90 85 92 90 94 82 69 60 48 38 29 20 17 15 22 34 34 24 21 84 100 99 99 98 74 83 72 55 40 52 41 20 48 62 73 52 60 63 47 30 28 44 61
98 98 98 98 96 87 97 99 99 99 92 71 48 33 24 19 16 12 10 19 31 27 29 31 99 97 98 93 82 74 62 48 44 63 46 25 50 83 82 60 57 65 74 66 45 70 72
91 99 98 98 98 98 98 98 98 98 94 69 40 38 33 32 23 15 9 41 27 18 67 86 78 96 99 86 78 76 65 48 63 64 28 36 55 92 92 98 92 99 83 71 60 66 91
97 98 96 96 97 98 97 97 97 97 93 76 62 55 75 58 47 26 41 98 99 86 82 99 98 99 86 83 77 61 47 64 74 61 40 65 92 83 85 100 98 74 86 84 78 58 89
99 93 97 97 97 92 93 97 96 94 96 84 88 78 74 58 64 47 25 98 98 86 56 98 94 78 91 77 64 54 61 79 83 73 72 66 68 38 72 82 86 95 98 91 76 62 94
96 97 97 83 60 67 100 98 96 95 92 88 85 67 66 65 68 67 31 86 97 97 88 86 98 99 92 66 62 55 69 81 93 100 100 98 70 70 84 93 100 100 96 84 75 72 99
99 97 68 39 40 84 94 93 90 88 82 82 77 78 69 74 71 67 53 94 96 97 97 96 98 98 95 93 77 68 85 100 99 100 97 90 75 93 100 95 99 97 86 77 97 94 84
98 100 45 23 41 70 75 82 80 78 78 76 80 75 74 66 67 59 36 90 96 97 96 99 98 98 89 86 86 100 99 99 100 99 100 99 97 92 96 97 98 96 99 100 97 100 98
100 83 18 20 71 78 70 84 86 87 86 83 77 79 88 81 56 41 24 44 95 97 96 99 100 98 92 85 97 94 97 96 98 100 98 97 91 99 98 96 99 95 100 95 99 99 99
71 24 18 26 43 79 87 89 85 84 85 85 84 83 85 60 35 29 52 34 93 96 97 98 96 99 84 100 98 86 95 95 94 92 94 87 91 95 82 81 86 86 80 84 98 100 99
21 17 19 27 39 56 75 91 90 97 95 81 68 49 58 33 27 36 69 58 86 96 98 97 98 92 83 91 98 91 98 94 96 99 98 100 99 99 97 95 91 88 89 98 97 99 98
12 16 23 30 39 48 81 89 89 87 93 76 49 38 48 24 59 51 60 88 96 98 95 94 85 87 96 90 88 97 99 99 99 97 97 97 99 98 97 94 97 94 95 98 96 97 98
11 16 28 43 57 68 64 88 94 88 47 40 20 23 24 43 66 68 80 94 98 97 93 90 98 98 94 98 99 99 98 98 100 96 96 99 98 96 89 90 94 97 98 99 98 99 97
10 15 26 44 59 49 28 24 20 20 14 16 11 30 57 66 78 86 89 98 99 96 97 97 97 92 86 97 97 97 98 98 93 94 98 97 98 89 85 89 87 77 84 95 90 96 97
12 11 22 39 46 50 24 17 13 13 12 21 36 51 66 65 77 73 87 95 88 83 86 93 95 93 88 94 97 97 99 89 84 91 100 98 88 76 71 79 76 73 70 78 74 73 88
12 13 16 30 41 41 29 17 14 17 27 31 36 50 65 66 69 76 81 79 74 78 77 79 85 78 86 88 87 82 82 77 73 91 96 87 89 82 76 72 67 66 62 61 61 61 67
10 12 16 24 31 38 38 21 18 16 25 32 35 46 58 61 98 85 86 80 83 81 61 59 70 69 72 76 83 78 70 68 67 65 77 76 73 82 74 68 48 56 53 51 58 66 74
11 11 13 22 29 30 34 36 38 32 32 37 34 45 55 62 81 93 83 84 94 72 65 66 76 73 80 79 80 66 65 67 62 62 58 55 70 73 79 73 71 62 56 51 55 73 78
28 16 12 14 19 33 41 35 30 33 37 43 43 48 58 68 77 80 79 82 85 87 82 76 76 65 71 77 77 66 69 66 60 59 54 55 63 67 71 70 70 66 61 56 54 56 56
8 35 29 15 19 23 34 40 29 36 37 40 47 54 57 67 76 74 79 75 78 93 90 86 80 78 62 61 78 70 63 49 53 53 48 58 70 64 63 61 57 50 59 67 68 64 68
6 10 32 31 27 23 23 28 39 37 43 47 52 62 62 64 70 77 74 74 96 97 92 88 82 63 55 54 52 53 40 31 30 38 41 45 48 61 53 60 61 48 57 64 68 69 69
11 6 9 28 39 46 38 27 32 42 39 48 53 59 58 51 66 73 76 64 78 89 90 83 80 57 60 48 51 60 54 45 36 29 30 36 38 38 52 67 72 55 58 62 62 69 69
35 7 6 8 24 38 49 34 27 42 43 42 46 57 51 39 64 76 70 70 76 79 76 80 70 60 60 53 65 77 72 58 43 38 34 33 35 43 56 58 49 48 50 53 51 51 54
52 9 6 6 11 30 49 44 31 36 44 50 51 58 38 38 59 78 75 60 63 79 78 68 64 62 58 60 69 71 67 49 55 50 46 42 41 47 50 59 55 52 43 46 46 45 40
54 18 7 6 8 24 41 50 47 42 47 52 54 39 33 33 53 58 64 59 59 66 71 73 71 60 58 69 66 72 72 59 61 55 47 40 53 65 72 69 61 57 46 47 52 50 37
53 33 8 5 6 14 29 45 49 54 53 54 44 28 27 30 45 47 49 57 67 64 66 68 69 65 64 69 75 77 62 65 54 58 58 46 58 66 73 68 64 48 49 48 50 44 39
56 42 10 7 5 7 14 39 51 54 57 57 51 30 26 27 31 42 48 56 62 70 67 66 73 73 69 73 76 75 72 67 60 56 55 52 45 66 59 61 58 48 37 44 47 41 38

GFSGBSN_700_rhum_102.txt.gz
RH
99 97 94 94 97 86 92 94 97 95 96 95 93 89 67 39 33 34 35 41 49 66 56 27 66 99 99 93 94 82 52 66 69 47 41 29 24 21 20 22 30 34 30 36 38 31 23
96 93 94 98 98 98 98 99 98 98 99 100 96 74 55 43 31 24 24 28 35 40 58 31 43 98 98 98 100 87 62 70 63 49 35 34 30 22 24 25 38 41 43 36 33 26 36
91 93 95 96 98 98 97 98 97 98 98 98 98 86 58 40 32 24 19 16 19 34 35 41 66 83 79 98 99 97 81 76 60 45 40 44 27 23 33 40 52 46 38 35 26 36 54
93 95 93 87 96 65 47 69 97 97 97 98 97 91 52 49 26 20 16 15 11 24 33 40 88 87 94 97 98 94 83 69 54 42 50 55 30 27 41 54 52 52 57 42 42 56 71
92 84 80 95 46 22 29 89 96 96 97 96 97 78 88 89 49 30 20 14 10 22 30 50 83 100 99 97 98 97 89 70 54 45 62 53 31 41 69 78 92 80 82 72 59 63 69
69 72 92 67 20 38 59 80 96 93 96 95 95 95 94 81 71 49 34 47 87 80 78 77 100 94 97 87 96 100 92 68 48 67 62 45 52 58 67 95 78 66 82 88 92 64 85
99 100 27 17 30 61 68 89 88 92 95 95 88 82 68 67 64 53 49 79 100 85 98 99 96 88 93 95 100 90 69 67 66 73 68 72 82 43 57 79 84 92 94 89 85 63 100
17 17 16 24 37 59 65 73 71 76 74 70 72 71 70 69 66 58 46 23 96 96 95 98 96 96 98 96 70 72 72 70 72 85 100 92 60 78 88 96 96 100 98 92 73 78 100
11 14 20 27 42 71 75 77 80 73 68 72 69 64 64 59 59 51 38 46 96 98 95 98 99 98 92 92 75 63 69 93 93 99 94 91 85 94 96 96 100 96 100 94 93 97 89
14 21 35 39 43 80 85 87 84 84 79 69 63 66 70 48 48 42 41 93 97 92 97 98 98 97 96 96 84 97 100 98 99 96 92 96 96 90 89 76 89 97 76 86 94 99 98
11 16 36 49 60 86 86 90 90 94 93 70 69 63 45 35 28 20 44 86 97 92 96 98 97 97 96 85 83 85 100 96 94 97 92 88 92 95 94 93 95 86 98 98 96 99 99
9 13 29 34 39 77 88 86 88 82 69 50 48 31 27 21 29 47 82 98 96 90 97 95 95 97 91 99 100 93 99 100 99 100 94 84 95 99 80 77 87 89 92 83 88 99 98
10 11 25 29 19 26 35 54 32 29 28 25 17 13 20 29 48 78 90 91 90 95 95 93 95 91 100 99 92 100 98 99 98 97 99 98 95 92 94 92 98 100 100 93 97 98 96
11 12 18 30 15 14 9 8 10 9 9 10 13 28 51 58 80 96 97 96 94 100 98 90 82 93 93 88 96 93 98 98 99 100 99 100 97 90 87 89 96 99 99 98 96 97 98
13 13 13 26 16 14 15 12 14 10 18 28 38 50 62 67 78 83 92 96 96 99 92 81 94 100 97 99 98 96 99 100 98 98 94 99 94 85 90 94 100 99 98 98 98 98 98
10 13 12 16 20 14 14 16 18 36 40 46 57 65 71 78 78 66 76 97 98 97 99 99 98 94 97 95 95 94 100 96 98 96 98 98 95 83 88 84 86 92 97 98 94 96 97
9 11 15 13 17 12 14 19 24 32 49 53 49 47 59 64 66 62 86 96 90 86 90 94 83 91 94 95 96 100 87 82 91 96 95 96 97 80 75 73 73 86 96 97 95 89 97
24 10 12 15 18 17 11 13 21 33 39 44 41 44 57 55 57 64 75 84 86 82 84 81 84 88 86 84 87 80 78 70 88 95 84 88 90 76 67 58 63 74 88 92 76 78 75
10 29 13 12 20 18 18 27 27 24 40 43 40 42 48 51 57 64 73 77 72 72 70 76 78 78 79 79 74 72 72 69 70 76 78 76 78 84 68 58 58 71 71 57 70 67 80
5 14 24 14 19 24 22 17 25 36 42 43 44 44 50 55 62 65 65 68 69 68 72 72 79 88 78 67 69 71 74 68 66 67 63 62 70 74 78 79 81 73 59 66 62 68 92
18 5 17 23 20 21 22 17 19 27 38 42 49 52 54 66 68 74 71 76 72 70 69 69 73 71 69 73 67 66 67 59 54 58 54 56 62 66 66 65 68 71 65 52 58 68 90
47 10 4 14 26 33 37 28 22 28 36 48 54 59 58 68 68 77 77 86 74 66 66 68 64 65 69 53 60 57 55 39 44 42 50 53 55 57 58 56 53 61 66 62 57 63 77
58 32 6 4 8 27 34 40 30 25 26 37 49 59 53 65 68 65 60 66 75 72 70 66 51 49 51 50 43 43 51 44 35 38 36 38 44 52 49 56 57 46 58 74 72 70 67
62 54 13 5 4 13 30 38 30 28 32 33 39 46 48 45 72 69 60 60 50 66 70 64 54 48 42 35 37 38 49 49 40 33 32 35 35 37 56 58 56 53 57 63 67 68 64
70 56 31 7 5 7 25 33 33 31 37 39 44 53 43 28 61 72 66 59 63 66 69 66 56 50 42 41 41 43 38 36 38 33 28 30 35 38 52 48 44 48 50 52 55 65 67
84 58 48 12 5 6 21 34 33 38 43 44 36 24 27 38 54 63 63 61 67 62 66 64 61 55 47 44 44 47 44 39 34 29 30 28 30 35 40 56 53 54 45 48 50 42 48
94 66 52 25 7 5 8 23 34 38 46 52 37 18 16 34 49 51 53 56 59 65 63 65 65 60 52 51 50 50 51 49 44 41 37 32 33 39 47 53 45 48 44 42 45 38 38
98 74 58 40 12 6 6 11 30 39 42 46 43 24 17 18 37 46 38 45 47 53 65 64 61 60 59 55 57 62 58 53 48 43 42 47 41 51 65 66 51 44 43 38 34 40 38
100 86 63 48 16 7 8 8 20 37 44 50 49 39 31 29 24 30 35 35 39 53 59 72 64 65 63 67 74 79 78 71 62 55 51 50 44 54 52 53 49 50 42 37 42 46 42

GFSGBSN_700_rhum_105.txt.gz
RH
86 89 85 82 74 70 58 54 52 64 97 98 98 97 90 97 90 62 60 44 52 78 89 78 63 58 54 100 99 80 67 70 61 43 50 40 37 32 24 21 20 20 18 18 18 17 16
72 50 32 18 15 30 20 22 16 44 87 97 98 98 91 91 92 70 48 25 29 37 62 66 39 68 74 84 99 97 98 82 62 66 51 42 33 29 26 23 23 24 23 22 19 15 16
12 13 17 18 18 25 42 64 89 94 98 97 97 97 94 81 84 63 35 24 18 24 39 51 84 100 80 98 95 98 98 86 74 60 50 39 37 33 28 29 35 30 27 24 18 20 29
10 18 29 33 29 44 53 68 92 88 97 97 97 97 92 72 52 44 43 27 20 13 28 33 56 84 99 98 93 95 98 96 74 61 46 45 49 40 31 36 46 42 37 28 25 39 47
9 14 31 40 43 59 55 52 70 87 82 85 92 94 90 84 61 55 36 27 18 13 19 35 99 96 99 96 78 95 96 90 71 59 47 50 61 46 38 40 45 48 48 50 40 45 57
8 10 18 28 53 72 74 66 53 54 58 69 74 72 69 64 64 63 44 26 22 50 32 63 99 99 100 83 98 98 95 84 72 56 57 66 55 44 39 53 52 63 80 70 61 52 81
7 7 12 13 47 76 76 70 59 58 52 54 53 54 54 52 53 48 35 30 70 99 100 96 98 99 92 90 94 97 94 83 62 66 72 70 64 43 61 71 82 87 92 88 56 64 100
7 8 10 8 22 73 76 69 72 70 53 52 56 61 62 46 48 50 41 43 89 98 97 99 93 97 98 91 85 99 91 81 89 89 81 78 58 75 73 73 87 100 99 77 54 70 96
7 9 8 7 6 39 90 85 84 84 66 59 60 54 40 40 49 51 38 30 95 93 96 95 95 98 88 97 82 59 73 99 99 100 92 80 90 94 91 89 93 94 99 73 84 78 80
6 8 9 10 6 7 62 83 64 52 39 44 44 34 33 36 46 86 99 37 94 92 89 98 98 97 94 96 86 96 99 98 94 89 92 83 82 71 86 85 91 94 70 96 98 100 98
7 6 9 14 8 6 7 12 20 20 21 19 19 23 29 61 62 67 90 70 90 76 91 96 98 93 96 96 95 99 98 97 87 94 94 86 94 95 96 97 100 94 100 98 96 99 100
7 6 6 12 18 8 7 7 8 13 14 12 18 34 54 77 86 99 93 95 95 88 97 97 98 97 97 95 94 95 99 100 95 97 97 88 92 97 82 88 92 91 90 90 86 100 98
9 8 5 9 17 21 10 10 12 12 16 24 34 50 69 76 80 90 94 88 86 93 96 97 96 98 95 97 97 99 93 90 94 99 96 97 97 96 90 88 86 85 95 94 92 99 96
10 10 8 6 12 21 27 21 26 34 46 55 63 69 72 80 87 82 74 75 87 98 98 95 95 99 98 92 95 95 97 97 96 97 98 97 87 84 86 87 91 100 100 98 96 97 97
20 10 11 9 8 10 21 32 35 45 50 52 59 66 65 71 73 73 74 83 90 93 90 86 94 98 98 98 98 98 98 99 95 98 99 98 91 82 86 92 99 98 98 98 98 98 98
16 28 12 14 12 14 9 20 29 43 42 45 54 56 64 67 68 66 69 86 94 90 96 95 96 95 99 100 99 98 98 93 99 98 100 99 90 81 87 89 90 98 99 98 97 97 96
7 20 27 14 21 19 18 14 13 25 33 38 41 47 62 69 60 57 75 99 98 95 87 95 94 96 97 95 96 97 90 87 96 96 94 100 92 69 75 76 83 92 97 98 98 98 97
41 6 21 23 20 21 20 17 22 20 21 32 34 44 49 61 48 62 85 92 90 82 80 85 85 84 86 88 89 82 82 81 95 94 90 85 80 78 56 63 78 90 92 95 98 92 88
53 23 6 15 25 26 27 22 20 22 28 35 45 46 53 54 52 58 70 79 80 77 72 74 77 77 78 81 76 75 80 80 78 75 81 77 80 81 69 60 80 80 75 70 79 76 83
67 48 12 5 6 25 38 42 32 28 33 37 45 47 58 57 55 60 56 60 69 72 71 77 87 81 68 65 66 74 73 70 67 70 68 66 69 73 76 79 81 77 64 66 73 74 98
84 59 34 8 5 7 26 36 44 32 33 35 42 48 59 62 56 57 55 66 59 62 59 64 70 66 58 58 53 54 50 59 59 64 60 59 58 62 66 67 70 74 76 69 74 84 98
75 78 54 18 5 5 14 33 38 28 33 34 34 43 45 62 67 64 56 62 59 60 60 55 56 57 57 46 38 30 32 37 44 46 52 54 52 55 51 53 55 61 60 64 69 69 73
63 84 65 40 7 4 10 32 28 28 37 42 37 26 28 63 62 68 66 59 61 64 64 59 52 48 52 43 32 31 34 31 32 35 37 38 40 44 45 50 54 47 56 56 61 62 62
57 73 79 57 18 4 7 27 33 32 37 46 42 21 17 36 62 54 51 53 55 56 61 62 48 49 46 41 37 34 30 32 32 29 29 28 30 33 40 40 48 44 50 61 66 60 52
52 61 87 63 42 7 4 16 34 36 37 39 37 21 15 20 38 52 47 46 45 51 53 52 48 48 41 44 42 37 36 33 32 30 27 26 26 28 39 46 33 42 46 51 55 54 53
51 58 80 75 55 18 5 5 22 40 40 38 30 16 18 22 19 30 40 46 47 45 47 51 53 54 48 42 41 46 36 35 31 31 35 29 27 29 31 51 45 35 34 44 48 42 44
52 56 71 87 61 39 8 4 9 32 45 41 39 23 15 23 20 18 24 28 37 56 53 49 49 49 48 46 47 44 45 48 43 36 35 34 32 36 46 42 29 40 45 35 40 28 35
55 68 64 90 72 52 14 6 6 19 39 46 43 39 26 19 22 25 19 19 24 34 46 58 55 48 44 48 53 59 55 50 47 48 43 43 41 38 49 53 43 42 55 42 34 34 40
67 76 74 86 89 60 22 8 6 10 25 41 49 46 43 39 38 26 28 27 25 24 28 42 53 58 58 51 60 67 73 70 62 62 49 50 48 51 53 41 44 48 48 44 40 38 40

GFSGBSN_700_rhum_108.txt.gz
RH
7 7 5 8 35 40 37 43 76 93 88 61 95 97 97 98 96 98 84 86 93 94 97 95 85 28 61 96 99 94 73 82 78 63 47 38 31 31 34 32 29 25 23 21 18 17 16
8 6 4 6 34 49 48 42 54 90 97 97 97 98 96 82 93 97 86 64 57 40 60 80 82 85 99 98 96 97 84 91 67 52 50 55 45 38 33 27 26 25 22 21 20 20 17
8 5 5 7 25 41 50 50 42 62 85 95 97 97 96 95 81 85 93 65 39 20 29 43 69 66 93 98 98 98 98 98 88 72 63 51 43 37 34 30 28 26 26 26 23 16 13
8 5 6 6 13 34 45 49 42 37 50 84 75 82 79 86 71 63 82 63 31 21 19 39 78 96 98 98 98 96 98 97 85 68 58 48 41 40 38 33 31 30 29 23 17 16 23
9 6 5 6 7 24 54 55 46 29 35 43 47 53 61 67 58 53 46 78 50 19 13 34 99 100 98 99 99 86 98 97 82 69 55 46 45 49 44 40 34 32 28 25 22 31 43
10 10 5 5 6 9 37 54 49 29 29 38 39 40 43 36 50 58 50 50 62 34 19 47 52 88 85 97 98 89 97 93 73 64 56 50 54 56 49 42 41 37 41 40 42 45 66
9 11 9 6 6 7 9 13 25 28 28 34 43 51 48 44 36 46 44 42 54 52 97 100 95 97 82 96 97 94 95 87 76 67 56 58 57 56 47 42 51 54 69 68 43 56 86
7 11 11 12 10 6 7 8 10 12 16 20 26 30 45 49 42 40 36 43 74 80 99 100 98 96 98 100 90 100 98 90 70 61 69 64 65 56 50 51 53 68 78 50 51 66 93
10 8 13 13 15 14 8 8 9 10 14 20 25 31 37 55 31 35 30 88 80 97 94 100 88 93 99 99 99 96 93 77 76 70 84 64 68 79 72 76 80 79 85 65 81 86 80
12 8 11 17 17 25 25 24 29 35 40 40 48 70 59 85 59 24 65 78 93 89 81 99 96 100 100 96 86 85 86 87 84 89 90 63 72 62 70 84 100 98 77 88 98 100 98
11 13 8 15 18 24 30 37 40 48 56 64 77 91 92 93 64 39 62 66 72 71 88 94 97 88 95 97 88 88 87 93 88 90 88 72 81 92 94 96 99 96 95 97 94 100 100
21 12 18 9 20 24 30 40 47 58 58 62 65 71 78 85 62 63 68 68 80 66 96 99 97 96 98 94 91 82 87 90 91 89 85 82 92 96 82 88 95 96 93 86 96 100 98
12 20 15 17 10 20 28 36 39 39 51 57 61 69 72 67 75 87 79 72 66 89 95 98 97 95 94 95 92 93 94 80 87 93 88 91 88 98 97 98 89 83 98 94 90 100 93
16 19 15 20 17 12 21 28 32 33 39 49 65 62 62 70 71 72 73 71 86 99 100 92 94 98 93 93 92 92 92 98 96 99 93 96 80 82 86 92 96 99 100 98 96 99 92
55 9 23 20 24 20 19 16 19 30 33 38 54 57 62 67 64 62 69 80 92 90 91 91 94 97 99 98 96 96 100 96 92 91 97 98 91 87 95 96 98 98 99 100 98 99 99
61 50 8 22 28 26 21 20 24 27 32 36 41 56 54 69 65 55 56 81 81 80 85 92 96 93 91 90 97 98 98 96 98 98 99 98 96 76 88 90 92 97 97 98 97 97 96
70 58 40 6 9 35 40 26 21 25 34 42 38 45 50 59 62 54 85 99 99 96 93 96 93 90 90 86 94 94 93 92 97 100 99 99 100 70 82 76 98 98 97 98 98 98 97
68 67 56 26 5 7 35 42 34 31 37 42 36 46 49 47 63 64 86 88 91 89 87 86 88 88 87 89 84 86 90 89 90 85 86 86 89 81 65 77 93 95 91 95 98 97 98
58 69 61 51 11 5 14 32 44 28 36 44 33 44 51 46 56 66 80 81 82 78 76 81 80 80 82 79 76 83 84 81 84 79 72 73 75 75 53 66 75 90 95 82 94 96 91
37 63 70 53 32 5 13 34 32 29 34 42 32 44 49 49 46 55 65 69 77 76 76 85 85 76 72 68 66 66 70 66 67 68 68 64 62 70 77 74 76 86 96 95 86 91 99
38 42 64 67 45 10 10 36 30 32 38 35 35 40 43 47 44 45 52 62 64 62 63 70 70 62 60 62 46 42 45 51 56 57 57 58 57 56 58 63 64 73 80 88 94 88 92
45 40 51 74 55 28 5 28 37 34 39 36 32 29 37 42 42 42 42 52 56 57 56 61 61 58 53 43 33 34 36 39 42 48 48 52 50 48 46 50 54 51 61 63 66 90 99
54 49 44 62 73 45 11 8 37 36 40 35 19 24 30 34 41 38 37 40 46 56 57 51 50 49 45 41 38 37 34 32 30 31 39 39 36 36 37 41 48 45 47 47 51 57 64
59 54 46 57 78 60 30 5 23 37 40 38 16 14 22 27 32 34 34 35 35 44 53 52 46 47 46 40 34 32 34 33 31 29 28 30 34 37 30 28 44 31 37 44 46 43 44
63 57 45 56 72 78 50 13 6 36 38 42 26 12 16 24 22 28 27 26 31 32 38 42 46 45 46 41 37 33 34 31 29 31 34 30 29 30 32 29 22 24 30 36 41 37 39
68 60 47 58 76 83 64 32 6 19 39 41 41 20 13 17 23 18 18 20 19 25 30 31 35 38 40 43 39 37 31 34 36 34 32 33 32 33 30 38 31 32 33 41 43 29 29
69 63 51 57 68 82 81 48 13 7 28 39 43 39 22 16 16 17 18 19 20 18 22 24 28 32 35 38 44 47 43 41 37 35 36 36 37 37 43 41 22 31 42 45 51 29 31
68 65 51 58 62 84 92 64 26 7 8 28 35 46 40 33 20 18 21 18 19 20 24 32 33 26 25 31 36 42 48 52 50 47 44 42 41 39 53 62 46 33 44 47 40 39 37
70 65 58 65 72 87 92 81 47 11 6 8 20 34 46 46 45 42 20 20 19 18 23 26 39 57 54 44 44 44 50 55 46 54 43 47 42 45 43 30 31 35 39 47 44 42 42

GFSGBSN_700_rhum_111.txt.gz
RH
5 6 6 10 14 15 22 32 16 22 75 95 97 98 97 98 98 92 96 86 90 93 99 94 65 54 53 78 93 87 96 92 85 70 60 50 56 49 39 30 26 26 27 27 25 22 20
8 6 7 10 13 16 20 28 32 17 40 62 60 80 91 92 88 94 92 84 72 44 70 97 90 59 53 100 92 84 98 97 100 89 76 49 39 35 31 31 31 27 25 23 21 20 19
10 9 7 8 10 13 15 17 26 20 18 34 64 57 75 80 71 68 81 76 71 31 34 46 95 72 64 98 91 97 98 99 58 46 44 45 49 45 38 34 31 27 24 24 23 21 18
12 11 12 9 10 9 10 13 14 15 14 19 25 53 72 78 69 65 84 73 47 33 25 51 91 95 98 98 98 98 97 98 83 76 64 56 51 44 39 34 30 29 26 24 20 17 15
10 15 12 16 14 11 11 11 12 15 15 14 19 29 35 62 65 56 64 80 52 15 33 90 95 96 98 98 97 94 97 98 94 69 60 53 45 40 38 36 35 32 29 23 16 17 22
6 13 17 20 23 22 26 28 28 28 18 22 18 27 31 29 53 57 53 82 59 29 95 98 97 95 96 97 98 96 98 97 97 76 56 48 42 41 42 38 36 32 29 24 21 34 48
9 8 20 21 25 32 37 42 43 60 42 34 31 28 32 29 36 53 49 59 58 58 91 78 87 87 99 100 100 98 95 93 75 61 53 46 47 50 45 38 32 36 43 42 32 47 55
10 9 17 20 24 36 44 52 60 67 74 79 71 59 43 32 37 45 46 85 66 91 94 99 99 90 100 100 98 100 98 92 80 60 51 55 56 51 44 43 45 56 59 44 41 60 72
20 12 9 25 27 33 37 44 58 74 76 82 84 66 18 24 32 37 38 56 63 71 99 100 96 94 94 99 97 99 98 79 64 60 59 54 58 64 62 66 67 75 72 71 74 66 67
14 12 17 11 29 31 33 34 43 60 81 84 80 46 27 25 28 30 36 43 51 59 59 94 97 99 99 93 100 80 77 79 75 74 62 53 59 61 58 62 85 76 73 74 72 100 97
9 19 16 20 13 29 34 32 37 48 63 71 71 55 26 41 26 38 40 53 55 56 83 94 89 92 89 91 77 79 86 85 87 88 74 66 73 88 86 95 99 80 76 83 97 100 100
51 8 21 21 22 17 23 25 34 44 62 58 71 55 51 34 52 53 51 60 67 60 98 87 87 96 96 99 91 84 79 75 81 88 85 86 91 88 85 88 84 86 77 79 97 99 98
75 40 7 19 26 22 20 20 29 37 54 73 60 73 65 59 53 50 62 64 62 88 95 93 100 99 99 88 80 85 85 82 88 96 87 81 84 85 78 78 83 80 98 92 90 98 89
81 67 24 6 13 36 23 22 26 35 44 66 60 62 68 67 62 64 66 64 80 99 100 88 93 94 78 85 90 91 96 98 97 92 98 93 76 82 77 91 89 99 99 98 97 94 83
60 85 58 12 6 13 41 26 24 33 44 52 61 52 64 60 58 56 52 74 100 96 89 90 95 94 96 100 99 98 100 100 96 90 90 98 83 82 87 92 97 99 98 99 98 99 98
46 67 78 41 7 6 29 42 28 35 43 41 50 42 54 55 52 46 45 78 85 83 90 96 98 95 95 97 97 99 97 92 93 94 91 97 93 75 87 94 96 98 98 97 97 95 94
48 52 70 67 15 6 24 40 28 36 41 43 46 42 44 59 53 52 68 94 96 96 96 94 91 88 88 91 93 91 88 95 97 97 100 99 98 76 86 79 97 96 98 97 98 98 95
48 51 56 70 50 6 24 34 30 32 39 39 46 43 36 49 52 64 84 88 89 86 85 86 86 85 80 77 78 84 88 87 86 86 88 94 96 84 75 91 99 97 98 97 97 98 98
47 57 50 55 69 23 10 31 34 36 29 30 46 42 35 44 47 58 76 81 83 78 74 77 79 77 79 76 74 75 77 77 79 80 78 75 73 77 58 75 93 88 99 92 95 97 92
47 52 56 52 64 55 8 20 34 38 24 22 38 46 40 37 44 46 52 66 78 78 82 82 76 72 69 72 70 66 71 71 77 76 76 72 68 66 67 71 74 75 95 92 98 96 97
49 47 57 51 55 69 29 6 31 38 31 16 30 42 36 31 26 35 40 49 56 60 68 69 68 63 60 57 45 42 46 56 61 60 66 68 57 53 50 57 57 63 69 87 94 91 92
51 48 55 54 53 64 57 10 9 36 37 15 19 35 38 33 27 27 32 39 42 45 53 58 60 56 51 42 37 34 32 34 36 45 47 48 52 46 35 44 50 54 58 59 70 84 82
52 52 52 56 53 63 68 33 5 24 39 31 9 22 36 35 27 24 26 30 34 35 36 41 45 46 42 38 34 35 33 31 32 30 28 34 41 43 34 36 39 44 36 44 43 50 62
42 59 49 52 59 62 69 62 14 7 35 40 24 10 21 31 34 21 22 25 28 31 33 32 33 36 40 34 31 28 29 29 26 29 34 34 32 34 31 27 36 22 32 38 41 42 42
26 46 47 53 49 64 64 79 43 7 11 37 40 21 12 18 30 32 25 23 23 25 28 30 30 30 30 33 32 25 28 28 28 30 32 37 39 37 35 32 17 20 24 37 42 35 40
19 38 47 51 46 59 76 89 67 21 6 14 38 40 24 12 16 27 32 26 24 25 24 26 29 29 28 26 30 32 27 28 28 28 29 31 36 38 37 37 27 18 26 31 39 31 33
14 26 50 51 50 51 69 82 87 46 13 6 17 38 41 32 19 17 22 32 28 30 30 31 33 34 38 35 29 32 31 31 30 30 30 33 35 36 39 44 22 26 34 42 41 26 28
24 33 54 58 57 49 65 84 90 74 27 10 8 14 32 42 40 30 18 18 24 24 26 29 34 36 40 50 44 39 44 42 40 37 35 40 41 40 48 52 45 34 35 39 40 40 41
41 52 63 71 63 52 59 78 94 95 60 17 9 8 11 21 38 42 44 39 18 20 21 21 34 38 43 44 47 48 44 49 43 51 38 41 36 36 38 27 29 36 38 41 40 40 46

GFSGBSN_700_rhum_114.txt.gz
RH
12 12 14 15 20 22 29 24 19 20 19 26 87 96 99 98 88 85 85 94 86 88 96 94 80 77 92 95 99 99 93 98 90 71 54 42 47 45 39 34 32 30 28 24 20 22 22
9 15 19 17 24 28 34 38 25 21 22 21 29 79 98 100 96 77 83 81 65 36 89 98 94 71 97 98 99 90 98 99 96 86 67 49 46 48 43 39 32 26 23 22 23 21 19
6 15 22 21 30 38 44 53 44 21 24 26 30 28 88 96 90 68 92 78 44 48 54 95 96 85 95 96 96 85 83 96 99 96 87 66 42 36 33 29 28 28 28 24 20 19 18
7 13 21 26 33 41 50 58 64 35 28 44 36 29 33 94 67 78 84 50 44 52 45 93 97 87 90 95 98 89 75 95 98 90 58 46 39 38 37 33 32 28 26 24 19 18 17
9 9 19 32 32 36 45 60 73 76 63 79 43 35 38 49 68 86 80 55 27 89 97 96 96 92 94 97 98 97 98 98 60 63 64 58 52 44 39 36 32 29 32 24 18 15 15
10 12 14 30 39 34 36 54 72 93 99 94 66 45 37 38 57 68 70 59 74 97 96 98 97 97 98 98 94 96 97 100 92 64 56 47 44 39 36 34 46 43 28 19 13 21 22
14 16 12 21 40 38 33 45 66 82 98 84 28 34 34 42 57 68 66 47 98 92 91 96 98 82 98 98 98 98 99 98 93 77 56 48 41 39 37 37 33 26 22 24 26 32 29
12 18 19 13 23 47 39 38 60 73 54 26 20 24 32 47 52 60 50 34 67 74 97 95 97 94 99 98 91 97 92 83 70 59 51 46 61 42 38 33 28 32 37 49 39 47 54
17 14 22 21 15 27 38 37 51 68 39 18 21 24 32 38 45 64 71 37 49 51 83 100 99 99 96 95 94 90 92 77 63 55 53 55 52 44 40 39 44 46 54 80 67 58 61
56 10 10 28 23 19 21 35 38 66 45 19 22 25 31 38 47 56 60 48 58 45 56 87 89 91 94 93 83 80 77 73 69 63 49 45 41 45 46 48 62 78 61 68 78 96 92
81 43 7 12 36 22 23 32 40 60 56 40 19 21 27 33 37 56 60 60 60 55 77 88 89 90 93 79 77 78 71 67 73 61 58 60 67 63 64 76 73 85 78 85 93 99 100
73 69 23 6 25 36 22 30 41 48 59 56 47 28 30 40 36 48 55 55 52 53 92 92 94 99 98 98 83 73 72 75 77 81 80 79 76 77 84 85 85 87 74 84 100 98 94
56 80 52 8 8 34 30 27 38 42 60 56 52 45 38 32 43 51 51 55 60 92 95 91 94 91 92 82 83 87 84 84 90 92 84 78 81 78 76 76 83 90 99 88 87 90 70
52 64 76 22 10 31 33 30 38 39 52 46 50 41 40 42 49 52 52 57 88 97 92 87 94 92 92 96 91 98 97 99 99 87 96 98 94 80 86 94 97 100 99 97 86 71 64
54 53 72 54 7 33 30 28 37 32 43 43 43 36 28 30 35 41 44 55 86 83 82 89 93 94 95 88 92 88 98 99 100 100 98 96 88 86 88 88 92 99 99 99 98 93 94
50 56 56 73 27 21 30 33 33 26 40 44 43 36 35 33 33 37 42 68 82 86 92 91 96 90 100 95 95 96 88 90 98 93 82 85 93 72 80 83 90 95 99 98 98 86 81
40 52 54 61 68 10 32 36 29 23 35 41 37 38 39 40 44 47 59 86 93 95 91 92 90 92 94 89 89 94 88 92 90 81 76 75 96 76 79 78 92 97 95 98 96 98 79
26 44 55 50 68 48 14 36 33 22 20 39 31 38 43 43 49 41 60 75 82 84 86 87 85 85 85 85 84 85 88 85 81 83 82 89 98 98 72 78 88 95 96 98 95 98 97
22 29 54 50 57 67 23 28 36 16 18 27 32 28 38 44 44 42 48 53 61 71 76 79 82 79 78 75 75 76 79 78 82 81 84 81 80 89 62 76 86 95 94 100 100 99 93
25 16 38 56 51 52 62 9 34 29 14 19 30 32 34 40 42 45 43 48 49 53 56 59 63 66 66 60 62 56 60 62 67 68 72 73 69 67 66 67 64 68 80 96 95 100 84
10 12 25 40 52 49 52 44 14 34 18 16 22 26 24 35 36 39 44 42 42 43 43 43 43 45 43 38 43 38 42 50 54 55 61 74 63 54 43 48 55 53 60 77 99 89 96
7 10 13 30 48 47 44 64 12 24 32 11 20 21 28 27 24 29 39 42 40 37 37 35 34 31 28 24 23 26 28 32 35 39 42 49 49 40 22 28 41 40 42 55 64 84 86
7 7 9 18 37 48 45 55 56 9 27 33 15 14 22 25 27 26 30 37 39 39 38 37 36 32 28 24 22 20 20 20 22 24 26 32 39 38 37 27 32 32 17 35 46 47 64
7 7 8 10 22 43 48 46 66 36 10 28 36 18 13 20 21 23 23 29 33 36 39 39 36 36 36 31 26 21 20 19 20 23 23 26 32 38 36 27 41 19 20 30 46 47 48
8 7 8 11 23 30 50 47 54 71 23 10 24 37 28 11 19 21 22 23 25 27 29 33 36 36 37 35 35 28 22 21 18 19 25 28 35 39 37 52 23 18 21 28 42 37 42
9 8 10 18 24 32 45 52 45 69 63 15 11 21 37 36 17 15 23 26 27 23 21 22 26 31 34 35 37 39 33 26 28 32 31 38 45 52 49 49 27 14 19 23 32 40 33
10 10 12 21 34 43 46 57 52 49 78 49 14 11 19 33 35 35 16 20 25 27 25 24 22 22 28 35 43 44 36 32 33 34 34 42 50 58 67 56 31 18 23 29 42 33 33
12 13 21 31 47 56 58 63 59 52 62 83 44 15 10 13 21 38 38 37 24 19 28 28 27 20 28 36 47 42 46 42 40 34 32 36 36 41 48 64 50 26 30 33 38 38 40
22 22 30 44 58 71 72 70 64 62 56 75 86 43 16 11 12 11 15 32 41 42 18 20 25 26 28 31 40 44 49 50 45 59 36 40 34 39 36 30 31 34 32 44 54 47 46

GFSGBSN_700_rhum_117.txt.gz
RH
7 11 26 31 30 41 54 61 67 48 30 29 69 98 96 97 94 87 95 77 62 77 90 96 57 81 93 97 99 99 99 96 79 72 54 40 36 34 36 33 31 30 25 23 23 21 18
8 12 27 35 32 42 55 69 85 70 55 84 60 50 94 92 85 91 81 67 38 68 98 99 90 89 98 98 98 96 99 99 91 75 56 41 36 35 30 29 31 28 26 26 22 18 14
12 12 22 36 37 38 54 77 91 100 87 87 72 45 58 95 90 96 60 46 41 55 83 97 97 95 98 98 98 99 98 99 99 84 63 52 43 44 36 37 34 30 24 20 18 19 18
16 13 17 28 40 38 52 68 76 54 52 50 37 41 80 80 96 76 56 48 59 37 93 97 96 98 98 97 100 89 98 94 100 93 75 71 45 38 31 28 25 24 24 32 26 17 16
17 20 15 20 30 37 48 60 40 20 20 24 30 56 84 90 87 77 58 97 97 97 98 98 95 97 98 97 98 99 94 92 99 99 87 62 42 34 32 32 32 30 63 36 45 19 17
8 23 24 18 21 33 44 56 37 20 21 28 44 60 55 84 69 68 88 97 97 97 98 98 95 95 94 96 98 93 99 100 95 62 55 52 50 43 41 38 52 48 52 37 42 53 21
15 8 30 21 20 31 41 55 31 20 21 27 37 45 56 62 61 55 88 93 96 100 94 96 97 97 97 97 98 97 98 97 69 60 55 48 61 85 46 35 38 29 32 43 47 65 25
48 6 17 34 21 30 40 53 32 20 22 28 33 37 43 52 54 50 65 74 75 92 100 92 98 99 95 98 97 97 96 98 88 73 54 50 76 47 36 34 30 23 31 53 57 38 46
70 21 6 36 23 29 40 51 40 19 22 26 33 38 43 45 53 59 63 54 64 66 86 93 92 91 89 99 92 87 78 80 86 63 70 78 71 41 38 30 29 52 52 69 70 66 61
67 48 8 23 35 25 38 46 50 41 19 22 25 26 35 47 48 53 50 49 53 56 64 90 80 92 89 88 82 78 67 59 56 79 54 79 41 38 38 43 37 69 66 56 80 82 85
55 69 14 27 34 28 34 40 45 48 45 22 19 20 26 41 36 42 49 52 50 49 73 80 86 92 78 76 73 70 64 57 98 58 57 66 55 53 88 94 66 88 70 87 98 99 99
57 58 55 14 32 29 34 36 41 44 44 42 28 21 22 29 42 53 51 52 52 70 91 93 93 98 91 78 69 70 69 65 72 72 68 89 72 74 92 77 75 79 76 94 98 100 93
54 53 66 22 29 32 26 30 34 37 38 37 38 34 30 35 41 46 50 50 69 87 92 92 94 100 100 93 85 94 98 100 100 98 94 86 80 72 74 92 87 95 94 81 96 97 72
46 54 57 60 12 33 26 22 31 29 30 28 30 34 37 39 40 46 49 52 88 100 99 88 92 99 99 96 90 99 98 99 86 93 99 99 94 82 80 93 100 95 92 96 87 75 61
33 54 50 62 28 24 31 16 28 26 27 26 30 28 28 28 29 27 34 46 88 100 93 100 96 89 98 96 99 98 91 99 97 83 98 99 87 77 80 87 91 98 94 98 95 89 92
9 41 50 53 60 12 30 16 16 32 24 26 28 31 37 36 35 37 40 60 78 81 84 96 100 89 90 97 99 100 100 88 84 83 82 97 96 78 73 76 82 91 91 99 98 88 83
6 16 40 48 52 50 12 31 11 21 28 26 28 31 38 44 48 45 50 69 74 73 71 84 97 93 97 98 99 97 95 94 88 88 81 84 95 92 71 76 92 97 97 98 96 93 84
6 7 21 46 46 55 30 20 22 13 24 25 25 33 36 42 42 42 55 61 67 66 66 69 67 70 79 78 95 96 94 91 80 78 94 75 87 94 82 83 82 96 96 94 98 96 85
6 6 10 32 43 43 58 16 28 12 15 24 21 28 28 34 42 42 46 52 54 56 58 58 58 55 53 58 85 63 66 65 64 68 94 92 98 84 70 80 90 97 93 94 99 97 94
6 6 7 13 32 41 46 51 9 30 11 18 25 23 30 30 34 40 45 47 47 48 44 46 46 42 40 39 40 42 42 46 52 56 58 62 87 85 65 54 68 71 76 83 99 100 83
7 6 6 8 13 36 41 48 45 13 28 12 20 21 20 26 29 32 39 43 42 43 44 42 39 38 35 48 35 30 29 30 30 34 37 45 53 66 32 27 51 66 70 71 100 87 95
8 7 6 7 9 20 39 42 51 31 17 28 12 20 24 19 21 26 31 37 39 39 42 44 44 43 41 51 46 72 42 58 62 32 38 36 52 58 19 19 24 25 28 53 69 84 95
8 8 7 7 8 13 25 43 43 57 28 19 31 11 19 24 24 22 24 29 31 33 34 36 36 37 36 34 31 30 30 28 31 37 57 49 54 60 53 32 26 34 15 16 25 31 40
10 9 9 8 8 12 18 34 47 45 60 23 16 35 18 12 21 25 21 23 27 28 31 31 32 31 28 29 27 23 24 22 22 24 32 50 84 81 51 33 54 27 13 15 20 30 40
13 11 10 9 9 13 24 29 49 50 48 66 19 12 34 32 16 15 24 23 22 24 23 22 23 24 26 26 25 24 34 21 21 20 25 33 57 81 73 54 36 26 25 30 38 42 48
14 13 11 11 13 14 22 33 46 58 50 57 64 20 10 22 28 32 13 18 26 28 27 23 21 20 20 22 26 47 34 31 37 28 25 27 40 65 62 57 31 30 24 20 24 38 47
12 12 12 12 16 24 25 32 50 66 61 52 72 67 23 11 17 31 37 35 19 22 29 26 24 26 26 31 54 54 46 40 35 44 45 31 41 63 71 66 50 36 28 26 44 48 39
39 18 11 12 16 28 40 44 59 73 72 63 59 78 76 30 17 14 18 35 37 38 33 28 26 21 24 32 64 63 63 58 35 29 27 42 48 63 58 54 58 28 27 28 33 37 40
71 51 31 21 19 31 46 62 68 82 82 75 66 70 85 81 48 25 19 13 14 27 43 42 31 28 27 28 41 50 46 56 40 48 40 39 29 37 37 39 26 25 25 31 35 37 38

GFSGBSN_700_rhum_120.txt.gz
RH
17 12 18 23 31 48 27 22 46 52 65 68 31 68 84 83 70 79 69 58 58 63 77 77 62 76 97 98 97 99 100 96 78 65 52 38 44 53 50 44 35 32 28 25 23 20 19
24 16 16 24 34 45 20 19 17 32 24 19 26 74 87 73 74 54 46 43 63 76 79 92 73 98 88 97 90 99 100 98 92 72 54 43 45 43 53 35 39 32 26 24 21 20 19
18 24 17 27 36 41 19 20 22 17 19 41 75 85 73 78 57 54 51 35 57 86 91 96 99 98 80 99 98 99 99 99 92 80 60 43 33 33 31 28 27 26 25 23 21 18 15
7 30 19 30 36 41 18 19 33 50 56 56 64 74 70 69 79 76 91 74 42 86 95 96 98 97 96 98 98 98 99 99 96 77 67 56 45 38 32 32 30 32 26 22 26 22 15
6 28 22 29 36 41 21 18 26 43 43 47 58 41 55 82 87 85 92 94 97 98 96 98 97 98 97 99 97 98 97 99 98 92 65 56 52 42 33 29 24 24 56 31 42 28 20
8 18 30 26 36 41 23 18 24 32 36 42 43 42 50 68 78 78 83 94 95 95 95 97 94 93 99 97 98 98 98 88 92 95 77 60 46 34 30 28 54 53 40 32 32 40 24
14 19 32 25 34 36 35 16 22 28 31 39 40 38 35 58 69 81 68 78 87 95 96 97 98 96 100 99 96 99 100 91 89 68 54 47 47 60 54 36 44 46 38 36 40 49 30
50 18 30 28 30 34 38 27 19 30 34 32 34 40 36 52 72 75 58 56 61 81 99 98 95 93 99 99 100 100 99 80 70 61 50 50 77 63 40 33 30 29 28 50 58 53 34
62 13 32 31 28 30 33 39 20 19 21 30 27 36 29 40 50 55 48 52 58 60 83 97 95 92 98 98 96 92 90 90 90 69 83 76 72 43 35 31 29 42 44 61 60 47 58
52 50 18 33 26 27 28 34 37 21 17 18 19 22 24 26 42 45 50 50 52 60 65 90 81 83 93 87 78 72 79 78 78 68 77 68 43 40 37 43 30 68 70 47 76 62 60
50 62 16 31 32 22 25 28 33 36 30 14 18 19 20 27 30 40 46 48 55 62 87 79 89 82 72 73 70 66 62 57 49 47 65 63 40 38 77 92 56 94 67 62 84 97 94
38 49 56 15 33 20 24 22 27 29 30 31 25 29 35 39 42 51 48 52 70 66 96 86 96 88 78 62 64 70 63 51 54 63 61 54 59 61 90 69 68 71 68 90 94 90 97
14 43 51 35 30 22 17 23 23 24 24 25 30 35 38 41 48 49 48 55 63 86 89 90 100 98 99 100 84 99 94 93 88 93 92 80 76 68 71 96 92 93 96 88 79 95 91
6 20 45 49 15 31 12 22 20 22 28 30 29 29 30 31 31 36 44 42 87 96 97 95 97 96 79 93 98 94 98 98 84 100 98 84 83 76 81 95 94 93 88 91 81 97 86
5 8 28 44 52 18 23 12 25 21 24 27 34 34 32 32 35 35 35 51 91 100 97 87 86 95 90 90 97 91 99 93 85 86 89 91 86 83 83 91 90 97 95 94 89 81 97
5 6 10 38 46 33 24 14 14 22 23 26 30 35 39 41 42 41 34 62 76 75 76 92 91 82 82 90 93 90 89 99 98 84 90 98 91 90 70 76 81 87 91 92 97 97 94
5 6 7 13 42 53 19 25 11 15 21 22 28 30 38 42 43 40 44 58 64 62 61 77 89 86 87 91 94 89 90 85 75 74 69 71 97 93 79 79 95 97 95 89 92 93 96
5 5 6 8 19 44 54 14 24 11 16 16 22 28 32 33 33 38 48 49 50 53 56 59 62 66 77 83 88 87 91 70 66 64 100 90 76 72 80 82 73 89 81 88 96 97 86
5 6 6 6 11 25 46 54 14 22 12 19 16 21 27 29 27 34 43 49 51 46 49 48 52 53 53 63 83 60 62 56 55 57 62 62 79 82 78 76 82 86 82 84 93 99 93
5 6 6 6 8 14 28 47 52 15 24 13 18 18 20 25 28 30 30 36 43 46 46 44 42 41 36 66 40 42 51 39 44 46 50 50 60 82 65 48 60 71 73 71 77 96 86
8 6 6 6 6 8 16 31 48 52 16 23 13 18 18 18 22 28 30 31 30 32 37 38 36 39 33 59 57 57 32 40 31 35 35 34 31 44 47 31 43 42 52 68 74 57 94
14 9 7 7 7 7 9 18 38 50 53 16 25 12 17 21 17 19 26 30 28 28 28 27 32 32 33 30 24 24 25 28 34 26 29 34 39 41 22 26 34 36 28 29 60 71 66
18 13 10 8 8 8 10 12 22 42 50 59 20 20 21 16 21 22 18 22 28 29 26 26 27 28 27 28 27 26 25 23 26 26 31 50 45 44 36 25 26 23 29 23 35 39 50
19 17 14 12 9 9 9 14 17 29 44 51 58 22 16 26 20 17 21 19 20 26 28 26 27 28 24 25 24 22 20 20 22 20 27 35 73 81 63 44 75 28 24 22 24 22 28
14 14 14 13 11 10 10 11 18 28 39 51 56 67 29 14 23 30 16 18 22 19 21 23 25 24 24 23 22 21 20 28 25 23 24 36 62 66 66 70 33 19 20 18 17 19 30
11 10 10 11 10 10 10 10 15 31 43 52 56 58 75 47 23 15 32 23 15 17 20 19 22 25 24 23 25 34 36 29 36 36 34 35 50 77 72 64 53 24 25 26 29 24 24
19 40 38 44 47 25 15 12 14 28 52 61 60 60 60 79 39 21 14 18 33 36 24 24 21 21 20 26 38 51 49 43 35 44 42 39 50 54 63 75 47 23 28 33 27 24 33
48 58 50 45 60 49 33 24 25 30 55 73 70 65 63 59 78 48 23 21 16 28 36 42 47 36 26 27 38 50 60 53 44 32 32 35 35 59 70 71 61 24 25 24 21 25 30
77 72 67 69 67 70 54 41 47 51 58 81 87 77 67 64 66 77 78 65 23 20 21 28 44 44 32 30 43 47 53 46 40 51 44 46 36 36 37 30 23 24 28 27 28 29 31